<?xml version="1.0" encoding="UTF-8" standalone="no" ?>
<gpx xmlns="http://www.topografix.com/GPX/1/1" xmlns:xsi="http://www.w3.org/2001/XMLSchema-instance" xsi:schemaLocation="http://www.topografix.com/GPX/1/1 http://www.topografix.com/GPX/1/1/gpx.xsd" version="1.1" creator="VisuGPX - https://www.visugpx.com">
  <metadata>
    <name>Chalet chartres.</name>
    <desc><![CDATA[Trajet Rouen-Chartres1]]></desc>
  </metadata>
  <trk>
    <name><![CDATA[Challet Autre]]></name>
    <trkseg>
      <trkpt lat="48.55442" lon="1.43437">
        <ele>189</ele>
        <time>2015-04-24T08:13:11.000Z</time>
      </trkpt>
      <trkpt lat="48.55442" lon="1.43437">
        <ele>189</ele>
        <time>2015-04-24T08:13:24.000Z</time>
      </trkpt>
      <trkpt lat="48.55444" lon="1.43439">
        <ele>189</ele>
        <time>2015-04-24T08:13:32.000Z</time>
      </trkpt>
      <trkpt lat="48.55446" lon="1.43443">
        <ele>189</ele>
        <time>2015-04-24T08:13:43.000Z</time>
      </trkpt>
      <trkpt lat="48.55448" lon="1.43444">
        <ele>189</ele>
        <time>2015-04-24T08:13:50.000Z</time>
      </trkpt>
      <trkpt lat="48.55447" lon="1.43445">
        <ele>189</ele>
        <time>2015-04-24T08:13:56.000Z</time>
      </trkpt>
      <trkpt lat="48.55447" lon="1.43445">
        <ele>189</ele>
        <time>2015-04-24T08:14:07.000Z</time>
      </trkpt>
      <trkpt lat="48.55446" lon="1.43446">
        <ele>189</ele>
        <time>2015-04-24T08:14:08.000Z</time>
      </trkpt>
      <trkpt lat="48.55444" lon="1.43447">
        <ele>189</ele>
        <time>2015-04-24T08:14:12.000Z</time>
      </trkpt>
      <trkpt lat="48.55441" lon="1.43447">
        <ele>189</ele>
        <time>2015-04-24T08:14:18.000Z</time>
      </trkpt>
      <trkpt lat="48.55441" lon="1.4345">
        <ele>189</ele>
        <time>2015-04-24T08:14:25.000Z</time>
      </trkpt>
      <trkpt lat="48.55443" lon="1.4345">
        <ele>189</ele>
        <time>2015-04-24T08:14:31.000Z</time>
      </trkpt>
      <trkpt lat="48.55442" lon="1.4345">
        <ele>189</ele>
        <time>2015-04-24T08:14:37.000Z</time>
      </trkpt>
      <trkpt lat="48.55443" lon="1.43451">
        <ele>189</ele>
        <time>2015-04-24T08:14:53.000Z</time>
      </trkpt>
      <trkpt lat="48.55443" lon="1.43451">
        <ele>189</ele>
        <time>2015-04-24T08:15:06.000Z</time>
      </trkpt>
      <trkpt lat="48.55443" lon="1.43452">
        <ele>189</ele>
        <time>2015-04-24T08:15:16.000Z</time>
      </trkpt>
      <trkpt lat="48.55444" lon="1.43453">
        <ele>189</ele>
        <time>2015-04-24T08:15:22.000Z</time>
      </trkpt>
      <trkpt lat="48.55444" lon="1.43455">
        <ele>189</ele>
        <time>2015-04-24T08:15:30.000Z</time>
      </trkpt>
      <trkpt lat="48.55445" lon="1.43454">
        <ele>189</ele>
        <time>2015-04-24T08:15:39.000Z</time>
      </trkpt>
      <trkpt lat="48.55444" lon="1.43458">
        <ele>189</ele>
        <time>2015-04-24T08:15:51.000Z</time>
      </trkpt>
      <trkpt lat="48.55445" lon="1.4346">
        <ele>189</ele>
        <time>2015-04-24T08:16:02.000Z</time>
      </trkpt>
      <trkpt lat="48.55446" lon="1.43461">
        <ele>189</ele>
        <time>2015-04-24T08:16:10.000Z</time>
      </trkpt>
      <trkpt lat="48.55445" lon="1.4346">
        <ele>189</ele>
        <time>2015-04-24T08:16:19.000Z</time>
      </trkpt>
      <trkpt lat="48.55444" lon="1.43462">
        <ele>189</ele>
        <time>2015-04-24T08:16:25.000Z</time>
      </trkpt>
      <trkpt lat="48.55438" lon="1.43471">
        <ele>189.2</ele>
        <time>2015-04-24T08:16:32.000Z</time>
      </trkpt>
      <trkpt lat="48.55433" lon="1.43478">
        <ele>189.4</ele>
        <time>2015-04-24T08:16:38.000Z</time>
      </trkpt>
      <trkpt lat="48.55433" lon="1.43477">
        <ele>189.4</ele>
        <time>2015-04-24T08:16:39.000Z</time>
      </trkpt>
      <trkpt lat="48.55429" lon="1.43473">
        <ele>189.5</ele>
        <time>2015-04-24T08:16:45.000Z</time>
      </trkpt>
      <trkpt lat="48.55426" lon="1.43469">
        <ele>189.6</ele>
        <time>2015-04-24T08:16:51.000Z</time>
      </trkpt>
      <trkpt lat="48.55425" lon="1.43466">
        <ele>189.5</ele>
        <time>2015-04-24T08:17:01.000Z</time>
      </trkpt>
      <trkpt lat="48.55426" lon="1.43463">
        <ele>189.4</ele>
        <time>2015-04-24T08:17:08.000Z</time>
      </trkpt>
      <trkpt lat="48.55425" lon="1.43463">
        <ele>189.5</ele>
        <time>2015-04-24T08:17:13.000Z</time>
      </trkpt>
      <trkpt lat="48.55425" lon="1.43463">
        <ele>189.5</ele>
        <time>2015-04-24T08:17:21.000Z</time>
      </trkpt>
      <trkpt lat="48.55425" lon="1.43463">
        <ele>189.5</ele>
        <time>2015-04-24T08:17:27.000Z</time>
      </trkpt>
      <trkpt lat="48.55424" lon="1.43464">
        <ele>189.5</ele>
        <time>2015-04-24T08:17:40.000Z</time>
      </trkpt>
      <trkpt lat="48.55424" lon="1.43464">
        <ele>189.5</ele>
        <time>2015-04-24T08:17:50.000Z</time>
      </trkpt>
      <trkpt lat="48.5542" lon="1.43466">
        <ele>189.7</ele>
        <time>2015-04-24T08:17:56.000Z</time>
      </trkpt>
      <trkpt lat="48.55416" lon="1.4347">
        <ele>189.9</ele>
        <time>2015-04-24T08:18:00.000Z</time>
      </trkpt>
      <trkpt lat="48.55413" lon="1.43471">
        <ele>190.1</ele>
        <time>2015-04-24T08:18:02.000Z</time>
      </trkpt>
      <trkpt lat="48.55409" lon="1.43475">
        <ele>190.3</ele>
        <time>2015-04-24T08:18:06.000Z</time>
      </trkpt>
      <trkpt lat="48.55407" lon="1.43478">
        <ele>190.3</ele>
        <time>2015-04-24T08:18:13.000Z</time>
      </trkpt>
      <trkpt lat="48.55408" lon="1.4348">
        <ele>190.3</ele>
        <time>2015-04-24T08:18:14.000Z</time>
      </trkpt>
      <trkpt lat="48.55411" lon="1.43486">
        <ele>190.2</ele>
        <time>2015-04-24T08:18:19.000Z</time>
      </trkpt>
      <trkpt lat="48.55412" lon="1.43486">
        <ele>190.2</ele>
        <time>2015-04-24T08:18:21.000Z</time>
      </trkpt>
      <trkpt lat="48.55414" lon="1.43485">
        <ele>190.1</ele>
        <time>2015-04-24T08:18:23.000Z</time>
      </trkpt>
      <trkpt lat="48.55414" lon="1.43484">
        <ele>190.1</ele>
        <time>2015-04-24T08:18:24.000Z</time>
      </trkpt>
      <trkpt lat="48.55411" lon="1.43484">
        <ele>190.2</ele>
        <time>2015-04-24T08:18:30.000Z</time>
      </trkpt>
      <trkpt lat="48.55407" lon="1.43489">
        <ele>190.4</ele>
        <time>2015-04-24T08:18:36.000Z</time>
      </trkpt>
      <trkpt lat="48.55405" lon="1.43492">
        <ele>190.4</ele>
        <time>2015-04-24T08:18:41.000Z</time>
      </trkpt>
      <trkpt lat="48.55406" lon="1.43492">
        <ele>190.4</ele>
        <time>2015-04-24T08:18:46.000Z</time>
      </trkpt>
      <trkpt lat="48.55407" lon="1.43492">
        <ele>190.4</ele>
        <time>2015-04-24T08:18:54.000Z</time>
      </trkpt>
      <trkpt lat="48.55407" lon="1.43492">
        <ele>190.4</ele>
        <time>2015-04-24T08:19:00.000Z</time>
      </trkpt>
      <trkpt lat="48.55408" lon="1.43492">
        <ele>190.3</ele>
        <time>2015-04-24T08:19:07.000Z</time>
      </trkpt>
      <trkpt lat="48.55407" lon="1.43489">
        <ele>190.4</ele>
        <time>2015-04-24T08:19:19.000Z</time>
      </trkpt>
      <trkpt lat="48.55406" lon="1.43486">
        <ele>190.4</ele>
        <time>2015-04-24T08:19:26.000Z</time>
      </trkpt>
      <trkpt lat="48.55407" lon="1.43485">
        <ele>190.3</ele>
        <time>2015-04-24T08:19:36.000Z</time>
      </trkpt>
      <trkpt lat="48.55408" lon="1.43484">
        <ele>190.3</ele>
        <time>2015-04-24T08:19:45.000Z</time>
      </trkpt>
      <trkpt lat="48.55408" lon="1.43483">
        <ele>190.3</ele>
        <time>2015-04-24T08:19:52.000Z</time>
      </trkpt>
      <trkpt lat="48.55408" lon="1.43485">
        <ele>190.3</ele>
        <time>2015-04-24T08:20:02.000Z</time>
      </trkpt>
      <trkpt lat="48.5541" lon="1.43485">
        <ele>190.2</ele>
        <time>2015-04-24T08:20:04.000Z</time>
      </trkpt>
      <trkpt lat="48.55412" lon="1.4349">
        <ele>190.2</ele>
        <time>2015-04-24T08:20:07.000Z</time>
      </trkpt>
      <trkpt lat="48.55417" lon="1.43497">
        <ele>190</ele>
        <time>2015-04-24T08:20:13.000Z</time>
      </trkpt>
      <trkpt lat="48.55421" lon="1.43505">
        <ele>190</ele>
        <time>2015-04-24T08:20:19.000Z</time>
      </trkpt>
      <trkpt lat="48.55422" lon="1.43509">
        <ele>190.1</ele>
        <time>2015-04-24T08:20:21.000Z</time>
      </trkpt>
      <trkpt lat="48.55425" lon="1.43518">
        <ele>190.4</ele>
        <time>2015-04-24T08:20:27.000Z</time>
      </trkpt>
      <trkpt lat="48.55428" lon="1.43525">
        <ele>190.5</ele>
        <time>2015-04-24T08:20:33.000Z</time>
      </trkpt>
      <trkpt lat="48.55434" lon="1.43536">
        <ele>190.4</ele>
        <time>2015-04-24T08:20:40.000Z</time>
      </trkpt>
      <trkpt lat="48.55441" lon="1.4355">
        <ele>190.1</ele>
        <time>2015-04-24T08:20:49.000Z</time>
      </trkpt>
      <trkpt lat="48.55448" lon="1.43567">
        <ele>189.9</ele>
        <time>2015-04-24T08:20:59.000Z</time>
      </trkpt>
      <trkpt lat="48.55455" lon="1.43582">
        <ele>189.6</ele>
        <time>2015-04-24T08:21:08.000Z</time>
      </trkpt>
      <trkpt lat="48.5546" lon="1.43596">
        <ele>189.4</ele>
        <time>2015-04-24T08:21:16.000Z</time>
      </trkpt>
      <trkpt lat="48.55465" lon="1.43608">
        <ele>189.3</ele>
        <time>2015-04-24T08:21:23.000Z</time>
      </trkpt>
      <trkpt lat="48.55471" lon="1.43621">
        <ele>189.1</ele>
        <time>2015-04-24T08:21:31.000Z</time>
      </trkpt>
      <trkpt lat="48.55479" lon="1.43632">
        <ele>188.9</ele>
        <time>2015-04-24T08:21:40.000Z</time>
      </trkpt>
      <trkpt lat="48.55487" lon="1.43627">
        <ele>188.8</ele>
        <time>2015-04-24T08:21:47.000Z</time>
      </trkpt>
      <trkpt lat="48.55491" lon="1.43625">
        <ele>188.7</ele>
        <time>2015-04-24T08:21:50.000Z</time>
      </trkpt>
      <trkpt lat="48.55497" lon="1.4362">
        <ele>188.4</ele>
        <time>2015-04-24T08:21:55.000Z</time>
      </trkpt>
      <trkpt lat="48.55505" lon="1.43613">
        <ele>188.1</ele>
        <time>2015-04-24T08:22:01.000Z</time>
      </trkpt>
      <trkpt lat="48.55513" lon="1.43605">
        <ele>188</ele>
        <time>2015-04-24T08:22:08.000Z</time>
      </trkpt>
      <trkpt lat="48.55522" lon="1.43598">
        <ele>188</ele>
        <time>2015-04-24T08:22:15.000Z</time>
      </trkpt>
      <trkpt lat="48.5553" lon="1.43594">
        <ele>188</ele>
        <time>2015-04-24T08:22:21.000Z</time>
      </trkpt>
      <trkpt lat="48.55539" lon="1.43586">
        <ele>188</ele>
        <time>2015-04-24T08:22:28.000Z</time>
      </trkpt>
      <trkpt lat="48.55541" lon="1.43584">
        <ele>188</ele>
        <time>2015-04-24T08:22:30.000Z</time>
      </trkpt>
      <trkpt lat="48.55551" lon="1.43572">
        <ele>188</ele>
        <time>2015-04-24T08:22:39.000Z</time>
      </trkpt>
      <trkpt lat="48.55561" lon="1.43565">
        <ele>188</ele>
        <time>2015-04-24T08:22:46.000Z</time>
      </trkpt>
      <trkpt lat="48.55571" lon="1.43556">
        <ele>188</ele>
        <time>2015-04-24T08:22:55.000Z</time>
      </trkpt>
      <trkpt lat="48.5558" lon="1.43548">
        <ele>188</ele>
        <time>2015-04-24T08:23:02.000Z</time>
      </trkpt>
      <trkpt lat="48.55589" lon="1.4354">
        <ele>188</ele>
        <time>2015-04-24T08:23:09.000Z</time>
      </trkpt>
      <trkpt lat="48.556" lon="1.43531">
        <ele>188</ele>
        <time>2015-04-24T08:23:17.000Z</time>
      </trkpt>
      <trkpt lat="48.55612" lon="1.43523">
        <ele>188.2</ele>
        <time>2015-04-24T08:23:26.000Z</time>
      </trkpt>
      <trkpt lat="48.55619" lon="1.43517">
        <ele>188.6</ele>
        <time>2015-04-24T08:23:32.000Z</time>
      </trkpt>
      <trkpt lat="48.55629" lon="1.43508">
        <ele>188.9</ele>
        <time>2015-04-24T08:23:41.000Z</time>
      </trkpt>
      <trkpt lat="48.55641" lon="1.43499">
        <ele>189.1</ele>
        <time>2015-04-24T08:23:51.000Z</time>
      </trkpt>
      <trkpt lat="48.55652" lon="1.4349">
        <ele>189.7</ele>
        <time>2015-04-24T08:24:00.000Z</time>
      </trkpt>
      <trkpt lat="48.55658" lon="1.43485">
        <ele>189.9</ele>
        <time>2015-04-24T08:24:05.000Z</time>
      </trkpt>
      <trkpt lat="48.55661" lon="1.43481">
        <ele>189.9</ele>
        <time>2015-04-24T08:24:08.000Z</time>
      </trkpt>
      <trkpt lat="48.55672" lon="1.43469">
        <ele>190.2</ele>
        <time>2015-04-24T08:24:18.000Z</time>
      </trkpt>
      <trkpt lat="48.55684" lon="1.4346">
        <ele>190.3</ele>
        <time>2015-04-24T08:24:28.000Z</time>
      </trkpt>
      <trkpt lat="48.55691" lon="1.43455">
        <ele>190.3</ele>
        <time>2015-04-24T08:24:34.000Z</time>
      </trkpt>
      <trkpt lat="48.55698" lon="1.43452">
        <ele>190.4</ele>
        <time>2015-04-24T08:24:39.000Z</time>
      </trkpt>
      <trkpt lat="48.5571" lon="1.4345">
        <ele>190.7</ele>
        <time>2015-04-24T08:24:48.000Z</time>
      </trkpt>
      <trkpt lat="48.55714" lon="1.43449">
        <ele>190.7</ele>
        <time>2015-04-24T08:24:50.000Z</time>
      </trkpt>
      <trkpt lat="48.55722" lon="1.4345">
        <ele>191</ele>
        <time>2015-04-24T08:24:56.000Z</time>
      </trkpt>
      <trkpt lat="48.55735" lon="1.43455">
        <ele>191.3</ele>
        <time>2015-04-24T08:25:06.000Z</time>
      </trkpt>
      <trkpt lat="48.55739" lon="1.43458">
        <ele>191.3</ele>
        <time>2015-04-24T08:25:12.000Z</time>
      </trkpt>
      <trkpt lat="48.55746" lon="1.43464">
        <ele>191.3</ele>
        <time>2015-04-24T08:25:18.000Z</time>
      </trkpt>
      <trkpt lat="48.55758" lon="1.43476">
        <ele>191.3</ele>
        <time>2015-04-24T08:25:28.000Z</time>
      </trkpt>
      <trkpt lat="48.55767" lon="1.43491">
        <ele>191.6</ele>
        <time>2015-04-24T08:25:38.000Z</time>
      </trkpt>
      <trkpt lat="48.55774" lon="1.43505">
        <ele>191.7</ele>
        <time>2015-04-24T08:25:46.000Z</time>
      </trkpt>
      <trkpt lat="48.55779" lon="1.4352">
        <ele>191.3</ele>
        <time>2015-04-24T08:25:55.000Z</time>
      </trkpt>
      <trkpt lat="48.55786" lon="1.43534">
        <ele>191.3</ele>
        <time>2015-04-24T08:26:03.000Z</time>
      </trkpt>
      <trkpt lat="48.55793" lon="1.43552">
        <ele>191.5</ele>
        <time>2015-04-24T08:26:13.000Z</time>
      </trkpt>
      <trkpt lat="48.55801" lon="1.43569">
        <ele>191.4</ele>
        <time>2015-04-24T08:26:23.000Z</time>
      </trkpt>
      <trkpt lat="48.55806" lon="1.43581">
        <ele>191.1</ele>
        <time>2015-04-24T08:26:30.000Z</time>
      </trkpt>
      <trkpt lat="48.55814" lon="1.43597">
        <ele>191</ele>
        <time>2015-04-24T08:26:39.000Z</time>
      </trkpt>
      <trkpt lat="48.55822" lon="1.43611">
        <ele>191</ele>
        <time>2015-04-24T08:26:48.000Z</time>
      </trkpt>
      <trkpt lat="48.55832" lon="1.43628">
        <ele>191</ele>
        <time>2015-04-24T08:27:00.000Z</time>
      </trkpt>
      <trkpt lat="48.55842" lon="1.43643">
        <ele>191</ele>
        <time>2015-04-24T08:27:10.000Z</time>
      </trkpt>
      <trkpt lat="48.55853" lon="1.4366">
        <ele>190.5</ele>
        <time>2015-04-24T08:27:21.000Z</time>
      </trkpt>
      <trkpt lat="48.55855" lon="1.43663">
        <ele>190.3</ele>
        <time>2015-04-24T08:27:23.000Z</time>
      </trkpt>
      <trkpt lat="48.55864" lon="1.43675">
        <ele>190</ele>
        <time>2015-04-24T08:27:32.000Z</time>
      </trkpt>
      <trkpt lat="48.55876" lon="1.43691">
        <ele>190</ele>
        <time>2015-04-24T08:27:43.000Z</time>
      </trkpt>
      <trkpt lat="48.55888" lon="1.43705">
        <ele>190</ele>
        <time>2015-04-24T08:27:54.000Z</time>
      </trkpt>
      <trkpt lat="48.5589" lon="1.43707">
        <ele>190</ele>
        <time>2015-04-24T08:27:56.000Z</time>
      </trkpt>
      <trkpt lat="48.55901" lon="1.43719">
        <ele>189.6</ele>
        <time>2015-04-24T08:28:05.000Z</time>
      </trkpt>
      <trkpt lat="48.55912" lon="1.43731">
        <ele>189.2</ele>
        <time>2015-04-24T08:28:14.000Z</time>
      </trkpt>
      <trkpt lat="48.55922" lon="1.43741">
        <ele>188.9</ele>
        <time>2015-04-24T08:28:23.000Z</time>
      </trkpt>
      <trkpt lat="48.55927" lon="1.43745">
        <ele>188.7</ele>
        <time>2015-04-24T08:28:27.000Z</time>
      </trkpt>
      <trkpt lat="48.55935" lon="1.43752">
        <ele>188.3</ele>
        <time>2015-04-24T08:28:34.000Z</time>
      </trkpt>
      <trkpt lat="48.55947" lon="1.43763">
        <ele>188</ele>
        <time>2015-04-24T08:28:44.000Z</time>
      </trkpt>
      <trkpt lat="48.55956" lon="1.43771">
        <ele>187.7</ele>
        <time>2015-04-24T08:28:52.000Z</time>
      </trkpt>
      <trkpt lat="48.55957" lon="1.43771">
        <ele>187.7</ele>
        <time>2015-04-24T08:28:53.000Z</time>
      </trkpt>
      <trkpt lat="48.55961" lon="1.43775">
        <ele>187.4</ele>
        <time>2015-04-24T08:28:57.000Z</time>
      </trkpt>
      <trkpt lat="48.55972" lon="1.43784">
        <ele>187.3</ele>
        <time>2015-04-24T08:29:06.000Z</time>
      </trkpt>
      <trkpt lat="48.55983" lon="1.43792">
        <ele>187.3</ele>
        <time>2015-04-24T08:29:15.000Z</time>
      </trkpt>
      <trkpt lat="48.55992" lon="1.43801">
        <ele>187.2</ele>
        <time>2015-04-24T08:29:23.000Z</time>
      </trkpt>
      <trkpt lat="48.56001" lon="1.43808">
        <ele>187</ele>
        <time>2015-04-24T08:29:30.000Z</time>
      </trkpt>
      <trkpt lat="48.56015" lon="1.43822">
        <ele>186.7</ele>
        <time>2015-04-24T08:29:42.000Z</time>
      </trkpt>
      <trkpt lat="48.56021" lon="1.43828">
        <ele>186.4</ele>
        <time>2015-04-24T08:29:47.000Z</time>
      </trkpt>
      <trkpt lat="48.56028" lon="1.43835">
        <ele>186.1</ele>
        <time>2015-04-24T08:29:53.000Z</time>
      </trkpt>
      <trkpt lat="48.56037" lon="1.43845">
        <ele>186.3</ele>
        <time>2015-04-24T08:30:01.000Z</time>
      </trkpt>
      <trkpt lat="48.56041" lon="1.43849">
        <ele>186.3</ele>
        <time>2015-04-24T08:30:04.000Z</time>
      </trkpt>
      <trkpt lat="48.5605" lon="1.43858">
        <ele>186.2</ele>
        <time>2015-04-24T08:30:12.000Z</time>
      </trkpt>
      <trkpt lat="48.56058" lon="1.43866">
        <ele>186</ele>
        <time>2015-04-24T08:30:19.000Z</time>
      </trkpt>
      <trkpt lat="48.56069" lon="1.43877">
        <ele>185.7</ele>
        <time>2015-04-24T08:30:29.000Z</time>
      </trkpt>
      <trkpt lat="48.56079" lon="1.4389">
        <ele>185.1</ele>
        <time>2015-04-24T08:30:38.000Z</time>
      </trkpt>
      <trkpt lat="48.56088" lon="1.43899">
        <ele>185.1</ele>
        <time>2015-04-24T08:30:46.000Z</time>
      </trkpt>
      <trkpt lat="48.56093" lon="1.43904">
        <ele>185.2</ele>
        <time>2015-04-24T08:30:50.000Z</time>
      </trkpt>
      <trkpt lat="48.56099" lon="1.43912">
        <ele>185.1</ele>
        <time>2015-04-24T08:30:56.000Z</time>
      </trkpt>
      <trkpt lat="48.56108" lon="1.43923">
        <ele>185</ele>
        <time>2015-04-24T08:31:04.000Z</time>
      </trkpt>
      <trkpt lat="48.56116" lon="1.43935">
        <ele>185.1</ele>
        <time>2015-04-24T08:31:12.000Z</time>
      </trkpt>
      <trkpt lat="48.56123" lon="1.43943">
        <ele>185</ele>
        <time>2015-04-24T08:31:18.000Z</time>
      </trkpt>
      <trkpt lat="48.56126" lon="1.43947">
        <ele>184.9</ele>
        <time>2015-04-24T08:31:21.000Z</time>
      </trkpt>
      <trkpt lat="48.56134" lon="1.43959">
        <ele>184.6</ele>
        <time>2015-04-24T08:31:29.000Z</time>
      </trkpt>
      <trkpt lat="48.56141" lon="1.4397">
        <ele>184.1</ele>
        <time>2015-04-24T08:31:36.000Z</time>
      </trkpt>
      <trkpt lat="48.56144" lon="1.43975">
        <ele>184.1</ele>
        <time>2015-04-24T08:31:39.000Z</time>
      </trkpt>
      <trkpt lat="48.56156" lon="1.43995">
        <ele>182.6</ele>
        <time>2015-04-24T08:31:51.000Z</time>
      </trkpt>
      <trkpt lat="48.56157" lon="1.43998">
        <ele>182.2</ele>
        <time>2015-04-24T08:31:53.000Z</time>
      </trkpt>
      <trkpt lat="48.56163" lon="1.4401">
        <ele>181</ele>
        <time>2015-04-24T08:32:00.000Z</time>
      </trkpt>
      <trkpt lat="48.56169" lon="1.44021">
        <ele>180.4</ele>
        <time>2015-04-24T08:32:06.000Z</time>
      </trkpt>
      <trkpt lat="48.56174" lon="1.44031">
        <ele>180.2</ele>
        <time>2015-04-24T08:32:12.000Z</time>
      </trkpt>
      <trkpt lat="48.56181" lon="1.44046">
        <ele>179.8</ele>
        <time>2015-04-24T08:32:20.000Z</time>
      </trkpt>
      <trkpt lat="48.56183" lon="1.44049">
        <ele>179.7</ele>
        <time>2015-04-24T08:32:22.000Z</time>
      </trkpt>
      <trkpt lat="48.56189" lon="1.44064">
        <ele>179.5</ele>
        <time>2015-04-24T08:32:30.000Z</time>
      </trkpt>
      <trkpt lat="48.56197" lon="1.4408">
        <ele>180.1</ele>
        <time>2015-04-24T08:32:39.000Z</time>
      </trkpt>
      <trkpt lat="48.56204" lon="1.44096">
        <ele>182</ele>
        <time>2015-04-24T08:32:48.000Z</time>
      </trkpt>
      <trkpt lat="48.56205" lon="1.44098">
        <ele>182.1</ele>
        <time>2015-04-24T08:32:49.000Z</time>
      </trkpt>
      <trkpt lat="48.56208" lon="1.44105">
        <ele>182.6</ele>
        <time>2015-04-24T08:32:53.000Z</time>
      </trkpt>
      <trkpt lat="48.56209" lon="1.44106">
        <ele>182.7</ele>
        <time>2015-04-24T08:32:54.000Z</time>
      </trkpt>
      <trkpt lat="48.56219" lon="1.44105">
        <ele>182.9</ele>
        <time>2015-04-24T08:32:58.000Z</time>
      </trkpt>
      <trkpt lat="48.56219" lon="1.44108">
        <ele>183</ele>
        <time>2015-04-24T08:33:00.000Z</time>
      </trkpt>
      <trkpt lat="48.56219" lon="1.44109">
        <ele>183</ele>
        <time>2015-04-24T08:33:01.000Z</time>
      </trkpt>
      <trkpt lat="48.56223" lon="1.44119">
        <ele>182.1</ele>
        <time>2015-04-24T08:33:06.000Z</time>
      </trkpt>
      <trkpt lat="48.56224" lon="1.44123">
        <ele>181.8</ele>
        <time>2015-04-24T08:33:07.000Z</time>
      </trkpt>
      <trkpt lat="48.56225" lon="1.44133">
        <ele>180.8</ele>
        <time>2015-04-24T08:33:11.000Z</time>
      </trkpt>
      <trkpt lat="48.56229" lon="1.44159">
        <ele>179.4</ele>
        <time>2015-04-24T08:33:21.000Z</time>
      </trkpt>
      <trkpt lat="48.56235" lon="1.44174">
        <ele>179</ele>
        <time>2015-04-24T08:33:29.000Z</time>
      </trkpt>
      <trkpt lat="48.5624" lon="1.44187">
        <ele>179</ele>
        <time>2015-04-24T08:33:36.000Z</time>
      </trkpt>
      <trkpt lat="48.56246" lon="1.44198">
        <ele>179.2</ele>
        <time>2015-04-24T08:33:43.000Z</time>
      </trkpt>
      <trkpt lat="48.56251" lon="1.44209">
        <ele>179.6</ele>
        <time>2015-04-24T08:33:50.000Z</time>
      </trkpt>
      <trkpt lat="48.56251" lon="1.44211">
        <ele>179.7</ele>
        <time>2015-04-24T08:33:55.000Z</time>
      </trkpt>
      <trkpt lat="48.56252" lon="1.44213">
        <ele>179.8</ele>
        <time>2015-04-24T08:33:56.000Z</time>
      </trkpt>
      <trkpt lat="48.56256" lon="1.44221">
        <ele>180.4</ele>
        <time>2015-04-24T08:34:01.000Z</time>
      </trkpt>
      <trkpt lat="48.56264" lon="1.44238">
        <ele>180.7</ele>
        <time>2015-04-24T08:34:11.000Z</time>
      </trkpt>
      <trkpt lat="48.56271" lon="1.44254">
        <ele>180</ele>
        <time>2015-04-24T08:34:21.000Z</time>
      </trkpt>
      <trkpt lat="48.56271" lon="1.44256">
        <ele>179.9</ele>
        <time>2015-04-24T08:34:22.000Z</time>
      </trkpt>
      <trkpt lat="48.56278" lon="1.44271">
        <ele>178.5</ele>
        <time>2015-04-24T08:34:31.000Z</time>
      </trkpt>
      <trkpt lat="48.56281" lon="1.44281">
        <ele>178.5</ele>
        <time>2015-04-24T08:34:37.000Z</time>
      </trkpt>
      <trkpt lat="48.56288" lon="1.44297">
        <ele>179.3</ele>
        <time>2015-04-24T08:34:46.000Z</time>
      </trkpt>
      <trkpt lat="48.56294" lon="1.44313">
        <ele>179.4</ele>
        <time>2015-04-24T08:34:55.000Z</time>
      </trkpt>
      <trkpt lat="48.56302" lon="1.44331">
        <ele>178.4</ele>
        <time>2015-04-24T08:35:05.000Z</time>
      </trkpt>
      <trkpt lat="48.56309" lon="1.44349">
        <ele>178.7</ele>
        <time>2015-04-24T08:35:15.000Z</time>
      </trkpt>
      <trkpt lat="48.56318" lon="1.44369">
        <ele>179</ele>
        <time>2015-04-24T08:35:26.000Z</time>
      </trkpt>
      <trkpt lat="48.56323" lon="1.4438">
        <ele>178.8</ele>
        <time>2015-04-24T08:35:32.000Z</time>
      </trkpt>
      <trkpt lat="48.56331" lon="1.44398">
        <ele>178.2</ele>
        <time>2015-04-24T08:35:42.000Z</time>
      </trkpt>
      <trkpt lat="48.56337" lon="1.44413">
        <ele>178.1</ele>
        <time>2015-04-24T08:35:50.000Z</time>
      </trkpt>
      <trkpt lat="48.56344" lon="1.44432">
        <ele>178.5</ele>
        <time>2015-04-24T08:36:00.000Z</time>
      </trkpt>
      <trkpt lat="48.56352" lon="1.44451">
        <ele>178.3</ele>
        <time>2015-04-24T08:36:10.000Z</time>
      </trkpt>
      <trkpt lat="48.56359" lon="1.44472">
        <ele>178.1</ele>
        <time>2015-04-24T08:36:21.000Z</time>
      </trkpt>
      <trkpt lat="48.56365" lon="1.44491">
        <ele>178</ele>
        <time>2015-04-24T08:36:31.000Z</time>
      </trkpt>
      <trkpt lat="48.56371" lon="1.44508">
        <ele>178.2</ele>
        <time>2015-04-24T08:36:41.000Z</time>
      </trkpt>
      <trkpt lat="48.56375" lon="1.44518">
        <ele>178.3</ele>
        <time>2015-04-24T08:36:47.000Z</time>
      </trkpt>
      <trkpt lat="48.56376" lon="1.44522">
        <ele>178.4</ele>
        <time>2015-04-24T08:36:49.000Z</time>
      </trkpt>
      <trkpt lat="48.56383" lon="1.44541">
        <ele>178.2</ele>
        <time>2015-04-24T08:36:59.000Z</time>
      </trkpt>
      <trkpt lat="48.5639" lon="1.44561">
        <ele>177.9</ele>
        <time>2015-04-24T08:37:10.000Z</time>
      </trkpt>
      <trkpt lat="48.56397" lon="1.4458">
        <ele>177.7</ele>
        <time>2015-04-24T08:37:20.000Z</time>
      </trkpt>
      <trkpt lat="48.56403" lon="1.44596">
        <ele>177.5</ele>
        <time>2015-04-24T08:37:29.000Z</time>
      </trkpt>
      <trkpt lat="48.56413" lon="1.44622">
        <ele>177.5</ele>
        <time>2015-04-24T08:37:42.000Z</time>
      </trkpt>
      <trkpt lat="48.56417" lon="1.44632">
        <ele>177.7</ele>
        <time>2015-04-24T08:37:49.000Z</time>
      </trkpt>
      <trkpt lat="48.56417" lon="1.44634">
        <ele>177.8</ele>
        <time>2015-04-24T08:37:50.000Z</time>
      </trkpt>
      <trkpt lat="48.5642" lon="1.44638">
        <ele>177.8</ele>
        <time>2015-04-24T08:37:53.000Z</time>
      </trkpt>
      <trkpt lat="48.56421" lon="1.4464">
        <ele>177.7</ele>
        <time>2015-04-24T08:37:54.000Z</time>
      </trkpt>
      <trkpt lat="48.5643" lon="1.44655">
        <ele>177.1</ele>
        <time>2015-04-24T08:38:03.000Z</time>
      </trkpt>
      <trkpt lat="48.56439" lon="1.4467">
        <ele>176.5</ele>
        <time>2015-04-24T08:38:13.000Z</time>
      </trkpt>
      <trkpt lat="48.5645" lon="1.44685">
        <ele>176.5</ele>
        <time>2015-04-24T08:38:24.000Z</time>
      </trkpt>
      <trkpt lat="48.5646" lon="1.44698">
        <ele>176.5</ele>
        <time>2015-04-24T08:38:33.000Z</time>
      </trkpt>
      <trkpt lat="48.56465" lon="1.44705">
        <ele>176.3</ele>
        <time>2015-04-24T08:38:38.000Z</time>
      </trkpt>
      <trkpt lat="48.56473" lon="1.44715">
        <ele>176</ele>
        <time>2015-04-24T08:38:46.000Z</time>
      </trkpt>
      <trkpt lat="48.56485" lon="1.44729">
        <ele>175.9</ele>
        <time>2015-04-24T08:38:57.000Z</time>
      </trkpt>
      <trkpt lat="48.56491" lon="1.44736">
        <ele>175.7</ele>
        <time>2015-04-24T08:39:03.000Z</time>
      </trkpt>
      <trkpt lat="48.56495" lon="1.44741">
        <ele>175.4</ele>
        <time>2015-04-24T08:39:07.000Z</time>
      </trkpt>
      <trkpt lat="48.56507" lon="1.44756">
        <ele>175.1</ele>
        <time>2015-04-24T08:39:18.000Z</time>
      </trkpt>
      <trkpt lat="48.56517" lon="1.44767">
        <ele>175.2</ele>
        <time>2015-04-24T08:39:27.000Z</time>
      </trkpt>
      <trkpt lat="48.56526" lon="1.44777">
        <ele>175</ele>
        <time>2015-04-24T08:39:35.000Z</time>
      </trkpt>
      <trkpt lat="48.56536" lon="1.44787">
        <ele>174.7</ele>
        <time>2015-04-24T08:39:44.000Z</time>
      </trkpt>
      <trkpt lat="48.56538" lon="1.44789">
        <ele>174.6</ele>
        <time>2015-04-24T08:39:45.000Z</time>
      </trkpt>
      <trkpt lat="48.56547" lon="1.44798">
        <ele>174.3</ele>
        <time>2015-04-24T08:39:53.000Z</time>
      </trkpt>
      <trkpt lat="48.56559" lon="1.44811">
        <ele>173.9</ele>
        <time>2015-04-24T08:40:04.000Z</time>
      </trkpt>
      <trkpt lat="48.56568" lon="1.44822">
        <ele>173.5</ele>
        <time>2015-04-24T08:40:12.000Z</time>
      </trkpt>
      <trkpt lat="48.5657" lon="1.44824">
        <ele>173.5</ele>
        <time>2015-04-24T08:40:14.000Z</time>
      </trkpt>
      <trkpt lat="48.5658" lon="1.44836">
        <ele>173.1</ele>
        <time>2015-04-24T08:40:23.000Z</time>
      </trkpt>
      <trkpt lat="48.56586" lon="1.44843">
        <ele>172.9</ele>
        <time>2015-04-24T08:40:28.000Z</time>
      </trkpt>
      <trkpt lat="48.56588" lon="1.44848">
        <ele>172.8</ele>
        <time>2015-04-24T08:40:32.000Z</time>
      </trkpt>
      <trkpt lat="48.56589" lon="1.44849">
        <ele>172.8</ele>
        <time>2015-04-24T08:40:33.000Z</time>
      </trkpt>
      <trkpt lat="48.56595" lon="1.44857">
        <ele>172.6</ele>
        <time>2015-04-24T08:40:38.000Z</time>
      </trkpt>
      <trkpt lat="48.56603" lon="1.44868">
        <ele>172.3</ele>
        <time>2015-04-24T08:40:46.000Z</time>
      </trkpt>
      <trkpt lat="48.56614" lon="1.44881">
        <ele>172</ele>
        <time>2015-04-24T08:40:56.000Z</time>
      </trkpt>
      <trkpt lat="48.56622" lon="1.44892">
        <ele>172</ele>
        <time>2015-04-24T08:41:04.000Z</time>
      </trkpt>
      <trkpt lat="48.56635" lon="1.44909">
        <ele>171.4</ele>
        <time>2015-04-24T08:41:16.000Z</time>
      </trkpt>
      <trkpt lat="48.56646" lon="1.44923">
        <ele>171</ele>
        <time>2015-04-24T08:41:26.000Z</time>
      </trkpt>
      <trkpt lat="48.56657" lon="1.44937">
        <ele>171</ele>
        <time>2015-04-24T08:41:36.000Z</time>
      </trkpt>
      <trkpt lat="48.56658" lon="1.44942">
        <ele>171</ele>
        <time>2015-04-24T08:41:40.000Z</time>
      </trkpt>
      <trkpt lat="48.56659" lon="1.44943">
        <ele>171</ele>
        <time>2015-04-24T08:41:41.000Z</time>
      </trkpt>
      <trkpt lat="48.56662" lon="1.44947">
        <ele>171</ele>
        <time>2015-04-24T08:41:44.000Z</time>
      </trkpt>
      <trkpt lat="48.56665" lon="1.44951">
        <ele>171</ele>
        <time>2015-04-24T08:41:47.000Z</time>
      </trkpt>
      <trkpt lat="48.56674" lon="1.44962">
        <ele>171</ele>
        <time>2015-04-24T08:41:55.000Z</time>
      </trkpt>
      <trkpt lat="48.56677" lon="1.44965">
        <ele>171</ele>
        <time>2015-04-24T08:41:57.000Z</time>
      </trkpt>
      <trkpt lat="48.56684" lon="1.44975">
        <ele>170.9</ele>
        <time>2015-04-24T08:42:04.000Z</time>
      </trkpt>
      <trkpt lat="48.56692" lon="1.44987">
        <ele>170.5</ele>
        <time>2015-04-24T08:42:12.000Z</time>
      </trkpt>
      <trkpt lat="48.567" lon="1.44998">
        <ele>170.2</ele>
        <time>2015-04-24T08:42:20.000Z</time>
      </trkpt>
      <trkpt lat="48.56706" lon="1.45008">
        <ele>170.3</ele>
        <time>2015-04-24T08:42:27.000Z</time>
      </trkpt>
      <trkpt lat="48.56708" lon="1.4501">
        <ele>170.3</ele>
        <time>2015-04-24T08:42:32.000Z</time>
      </trkpt>
      <trkpt lat="48.56711" lon="1.45014">
        <ele>170.3</ele>
        <time>2015-04-24T08:42:41.000Z</time>
      </trkpt>
      <trkpt lat="48.56717" lon="1.45021">
        <ele>170.2</ele>
        <time>2015-04-24T08:42:46.000Z</time>
      </trkpt>
      <trkpt lat="48.56726" lon="1.45033">
        <ele>170.1</ele>
        <time>2015-04-24T08:42:55.000Z</time>
      </trkpt>
      <trkpt lat="48.56735" lon="1.45043">
        <ele>170.5</ele>
        <time>2015-04-24T08:43:03.000Z</time>
      </trkpt>
      <trkpt lat="48.56744" lon="1.45052">
        <ele>170.8</ele>
        <time>2015-04-24T08:43:11.000Z</time>
      </trkpt>
      <trkpt lat="48.56754" lon="1.45061">
        <ele>171.1</ele>
        <time>2015-04-24T08:43:19.000Z</time>
      </trkpt>
      <trkpt lat="48.56765" lon="1.45071">
        <ele>171.5</ele>
        <time>2015-04-24T08:43:28.000Z</time>
      </trkpt>
      <trkpt lat="48.56769" lon="1.45074">
        <ele>171.7</ele>
        <time>2015-04-24T08:43:31.000Z</time>
      </trkpt>
      <trkpt lat="48.56778" lon="1.4508">
        <ele>172</ele>
        <time>2015-04-24T08:43:39.000Z</time>
      </trkpt>
      <trkpt lat="48.56793" lon="1.4509">
        <ele>172.4</ele>
        <time>2015-04-24T08:43:51.000Z</time>
      </trkpt>
      <trkpt lat="48.56805" lon="1.45099">
        <ele>172.4</ele>
        <time>2015-04-24T08:44:01.000Z</time>
      </trkpt>
      <trkpt lat="48.56814" lon="1.45104">
        <ele>172.2</ele>
        <time>2015-04-24T08:44:08.000Z</time>
      </trkpt>
      <trkpt lat="48.56826" lon="1.4511">
        <ele>172</ele>
        <time>2015-04-24T08:44:16.000Z</time>
      </trkpt>
      <trkpt lat="48.56839" lon="1.45117">
        <ele>172.2</ele>
        <time>2015-04-24T08:44:26.000Z</time>
      </trkpt>
      <trkpt lat="48.56848" lon="1.45122">
        <ele>172.3</ele>
        <time>2015-04-24T08:44:34.000Z</time>
      </trkpt>
      <trkpt lat="48.56857" lon="1.45126">
        <ele>172.4</ele>
        <time>2015-04-24T08:44:42.000Z</time>
      </trkpt>
      <trkpt lat="48.56869" lon="1.45131">
        <ele>172.3</ele>
        <time>2015-04-24T08:44:52.000Z</time>
      </trkpt>
      <trkpt lat="48.56881" lon="1.45136">
        <ele>172.1</ele>
        <time>2015-04-24T08:45:01.000Z</time>
      </trkpt>
      <trkpt lat="48.56888" lon="1.4514">
        <ele>172</ele>
        <time>2015-04-24T08:45:07.000Z</time>
      </trkpt>
      <trkpt lat="48.56899" lon="1.45144">
        <ele>172</ele>
        <time>2015-04-24T08:45:15.000Z</time>
      </trkpt>
      <trkpt lat="48.56913" lon="1.4515">
        <ele>172</ele>
        <time>2015-04-24T08:45:25.000Z</time>
      </trkpt>
      <trkpt lat="48.56924" lon="1.45154">
        <ele>172.1</ele>
        <time>2015-04-24T08:45:33.000Z</time>
      </trkpt>
      <trkpt lat="48.56926" lon="1.45156">
        <ele>172.1</ele>
        <time>2015-04-24T08:45:35.000Z</time>
      </trkpt>
      <trkpt lat="48.56929" lon="1.45157">
        <ele>172.2</ele>
        <time>2015-04-24T08:45:37.000Z</time>
      </trkpt>
      <trkpt lat="48.56941" lon="1.45163">
        <ele>172.1</ele>
        <time>2015-04-24T08:45:46.000Z</time>
      </trkpt>
      <trkpt lat="48.56956" lon="1.4517">
        <ele>171.9</ele>
        <time>2015-04-24T08:45:57.000Z</time>
      </trkpt>
      <trkpt lat="48.56967" lon="1.45176">
        <ele>171.7</ele>
        <time>2015-04-24T08:46:06.000Z</time>
      </trkpt>
      <trkpt lat="48.56976" lon="1.45181">
        <ele>171.5</ele>
        <time>2015-04-24T08:46:13.000Z</time>
      </trkpt>
      <trkpt lat="48.56985" lon="1.45186">
        <ele>171.3</ele>
        <time>2015-04-24T08:46:20.000Z</time>
      </trkpt>
      <trkpt lat="48.56986" lon="1.45186">
        <ele>171.3</ele>
        <time>2015-04-24T08:46:21.000Z</time>
      </trkpt>
      <trkpt lat="48.56997" lon="1.45193">
        <ele>171</ele>
        <time>2015-04-24T08:46:30.000Z</time>
      </trkpt>
      <trkpt lat="48.57007" lon="1.45199">
        <ele>171</ele>
        <time>2015-04-24T08:46:38.000Z</time>
      </trkpt>
      <trkpt lat="48.57016" lon="1.45207">
        <ele>171</ele>
        <time>2015-04-24T08:46:45.000Z</time>
      </trkpt>
      <trkpt lat="48.57022" lon="1.45213">
        <ele>171</ele>
        <time>2015-04-24T08:46:51.000Z</time>
      </trkpt>
      <trkpt lat="48.5703" lon="1.45219">
        <ele>171</ele>
        <time>2015-04-24T08:46:58.000Z</time>
      </trkpt>
      <trkpt lat="48.57031" lon="1.4522">
        <ele>171</ele>
        <time>2015-04-24T08:46:59.000Z</time>
      </trkpt>
      <trkpt lat="48.57042" lon="1.45233">
        <ele>170.8</ele>
        <time>2015-04-24T08:47:09.000Z</time>
      </trkpt>
      <trkpt lat="48.5705" lon="1.45242">
        <ele>170.4</ele>
        <time>2015-04-24T08:47:18.000Z</time>
      </trkpt>
      <trkpt lat="48.5705" lon="1.45243">
        <ele>170.4</ele>
        <time>2015-04-24T08:47:29.000Z</time>
      </trkpt>
      <trkpt lat="48.57054" lon="1.45249">
        <ele>170.1</ele>
        <time>2015-04-24T08:47:35.000Z</time>
      </trkpt>
      <trkpt lat="48.57056" lon="1.45252">
        <ele>170</ele>
        <time>2015-04-24T08:47:37.000Z</time>
      </trkpt>
      <trkpt lat="48.57062" lon="1.45261">
        <ele>170</ele>
        <time>2015-04-24T08:47:44.000Z</time>
      </trkpt>
      <trkpt lat="48.57067" lon="1.45267">
        <ele>170</ele>
        <time>2015-04-24T08:47:51.000Z</time>
      </trkpt>
      <trkpt lat="48.57067" lon="1.45267">
        <ele>170</ele>
        <time>2015-04-24T08:48:03.000Z</time>
      </trkpt>
      <trkpt lat="48.57066" lon="1.45267">
        <ele>170</ele>
        <time>2015-04-24T08:48:18.000Z</time>
      </trkpt>
      <trkpt lat="48.5707" lon="1.45272">
        <ele>170</ele>
        <time>2015-04-24T08:48:24.000Z</time>
      </trkpt>
      <trkpt lat="48.57071" lon="1.45275">
        <ele>170</ele>
        <time>2015-04-24T08:48:26.000Z</time>
      </trkpt>
      <trkpt lat="48.57076" lon="1.45281">
        <ele>169.9</ele>
        <time>2015-04-24T08:48:32.000Z</time>
      </trkpt>
      <trkpt lat="48.57077" lon="1.45282">
        <ele>169.9</ele>
        <time>2015-04-24T08:48:33.000Z</time>
      </trkpt>
      <trkpt lat="48.57081" lon="1.45287">
        <ele>169.7</ele>
        <time>2015-04-24T08:48:38.000Z</time>
      </trkpt>
      <trkpt lat="48.57085" lon="1.45297">
        <ele>169.3</ele>
        <time>2015-04-24T08:48:44.000Z</time>
      </trkpt>
      <trkpt lat="48.57088" lon="1.45301">
        <ele>169.1</ele>
        <time>2015-04-24T08:48:46.000Z</time>
      </trkpt>
      <trkpt lat="48.57092" lon="1.45309">
        <ele>169</ele>
        <time>2015-04-24T08:48:51.000Z</time>
      </trkpt>
      <trkpt lat="48.571" lon="1.4532">
        <ele>169</ele>
        <time>2015-04-24T08:48:58.000Z</time>
      </trkpt>
      <trkpt lat="48.57106" lon="1.45327">
        <ele>169</ele>
        <time>2015-04-24T08:49:03.000Z</time>
      </trkpt>
      <trkpt lat="48.57109" lon="1.45332">
        <ele>169</ele>
        <time>2015-04-24T08:49:06.000Z</time>
      </trkpt>
      <trkpt lat="48.57114" lon="1.45337">
        <ele>168.9</ele>
        <time>2015-04-24T08:49:10.000Z</time>
      </trkpt>
      <trkpt lat="48.57115" lon="1.45339">
        <ele>168.8</ele>
        <time>2015-04-24T08:49:11.000Z</time>
      </trkpt>
      <trkpt lat="48.57121" lon="1.45346">
        <ele>168.6</ele>
        <time>2015-04-24T08:49:16.000Z</time>
      </trkpt>
      <trkpt lat="48.57127" lon="1.45352">
        <ele>168.4</ele>
        <time>2015-04-24T08:49:21.000Z</time>
      </trkpt>
      <trkpt lat="48.57131" lon="1.45359">
        <ele>168.3</ele>
        <time>2015-04-24T08:49:25.000Z</time>
      </trkpt>
      <trkpt lat="48.57134" lon="1.45361">
        <ele>168.2</ele>
        <time>2015-04-24T08:49:27.000Z</time>
      </trkpt>
      <trkpt lat="48.57137" lon="1.45364">
        <ele>168.1</ele>
        <time>2015-04-24T08:49:29.000Z</time>
      </trkpt>
      <trkpt lat="48.57141" lon="1.45368">
        <ele>168</ele>
        <time>2015-04-24T08:49:32.000Z</time>
      </trkpt>
      <trkpt lat="48.57147" lon="1.45375">
        <ele>168</ele>
        <time>2015-04-24T08:49:37.000Z</time>
      </trkpt>
      <trkpt lat="48.57151" lon="1.45381">
        <ele>168</ele>
        <time>2015-04-24T08:49:41.000Z</time>
      </trkpt>
      <trkpt lat="48.57155" lon="1.45385">
        <ele>168</ele>
        <time>2015-04-24T08:49:44.000Z</time>
      </trkpt>
      <trkpt lat="48.57162" lon="1.45397">
        <ele>167.8</ele>
        <time>2015-04-24T08:49:51.000Z</time>
      </trkpt>
      <trkpt lat="48.57166" lon="1.45406">
        <ele>167.4</ele>
        <time>2015-04-24T08:49:57.000Z</time>
      </trkpt>
      <trkpt lat="48.5717" lon="1.45413">
        <ele>167.1</ele>
        <time>2015-04-24T08:50:02.000Z</time>
      </trkpt>
      <trkpt lat="48.57171" lon="1.45415">
        <ele>167.1</ele>
        <time>2015-04-24T08:50:03.000Z</time>
      </trkpt>
      <trkpt lat="48.57172" lon="1.45416">
        <ele>167</ele>
        <time>2015-04-24T08:50:04.000Z</time>
      </trkpt>
      <trkpt lat="48.57173" lon="1.45422">
        <ele>167</ele>
        <time>2015-04-24T08:50:09.000Z</time>
      </trkpt>
      <trkpt lat="48.57176" lon="1.45429">
        <ele>166.9</ele>
        <time>2015-04-24T08:50:15.000Z</time>
      </trkpt>
      <trkpt lat="48.57181" lon="1.45444">
        <ele>166.5</ele>
        <time>2015-04-24T08:50:23.000Z</time>
      </trkpt>
      <trkpt lat="48.57189" lon="1.45461">
        <ele>166.2</ele>
        <time>2015-04-24T08:50:32.000Z</time>
      </trkpt>
      <trkpt lat="48.57193" lon="1.45473">
        <ele>166</ele>
        <time>2015-04-24T08:50:38.000Z</time>
      </trkpt>
      <trkpt lat="48.57195" lon="1.45476">
        <ele>166</ele>
        <time>2015-04-24T08:50:40.000Z</time>
      </trkpt>
      <trkpt lat="48.57196" lon="1.45479">
        <ele>166</ele>
        <time>2015-04-24T08:50:42.000Z</time>
      </trkpt>
      <trkpt lat="48.57197" lon="1.45484">
        <ele>166</ele>
        <time>2015-04-24T08:50:45.000Z</time>
      </trkpt>
      <trkpt lat="48.57197" lon="1.45488">
        <ele>166</ele>
        <time>2015-04-24T08:50:48.000Z</time>
      </trkpt>
      <trkpt lat="48.57197" lon="1.45489">
        <ele>166</ele>
        <time>2015-04-24T08:50:54.000Z</time>
      </trkpt>
      <trkpt lat="48.57196" lon="1.45488">
        <ele>166</ele>
        <time>2015-04-24T08:50:59.000Z</time>
      </trkpt>
      <trkpt lat="48.57197" lon="1.45488">
        <ele>166</ele>
        <time>2015-04-24T08:51:01.000Z</time>
      </trkpt>
      <trkpt lat="48.57198" lon="1.45487">
        <ele>166</ele>
        <time>2015-04-24T08:51:04.000Z</time>
      </trkpt>
      <trkpt lat="48.57198" lon="1.45487">
        <ele>166</ele>
        <time>2015-04-24T08:51:14.000Z</time>
      </trkpt>
      <trkpt lat="48.57197" lon="1.45486">
        <ele>166</ele>
        <time>2015-04-24T08:51:22.000Z</time>
      </trkpt>
      <trkpt lat="48.57198" lon="1.45481">
        <ele>166</ele>
        <time>2015-04-24T08:51:31.000Z</time>
      </trkpt>
      <trkpt lat="48.57198" lon="1.45479">
        <ele>166</ele>
        <time>2015-04-24T08:51:37.000Z</time>
      </trkpt>
      <trkpt lat="48.57198" lon="1.4548">
        <ele>166</ele>
        <time>2015-04-24T08:51:52.000Z</time>
      </trkpt>
      <trkpt lat="48.57198" lon="1.45477">
        <ele>166</ele>
        <time>2015-04-24T08:51:55.000Z</time>
      </trkpt>
      <trkpt lat="48.57197" lon="1.45473">
        <ele>166</ele>
        <time>2015-04-24T08:51:57.000Z</time>
      </trkpt>
      <trkpt lat="48.57195" lon="1.45471">
        <ele>166</ele>
        <time>2015-04-24T08:52:00.000Z</time>
      </trkpt>
      <trkpt lat="48.57193" lon="1.45465">
        <ele>166.1</ele>
        <time>2015-04-24T08:52:04.000Z</time>
      </trkpt>
      <trkpt lat="48.57188" lon="1.45455">
        <ele>166.2</ele>
        <time>2015-04-24T08:52:11.000Z</time>
      </trkpt>
      <trkpt lat="48.57183" lon="1.45444">
        <ele>166.4</ele>
        <time>2015-04-24T08:52:18.000Z</time>
      </trkpt>
      <trkpt lat="48.57175" lon="1.45425">
        <ele>166.9</ele>
        <time>2015-04-24T08:52:28.000Z</time>
      </trkpt>
      <trkpt lat="48.57175" lon="1.45424">
        <ele>166.9</ele>
        <time>2015-04-24T08:52:29.000Z</time>
      </trkpt>
      <trkpt lat="48.57173" lon="1.4542">
        <ele>167</ele>
        <time>2015-04-24T08:52:31.000Z</time>
      </trkpt>
      <trkpt lat="48.57172" lon="1.45417">
        <ele>167</ele>
        <time>2015-04-24T08:52:33.000Z</time>
      </trkpt>
      <trkpt lat="48.5717" lon="1.45415">
        <ele>167.1</ele>
        <time>2015-04-24T08:52:35.000Z</time>
      </trkpt>
      <trkpt lat="48.57168" lon="1.4541">
        <ele>167.2</ele>
        <time>2015-04-24T08:52:38.000Z</time>
      </trkpt>
      <trkpt lat="48.57163" lon="1.45402">
        <ele>167.6</ele>
        <time>2015-04-24T08:52:43.000Z</time>
      </trkpt>
      <trkpt lat="48.57161" lon="1.45399">
        <ele>167.7</ele>
        <time>2015-04-24T08:52:45.000Z</time>
      </trkpt>
      <trkpt lat="48.57156" lon="1.45393">
        <ele>167.9</ele>
        <time>2015-04-24T08:52:51.000Z</time>
      </trkpt>
      <trkpt lat="48.57156" lon="1.45394">
        <ele>167.9</ele>
        <time>2015-04-24T08:52:52.000Z</time>
      </trkpt>
      <trkpt lat="48.57156" lon="1.45394">
        <ele>167.9</ele>
        <time>2015-04-24T08:52:54.000Z</time>
      </trkpt>
      <trkpt lat="48.57156" lon="1.45393">
        <ele>167.9</ele>
        <time>2015-04-24T08:52:57.000Z</time>
      </trkpt>
      <trkpt lat="48.57157" lon="1.45396">
        <ele>167.8</ele>
        <time>2015-04-24T08:53:00.000Z</time>
      </trkpt>
      <trkpt lat="48.57158" lon="1.45397">
        <ele>167.8</ele>
        <time>2015-04-24T08:53:02.000Z</time>
      </trkpt>
      <trkpt lat="48.57159" lon="1.45399">
        <ele>167.8</ele>
        <time>2015-04-24T08:53:03.000Z</time>
      </trkpt>
      <trkpt lat="48.57164" lon="1.45407">
        <ele>167.4</ele>
        <time>2015-04-24T08:53:09.000Z</time>
      </trkpt>
      <trkpt lat="48.57169" lon="1.45417">
        <ele>167</ele>
        <time>2015-04-24T08:53:16.000Z</time>
      </trkpt>
      <trkpt lat="48.57171" lon="1.45421">
        <ele>167</ele>
        <time>2015-04-24T08:53:19.000Z</time>
      </trkpt>
      <trkpt lat="48.57173" lon="1.45427">
        <ele>166.9</ele>
        <time>2015-04-24T08:53:23.000Z</time>
      </trkpt>
      <trkpt lat="48.57176" lon="1.45433">
        <ele>166.8</ele>
        <time>2015-04-24T08:53:27.000Z</time>
      </trkpt>
      <trkpt lat="48.57179" lon="1.45438">
        <ele>166.7</ele>
        <time>2015-04-24T08:53:30.000Z</time>
      </trkpt>
      <trkpt lat="48.57181" lon="1.45441">
        <ele>166.6</ele>
        <time>2015-04-24T08:53:32.000Z</time>
      </trkpt>
      <trkpt lat="48.57184" lon="1.45447">
        <ele>166.4</ele>
        <time>2015-04-24T08:53:36.000Z</time>
      </trkpt>
      <trkpt lat="48.57187" lon="1.45455">
        <ele>166.3</ele>
        <time>2015-04-24T08:53:40.000Z</time>
      </trkpt>
      <trkpt lat="48.57191" lon="1.45463">
        <ele>166.1</ele>
        <time>2015-04-24T08:53:45.000Z</time>
      </trkpt>
      <trkpt lat="48.57193" lon="1.45469">
        <ele>166</ele>
        <time>2015-04-24T08:53:48.000Z</time>
      </trkpt>
      <trkpt lat="48.57196" lon="1.45473">
        <ele>166</ele>
        <time>2015-04-24T08:53:51.000Z</time>
      </trkpt>
      <trkpt lat="48.57198" lon="1.45478">
        <ele>166</ele>
        <time>2015-04-24T08:53:54.000Z</time>
      </trkpt>
      <trkpt lat="48.572" lon="1.45484">
        <ele>166</ele>
        <time>2015-04-24T08:54:00.000Z</time>
      </trkpt>
      <trkpt lat="48.57201" lon="1.45486">
        <ele>166</ele>
        <time>2015-04-24T08:54:06.000Z</time>
      </trkpt>
      <trkpt lat="48.57204" lon="1.45481">
        <ele>166</ele>
        <time>2015-04-24T08:54:13.000Z</time>
      </trkpt>
      <trkpt lat="48.57206" lon="1.45478">
        <ele>166</ele>
        <time>2015-04-24T08:54:20.000Z</time>
      </trkpt>
      <trkpt lat="48.57204" lon="1.45479">
        <ele>166</ele>
        <time>2015-04-24T08:54:22.000Z</time>
      </trkpt>
      <trkpt lat="48.57203" lon="1.45481">
        <ele>166</ele>
        <time>2015-04-24T08:54:24.000Z</time>
      </trkpt>
      <trkpt lat="48.57201" lon="1.45483">
        <ele>166</ele>
        <time>2015-04-24T08:54:26.000Z</time>
      </trkpt>
      <trkpt lat="48.57199" lon="1.45486">
        <ele>166</ele>
        <time>2015-04-24T08:54:29.000Z</time>
      </trkpt>
      <trkpt lat="48.57196" lon="1.45491">
        <ele>166</ele>
        <time>2015-04-24T08:54:34.000Z</time>
      </trkpt>
      <trkpt lat="48.57191" lon="1.45499">
        <ele>166.1</ele>
        <time>2015-04-24T08:54:41.000Z</time>
      </trkpt>
      <trkpt lat="48.57185" lon="1.45508">
        <ele>166.3</ele>
        <time>2015-04-24T08:54:48.000Z</time>
      </trkpt>
      <trkpt lat="48.57178" lon="1.45515">
        <ele>166.6</ele>
        <time>2015-04-24T08:54:55.000Z</time>
      </trkpt>
      <trkpt lat="48.57176" lon="1.45517">
        <ele>166.7</ele>
        <time>2015-04-24T08:54:57.000Z</time>
      </trkpt>
      <trkpt lat="48.57172" lon="1.45521">
        <ele>166.8</ele>
        <time>2015-04-24T08:55:00.000Z</time>
      </trkpt>
      <trkpt lat="48.57169" lon="1.45524">
        <ele>166.9</ele>
        <time>2015-04-24T08:55:03.000Z</time>
      </trkpt>
      <trkpt lat="48.57163" lon="1.45532">
        <ele>167</ele>
        <time>2015-04-24T08:55:09.000Z</time>
      </trkpt>
      <trkpt lat="48.57159" lon="1.45537">
        <ele>167</ele>
        <time>2015-04-24T08:55:13.000Z</time>
      </trkpt>
      <trkpt lat="48.57157" lon="1.45542">
        <ele>167</ele>
        <time>2015-04-24T08:55:16.000Z</time>
      </trkpt>
      <trkpt lat="48.57149" lon="1.45552">
        <ele>167</ele>
        <time>2015-04-24T08:55:24.000Z</time>
      </trkpt>
      <trkpt lat="48.5714" lon="1.45564">
        <ele>166.7</ele>
        <time>2015-04-24T08:55:33.000Z</time>
      </trkpt>
      <trkpt lat="48.57132" lon="1.45575">
        <ele>166.5</ele>
        <time>2015-04-24T08:55:41.000Z</time>
      </trkpt>
      <trkpt lat="48.57122" lon="1.45586">
        <ele>166.5</ele>
        <time>2015-04-24T08:55:50.000Z</time>
      </trkpt>
      <trkpt lat="48.57121" lon="1.45588">
        <ele>166.5</ele>
        <time>2015-04-24T08:55:52.000Z</time>
      </trkpt>
      <trkpt lat="48.5712" lon="1.45589">
        <ele>166.6</ele>
        <time>2015-04-24T08:55:53.000Z</time>
      </trkpt>
      <trkpt lat="48.57112" lon="1.45599">
        <ele>166.4</ele>
        <time>2015-04-24T08:56:00.000Z</time>
      </trkpt>
      <trkpt lat="48.57104" lon="1.45611">
        <ele>166</ele>
        <time>2015-04-24T08:56:09.000Z</time>
      </trkpt>
      <trkpt lat="48.57096" lon="1.45623">
        <ele>165.8</ele>
        <time>2015-04-24T08:56:18.000Z</time>
      </trkpt>
      <trkpt lat="48.5709" lon="1.45631">
        <ele>165.5</ele>
        <time>2015-04-24T08:56:24.000Z</time>
      </trkpt>
      <trkpt lat="48.57089" lon="1.45633">
        <ele>165.4</ele>
        <time>2015-04-24T08:56:25.000Z</time>
      </trkpt>
      <trkpt lat="48.5708" lon="1.45646">
        <ele>165</ele>
        <time>2015-04-24T08:56:35.000Z</time>
      </trkpt>
      <trkpt lat="48.57072" lon="1.45655">
        <ele>165</ele>
        <time>2015-04-24T08:56:42.000Z</time>
      </trkpt>
      <trkpt lat="48.5707" lon="1.45659">
        <ele>165</ele>
        <time>2015-04-24T08:56:45.000Z</time>
      </trkpt>
      <trkpt lat="48.5706" lon="1.45669">
        <ele>164.9</ele>
        <time>2015-04-24T08:56:54.000Z</time>
      </trkpt>
      <trkpt lat="48.57047" lon="1.45684">
        <ele>164.4</ele>
        <time>2015-04-24T08:57:06.000Z</time>
      </trkpt>
      <trkpt lat="48.5704" lon="1.45691">
        <ele>164.1</ele>
        <time>2015-04-24T08:57:12.000Z</time>
      </trkpt>
      <trkpt lat="48.57038" lon="1.45692">
        <ele>164.1</ele>
        <time>2015-04-24T08:57:13.000Z</time>
      </trkpt>
      <trkpt lat="48.57031" lon="1.457">
        <ele>163.6</ele>
        <time>2015-04-24T08:57:19.000Z</time>
      </trkpt>
      <trkpt lat="48.57022" lon="1.45711">
        <ele>162.8</ele>
        <time>2015-04-24T08:57:27.000Z</time>
      </trkpt>
      <trkpt lat="48.57021" lon="1.45712">
        <ele>162.7</ele>
        <time>2015-04-24T08:57:28.000Z</time>
      </trkpt>
      <trkpt lat="48.57013" lon="1.4572">
        <ele>162.1</ele>
        <time>2015-04-24T08:57:35.000Z</time>
      </trkpt>
      <trkpt lat="48.57011" lon="1.45723">
        <ele>162</ele>
        <time>2015-04-24T08:57:37.000Z</time>
      </trkpt>
      <trkpt lat="48.57004" lon="1.45729">
        <ele>161.8</ele>
        <time>2015-04-24T08:57:42.000Z</time>
      </trkpt>
      <trkpt lat="48.56997" lon="1.45738">
        <ele>161.5</ele>
        <time>2015-04-24T08:57:49.000Z</time>
      </trkpt>
      <trkpt lat="48.56992" lon="1.45744">
        <ele>161.4</ele>
        <time>2015-04-24T08:57:54.000Z</time>
      </trkpt>
      <trkpt lat="48.56988" lon="1.4575">
        <ele>161.4</ele>
        <time>2015-04-24T08:57:58.000Z</time>
      </trkpt>
      <trkpt lat="48.56981" lon="1.4576">
        <ele>161.3</ele>
        <time>2015-04-24T08:58:06.000Z</time>
      </trkpt>
      <trkpt lat="48.56971" lon="1.45768">
        <ele>161.5</ele>
        <time>2015-04-24T08:58:14.000Z</time>
      </trkpt>
      <trkpt lat="48.56962" lon="1.45777">
        <ele>162.5</ele>
        <time>2015-04-24T08:58:22.000Z</time>
      </trkpt>
      <trkpt lat="48.56961" lon="1.45778">
        <ele>162.7</ele>
        <time>2015-04-24T08:58:23.000Z</time>
      </trkpt>
      <trkpt lat="48.56951" lon="1.45785">
        <ele>164.1</ele>
        <time>2015-04-24T08:58:30.000Z</time>
      </trkpt>
      <trkpt lat="48.56949" lon="1.45788">
        <ele>164.4</ele>
        <time>2015-04-24T08:58:32.000Z</time>
      </trkpt>
      <trkpt lat="48.5694" lon="1.45795">
        <ele>165.2</ele>
        <time>2015-04-24T08:58:39.000Z</time>
      </trkpt>
      <trkpt lat="48.56938" lon="1.45796">
        <ele>165.2</ele>
        <time>2015-04-24T08:58:40.000Z</time>
      </trkpt>
      <trkpt lat="48.56931" lon="1.45802">
        <ele>165.5</ele>
        <time>2015-04-24T08:58:46.000Z</time>
      </trkpt>
      <trkpt lat="48.56925" lon="1.45809">
        <ele>165.7</ele>
        <time>2015-04-24T08:58:51.000Z</time>
      </trkpt>
      <trkpt lat="48.56923" lon="1.45812">
        <ele>165.8</ele>
        <time>2015-04-24T08:58:53.000Z</time>
      </trkpt>
      <trkpt lat="48.56912" lon="1.45822">
        <ele>166.2</ele>
        <time>2015-04-24T08:59:01.000Z</time>
      </trkpt>
      <trkpt lat="48.56907" lon="1.45829">
        <ele>166.4</ele>
        <time>2015-04-24T08:59:06.000Z</time>
      </trkpt>
      <trkpt lat="48.569" lon="1.45837">
        <ele>166.6</ele>
        <time>2015-04-24T08:59:12.000Z</time>
      </trkpt>
      <trkpt lat="48.5689" lon="1.45848">
        <ele>167</ele>
        <time>2015-04-24T08:59:21.000Z</time>
      </trkpt>
      <trkpt lat="48.56881" lon="1.45859">
        <ele>167.3</ele>
        <time>2015-04-24T08:59:29.000Z</time>
      </trkpt>
      <trkpt lat="48.56873" lon="1.4587">
        <ele>167.6</ele>
        <time>2015-04-24T08:59:36.000Z</time>
      </trkpt>
      <trkpt lat="48.56863" lon="1.45884">
        <ele>167.9</ele>
        <time>2015-04-24T08:59:46.000Z</time>
      </trkpt>
      <trkpt lat="48.56859" lon="1.4589">
        <ele>168.1</ele>
        <time>2015-04-24T08:59:50.000Z</time>
      </trkpt>
      <trkpt lat="48.56852" lon="1.459">
        <ele>168.3</ele>
        <time>2015-04-24T08:59:57.000Z</time>
      </trkpt>
      <trkpt lat="48.56844" lon="1.45912">
        <ele>168.6</ele>
        <time>2015-04-24T09:00:05.000Z</time>
      </trkpt>
      <trkpt lat="48.56835" lon="1.45925">
        <ele>169</ele>
        <time>2015-04-24T09:00:15.000Z</time>
      </trkpt>
      <trkpt lat="48.56825" lon="1.45938">
        <ele>169.1</ele>
        <time>2015-04-24T09:00:25.000Z</time>
      </trkpt>
      <trkpt lat="48.56816" lon="1.45952">
        <ele>169</ele>
        <time>2015-04-24T09:00:35.000Z</time>
      </trkpt>
      <trkpt lat="48.56815" lon="1.45954">
        <ele>169</ele>
        <time>2015-04-24T09:00:37.000Z</time>
      </trkpt>
      <trkpt lat="48.56806" lon="1.45966">
        <ele>169</ele>
        <time>2015-04-24T09:00:46.000Z</time>
      </trkpt>
      <trkpt lat="48.56797" lon="1.45979">
        <ele>169.2</ele>
        <time>2015-04-24T09:00:56.000Z</time>
      </trkpt>
      <trkpt lat="48.56785" lon="1.45997">
        <ele>169.1</ele>
        <time>2015-04-24T09:01:09.000Z</time>
      </trkpt>
      <trkpt lat="48.56775" lon="1.4601">
        <ele>169</ele>
        <time>2015-04-24T09:01:19.000Z</time>
      </trkpt>
      <trkpt lat="48.56765" lon="1.46024">
        <ele>169</ele>
        <time>2015-04-24T09:01:29.000Z</time>
      </trkpt>
      <trkpt lat="48.56753" lon="1.46042">
        <ele>169</ele>
        <time>2015-04-24T09:01:41.000Z</time>
      </trkpt>
      <trkpt lat="48.56742" lon="1.46057">
        <ele>168.9</ele>
        <time>2015-04-24T09:01:52.000Z</time>
      </trkpt>
      <trkpt lat="48.56732" lon="1.46071">
        <ele>168.4</ele>
        <time>2015-04-24T09:02:02.000Z</time>
      </trkpt>
      <trkpt lat="48.56718" lon="1.4609">
        <ele>168.1</ele>
        <time>2015-04-24T09:02:15.000Z</time>
      </trkpt>
      <trkpt lat="48.56713" lon="1.46098">
        <ele>168.2</ele>
        <time>2015-04-24T09:02:20.000Z</time>
      </trkpt>
      <trkpt lat="48.56709" lon="1.46103">
        <ele>168.1</ele>
        <time>2015-04-24T09:02:24.000Z</time>
      </trkpt>
      <trkpt lat="48.56697" lon="1.46123">
        <ele>168</ele>
        <time>2015-04-24T09:02:36.000Z</time>
      </trkpt>
      <trkpt lat="48.56687" lon="1.46136">
        <ele>168</ele>
        <time>2015-04-24T09:02:46.000Z</time>
      </trkpt>
      <trkpt lat="48.56676" lon="1.4615">
        <ele>167.9</ele>
        <time>2015-04-24T09:02:56.000Z</time>
      </trkpt>
      <trkpt lat="48.56666" lon="1.46165">
        <ele>168</ele>
        <time>2015-04-24T09:03:06.000Z</time>
      </trkpt>
      <trkpt lat="48.56653" lon="1.46182">
        <ele>168.5</ele>
        <time>2015-04-24T09:03:18.000Z</time>
      </trkpt>
      <trkpt lat="48.56647" lon="1.46192">
        <ele>168.7</ele>
        <time>2015-04-24T09:03:24.000Z</time>
      </trkpt>
      <trkpt lat="48.56635" lon="1.46204">
        <ele>169</ele>
        <time>2015-04-24T09:03:34.000Z</time>
      </trkpt>
      <trkpt lat="48.56634" lon="1.46205">
        <ele>169</ele>
        <time>2015-04-24T09:03:35.000Z</time>
      </trkpt>
      <trkpt lat="48.56628" lon="1.46211">
        <ele>169</ele>
        <time>2015-04-24T09:03:40.000Z</time>
      </trkpt>
      <trkpt lat="48.56614" lon="1.46224">
        <ele>169</ele>
        <time>2015-04-24T09:03:51.000Z</time>
      </trkpt>
      <trkpt lat="48.56598" lon="1.46236">
        <ele>169.2</ele>
        <time>2015-04-24T09:04:03.000Z</time>
      </trkpt>
      <trkpt lat="48.56582" lon="1.46249">
        <ele>169.1</ele>
        <time>2015-04-24T09:04:16.000Z</time>
      </trkpt>
      <trkpt lat="48.56568" lon="1.4626">
        <ele>169.5</ele>
        <time>2015-04-24T09:04:26.000Z</time>
      </trkpt>
      <trkpt lat="48.56555" lon="1.4627">
        <ele>170</ele>
        <time>2015-04-24T09:04:36.000Z</time>
      </trkpt>
      <trkpt lat="48.56551" lon="1.46273">
        <ele>170</ele>
        <time>2015-04-24T09:04:39.000Z</time>
      </trkpt>
      <trkpt lat="48.56545" lon="1.46278">
        <ele>170</ele>
        <time>2015-04-24T09:04:44.000Z</time>
      </trkpt>
      <trkpt lat="48.56539" lon="1.46281">
        <ele>170</ele>
        <time>2015-04-24T09:04:49.000Z</time>
      </trkpt>
      <trkpt lat="48.56539" lon="1.46281">
        <ele>170</ele>
        <time>2015-04-24T09:04:53.000Z</time>
      </trkpt>
      <trkpt lat="48.56539" lon="1.46281">
        <ele>170</ele>
        <time>2015-04-24T09:05:03.000Z</time>
      </trkpt>
      <trkpt lat="48.5654" lon="1.46282">
        <ele>170</ele>
        <time>2015-04-24T09:05:23.000Z</time>
      </trkpt>
      <trkpt lat="48.56539" lon="1.46284">
        <ele>170</ele>
        <time>2015-04-24T09:05:29.000Z</time>
      </trkpt>
      <trkpt lat="48.56537" lon="1.46287">
        <ele>170</ele>
        <time>2015-04-24T09:05:31.000Z</time>
      </trkpt>
      <trkpt lat="48.56526" lon="1.46295">
        <ele>170.1</ele>
        <time>2015-04-24T09:05:40.000Z</time>
      </trkpt>
      <trkpt lat="48.56515" lon="1.46303">
        <ele>170.4</ele>
        <time>2015-04-24T09:05:49.000Z</time>
      </trkpt>
      <trkpt lat="48.56504" lon="1.46312">
        <ele>170.9</ele>
        <time>2015-04-24T09:05:58.000Z</time>
      </trkpt>
      <trkpt lat="48.56501" lon="1.46316">
        <ele>171</ele>
        <time>2015-04-24T09:06:01.000Z</time>
      </trkpt>
      <trkpt lat="48.53277" lon="1.47981">
        <ele>155</ele>
        <time>2015-04-24T10:02:57.000Z</time>
      </trkpt>
      <trkpt lat="48.53277" lon="1.47981">
        <ele>155</ele>
        <time>2015-04-24T10:02:59.000Z</time>
      </trkpt>
      <trkpt lat="48.53279" lon="1.47983">
        <ele>155</ele>
        <time>2015-04-24T10:03:12.000Z</time>
      </trkpt>
      <trkpt lat="48.5328" lon="1.47985">
        <ele>155.1</ele>
        <time>2015-04-24T10:03:13.000Z</time>
      </trkpt>
      <trkpt lat="48.53287" lon="1.47995">
        <ele>155.3</ele>
        <time>2015-04-24T10:03:21.000Z</time>
      </trkpt>
      <trkpt lat="48.53294" lon="1.48007">
        <ele>155.6</ele>
        <time>2015-04-24T10:03:30.000Z</time>
      </trkpt>
      <trkpt lat="48.53305" lon="1.48022">
        <ele>156</ele>
        <time>2015-04-24T10:03:41.000Z</time>
      </trkpt>
      <trkpt lat="48.53313" lon="1.48034">
        <ele>156</ele>
        <time>2015-04-24T10:03:49.000Z</time>
      </trkpt>
      <trkpt lat="48.53321" lon="1.4805">
        <ele>156</ele>
        <time>2015-04-24T10:03:59.000Z</time>
      </trkpt>
      <trkpt lat="48.53328" lon="1.48059">
        <ele>156.1</ele>
        <time>2015-04-24T10:04:06.000Z</time>
      </trkpt>
      <trkpt lat="48.53337" lon="1.48071">
        <ele>156.7</ele>
        <time>2015-04-24T10:04:15.000Z</time>
      </trkpt>
      <trkpt lat="48.53344" lon="1.48079">
        <ele>157</ele>
        <time>2015-04-24T10:04:22.000Z</time>
      </trkpt>
      <trkpt lat="48.53349" lon="1.4809">
        <ele>157</ele>
        <time>2015-04-24T10:04:30.000Z</time>
      </trkpt>
      <trkpt lat="48.5335" lon="1.48091">
        <ele>157</ele>
        <time>2015-04-24T10:04:35.000Z</time>
      </trkpt>
      <trkpt lat="48.5335" lon="1.48091">
        <ele>157</ele>
        <time>2015-04-24T10:04:37.000Z</time>
      </trkpt>
      <trkpt lat="48.5335" lon="1.4809">
        <ele>157</ele>
        <time>2015-04-24T10:04:47.000Z</time>
      </trkpt>
      <trkpt lat="48.5335" lon="1.48089">
        <ele>157</ele>
        <time>2015-04-24T10:04:55.000Z</time>
      </trkpt>
      <trkpt lat="48.53349" lon="1.4809">
        <ele>157</ele>
        <time>2015-04-24T10:05:11.000Z</time>
      </trkpt>
      <trkpt lat="48.53349" lon="1.48091">
        <ele>157</ele>
        <time>2015-04-24T10:05:17.000Z</time>
      </trkpt>
      <trkpt lat="48.53349" lon="1.4809">
        <ele>157</ele>
        <time>2015-04-24T10:05:18.000Z</time>
      </trkpt>
      <trkpt lat="48.53347" lon="1.48084">
        <ele>157</ele>
        <time>2015-04-24T10:05:22.000Z</time>
      </trkpt>
      <trkpt lat="48.53346" lon="1.48082">
        <ele>157</ele>
        <time>2015-04-24T10:05:23.000Z</time>
      </trkpt>
      <trkpt lat="48.53343" lon="1.48079">
        <ele>157</ele>
        <time>2015-04-24T10:05:26.000Z</time>
      </trkpt>
      <trkpt lat="48.53341" lon="1.48076">
        <ele>156.9</ele>
        <time>2015-04-24T10:05:28.000Z</time>
      </trkpt>
      <trkpt lat="48.53333" lon="1.48065">
        <ele>156.3</ele>
        <time>2015-04-24T10:05:36.000Z</time>
      </trkpt>
      <trkpt lat="48.53325" lon="1.48053">
        <ele>156</ele>
        <time>2015-04-24T10:05:44.000Z</time>
      </trkpt>
      <trkpt lat="48.53318" lon="1.48041">
        <ele>156</ele>
        <time>2015-04-24T10:05:52.000Z</time>
      </trkpt>
      <trkpt lat="48.53317" lon="1.48039">
        <ele>156</ele>
        <time>2015-04-24T10:05:53.000Z</time>
      </trkpt>
      <trkpt lat="48.53309" lon="1.48027">
        <ele>156</ele>
        <time>2015-04-24T10:06:01.000Z</time>
      </trkpt>
      <trkpt lat="48.53298" lon="1.4801">
        <ele>155.7</ele>
        <time>2015-04-24T10:06:12.000Z</time>
      </trkpt>
      <trkpt lat="48.53288" lon="1.47994">
        <ele>155.4</ele>
        <time>2015-04-24T10:06:22.000Z</time>
      </trkpt>
      <trkpt lat="48.53278" lon="1.47979">
        <ele>155</ele>
        <time>2015-04-24T10:06:31.000Z</time>
      </trkpt>
      <trkpt lat="48.53269" lon="1.47965">
        <ele>155.3</ele>
        <time>2015-04-24T10:06:40.000Z</time>
      </trkpt>
      <trkpt lat="48.53264" lon="1.47957">
        <ele>155.5</ele>
        <time>2015-04-24T10:06:48.000Z</time>
      </trkpt>
      <trkpt lat="48.53264" lon="1.47957">
        <ele>155.5</ele>
        <time>2015-04-24T10:06:49.000Z</time>
      </trkpt>
      <trkpt lat="48.51114" lon="1.48152">
        <ele>164.1</ele>
        <time>2015-04-24T10:46:41.000Z</time>
      </trkpt>
      <trkpt lat="48.51114" lon="1.48152">
        <ele>164.1</ele>
        <time>2015-04-24T10:46:56.000Z</time>
      </trkpt>
      <trkpt lat="48.51114" lon="1.48153">
        <ele>164.1</ele>
        <time>2015-04-24T10:47:08.000Z</time>
      </trkpt>
      <trkpt lat="48.51114" lon="1.48153">
        <ele>164.1</ele>
        <time>2015-04-24T10:47:15.000Z</time>
      </trkpt>
      <trkpt lat="48.51114" lon="1.48153">
        <ele>164.1</ele>
        <time>2015-04-24T10:47:32.000Z</time>
      </trkpt>
      <trkpt lat="48.51116" lon="1.48151">
        <ele>164.1</ele>
        <time>2015-04-24T10:47:50.000Z</time>
      </trkpt>
      <trkpt lat="48.51116" lon="1.4815">
        <ele>164.1</ele>
        <time>2015-04-24T10:47:51.000Z</time>
      </trkpt>
      <trkpt lat="48.51115" lon="1.48143">
        <ele>164.1</ele>
        <time>2015-04-24T10:47:55.000Z</time>
      </trkpt>
      <trkpt lat="48.51115" lon="1.48137">
        <ele>164.2</ele>
        <time>2015-04-24T10:47:59.000Z</time>
      </trkpt>
      <trkpt lat="48.51115" lon="1.48133">
        <ele>164.3</ele>
        <time>2015-04-24T10:48:01.000Z</time>
      </trkpt>
      <trkpt lat="48.51115" lon="1.48125">
        <ele>164.6</ele>
        <time>2015-04-24T10:48:06.000Z</time>
      </trkpt>
      <trkpt lat="48.51115" lon="1.4812">
        <ele>164.7</ele>
        <time>2015-04-24T10:48:09.000Z</time>
      </trkpt>
      <trkpt lat="48.51116" lon="1.48106">
        <ele>165</ele>
        <time>2015-04-24T10:48:17.000Z</time>
      </trkpt>
      <trkpt lat="48.51116" lon="1.48102">
        <ele>165</ele>
        <time>2015-04-24T10:48:19.000Z</time>
      </trkpt>
      <trkpt lat="48.51117" lon="1.48088">
        <ele>165</ele>
        <time>2015-04-24T10:48:26.000Z</time>
      </trkpt>
      <trkpt lat="48.51117" lon="1.48073">
        <ele>165</ele>
        <time>2015-04-24T10:48:34.000Z</time>
      </trkpt>
      <trkpt lat="48.51117" lon="1.48056">
        <ele>165</ele>
        <time>2015-04-24T10:48:43.000Z</time>
      </trkpt>
      <trkpt lat="48.51118" lon="1.48044">
        <ele>165</ele>
        <time>2015-04-24T10:48:50.000Z</time>
      </trkpt>
      <trkpt lat="48.51118" lon="1.4803">
        <ele>165</ele>
        <time>2015-04-24T10:48:58.000Z</time>
      </trkpt>
      <trkpt lat="48.51119" lon="1.48011">
        <ele>165</ele>
        <time>2015-04-24T10:49:08.000Z</time>
      </trkpt>
      <trkpt lat="48.5112" lon="1.47995">
        <ele>165</ele>
        <time>2015-04-24T10:49:17.000Z</time>
      </trkpt>
      <trkpt lat="48.5112" lon="1.47979">
        <ele>165</ele>
        <time>2015-04-24T10:49:26.000Z</time>
      </trkpt>
      <trkpt lat="48.51121" lon="1.47963">
        <ele>165</ele>
        <time>2015-04-24T10:49:35.000Z</time>
      </trkpt>
      <trkpt lat="48.51119" lon="1.47938">
        <ele>164.9</ele>
        <time>2015-04-24T10:49:48.000Z</time>
      </trkpt>
      <trkpt lat="48.51118" lon="1.47921">
        <ele>164.8</ele>
        <time>2015-04-24T10:49:58.000Z</time>
      </trkpt>
      <trkpt lat="48.51115" lon="1.47901">
        <ele>164.4</ele>
        <time>2015-04-24T10:50:09.000Z</time>
      </trkpt>
      <trkpt lat="48.51111" lon="1.47884">
        <ele>164</ele>
        <time>2015-04-24T10:50:19.000Z</time>
      </trkpt>
      <trkpt lat="48.51107" lon="1.47871">
        <ele>164</ele>
        <time>2015-04-24T10:50:29.000Z</time>
      </trkpt>
      <trkpt lat="48.51105" lon="1.47864">
        <ele>164</ele>
        <time>2015-04-24T10:50:36.000Z</time>
      </trkpt>
      <trkpt lat="48.511" lon="1.47846">
        <ele>164</ele>
        <time>2015-04-24T10:50:47.000Z</time>
      </trkpt>
      <trkpt lat="48.51096" lon="1.47834">
        <ele>164</ele>
        <time>2015-04-24T10:50:55.000Z</time>
      </trkpt>
      <trkpt lat="48.51092" lon="1.47821">
        <ele>164</ele>
        <time>2015-04-24T10:51:02.000Z</time>
      </trkpt>
      <trkpt lat="48.51088" lon="1.47809">
        <ele>164</ele>
        <time>2015-04-24T10:51:09.000Z</time>
      </trkpt>
      <trkpt lat="48.51083" lon="1.47793">
        <ele>164</ele>
        <time>2015-04-24T10:51:18.000Z</time>
      </trkpt>
      <trkpt lat="48.51077" lon="1.47775">
        <ele>164</ele>
        <time>2015-04-24T10:51:28.000Z</time>
      </trkpt>
      <trkpt lat="48.51071" lon="1.47758">
        <ele>164</ele>
        <time>2015-04-24T10:51:38.000Z</time>
      </trkpt>
      <trkpt lat="48.51065" lon="1.47739">
        <ele>163.6</ele>
        <time>2015-04-24T10:51:48.000Z</time>
      </trkpt>
      <trkpt lat="48.51058" lon="1.47719">
        <ele>163</ele>
        <time>2015-04-24T10:51:59.000Z</time>
      </trkpt>
      <trkpt lat="48.51057" lon="1.47718">
        <ele>163</ele>
        <time>2015-04-24T10:52:00.000Z</time>
      </trkpt>
      <trkpt lat="48.51057" lon="1.47716">
        <ele>163</ele>
        <time>2015-04-24T10:52:02.000Z</time>
      </trkpt>
      <trkpt lat="48.51057" lon="1.47715">
        <ele>163</ele>
        <time>2015-04-24T10:52:03.000Z</time>
      </trkpt>
      <trkpt lat="48.51054" lon="1.47707">
        <ele>163</ele>
        <time>2015-04-24T10:52:08.000Z</time>
      </trkpt>
      <trkpt lat="48.51048" lon="1.47688">
        <ele>162.8</ele>
        <time>2015-04-24T10:52:18.000Z</time>
      </trkpt>
      <trkpt lat="48.51041" lon="1.47667">
        <ele>162.5</ele>
        <time>2015-04-24T10:52:29.000Z</time>
      </trkpt>
      <trkpt lat="48.51036" lon="1.4765">
        <ele>162.3</ele>
        <time>2015-04-24T10:52:38.000Z</time>
      </trkpt>
      <trkpt lat="48.51036" lon="1.47649">
        <ele>162.3</ele>
        <time>2015-04-24T10:52:40.000Z</time>
      </trkpt>
      <trkpt lat="48.51035" lon="1.47648">
        <ele>162.2</ele>
        <time>2015-04-24T10:52:50.000Z</time>
      </trkpt>
      <trkpt lat="48.51035" lon="1.47649">
        <ele>162.3</ele>
        <time>2015-04-24T10:53:08.000Z</time>
      </trkpt>
      <trkpt lat="48.51034" lon="1.47647">
        <ele>162.2</ele>
        <time>2015-04-24T10:53:09.000Z</time>
      </trkpt>
      <trkpt lat="48.51032" lon="1.47641">
        <ele>162.1</ele>
        <time>2015-04-24T10:53:13.000Z</time>
      </trkpt>
      <trkpt lat="48.51027" lon="1.47627">
        <ele>162</ele>
        <time>2015-04-24T10:53:21.000Z</time>
      </trkpt>
      <trkpt lat="48.51021" lon="1.4761">
        <ele>162</ele>
        <time>2015-04-24T10:53:30.000Z</time>
      </trkpt>
      <trkpt lat="48.51015" lon="1.47592">
        <ele>161.7</ele>
        <time>2015-04-24T10:53:39.000Z</time>
      </trkpt>
      <trkpt lat="48.51009" lon="1.47576">
        <ele>161.2</ele>
        <time>2015-04-24T10:53:48.000Z</time>
      </trkpt>
      <trkpt lat="48.51007" lon="1.47572">
        <ele>161.2</ele>
        <time>2015-04-24T10:53:50.000Z</time>
      </trkpt>
      <trkpt lat="48.51" lon="1.47554">
        <ele>160.9</ele>
        <time>2015-04-24T10:54:00.000Z</time>
      </trkpt>
      <trkpt lat="48.50994" lon="1.4754">
        <ele>160.4</ele>
        <time>2015-04-24T10:54:08.000Z</time>
      </trkpt>
      <trkpt lat="48.50988" lon="1.47525">
        <ele>160</ele>
        <time>2015-04-24T10:54:17.000Z</time>
      </trkpt>
      <trkpt lat="48.50981" lon="1.4751">
        <ele>160</ele>
        <time>2015-04-24T10:54:27.000Z</time>
      </trkpt>
      <trkpt lat="48.50981" lon="1.47509">
        <ele>160</ele>
        <time>2015-04-24T10:54:32.000Z</time>
      </trkpt>
      <trkpt lat="48.50977" lon="1.47501">
        <ele>160</ele>
        <time>2015-04-24T10:54:38.000Z</time>
      </trkpt>
      <trkpt lat="48.50971" lon="1.47487">
        <ele>160</ele>
        <time>2015-04-24T10:54:48.000Z</time>
      </trkpt>
      <trkpt lat="48.50964" lon="1.47474">
        <ele>160</ele>
        <time>2015-04-24T10:54:58.000Z</time>
      </trkpt>
      <trkpt lat="48.50964" lon="1.47473">
        <ele>160</ele>
        <time>2015-04-24T10:54:59.000Z</time>
      </trkpt>
      <trkpt lat="48.50957" lon="1.47459">
        <ele>160</ele>
        <time>2015-04-24T10:55:08.000Z</time>
      </trkpt>
      <trkpt lat="48.5095" lon="1.47447">
        <ele>160</ele>
        <time>2015-04-24T10:55:17.000Z</time>
      </trkpt>
      <trkpt lat="48.5095" lon="1.47445">
        <ele>160</ele>
        <time>2015-04-24T10:55:18.000Z</time>
      </trkpt>
      <trkpt lat="48.50951" lon="1.47438">
        <ele>160</ele>
        <time>2015-04-24T10:55:24.000Z</time>
      </trkpt>
      <trkpt lat="48.50951" lon="1.47438">
        <ele>160</ele>
        <time>2015-04-24T10:55:31.000Z</time>
      </trkpt>
      <trkpt lat="48.50951" lon="1.47438">
        <ele>160</ele>
        <time>2015-04-24T10:55:42.000Z</time>
      </trkpt>
      <trkpt lat="48.50951" lon="1.47439">
        <ele>160</ele>
        <time>2015-04-24T10:55:49.000Z</time>
      </trkpt>
      <trkpt lat="48.50951" lon="1.47439">
        <ele>160</ele>
        <time>2015-04-24T10:55:54.000Z</time>
      </trkpt>
      <trkpt lat="48.50951" lon="1.47439">
        <ele>160</ele>
        <time>2015-04-24T10:56:00.000Z</time>
      </trkpt>
      <trkpt lat="48.5095" lon="1.47438">
        <ele>160</ele>
        <time>2015-04-24T10:56:07.000Z</time>
      </trkpt>
      <trkpt lat="48.5095" lon="1.47439">
        <ele>160</ele>
        <time>2015-04-24T10:56:16.000Z</time>
      </trkpt>
      <trkpt lat="48.5095" lon="1.47438">
        <ele>160</ele>
        <time>2015-04-24T10:56:24.000Z</time>
      </trkpt>
      <trkpt lat="48.5095" lon="1.47438">
        <ele>160</ele>
        <time>2015-04-24T10:56:32.000Z</time>
      </trkpt>
      <trkpt lat="48.50951" lon="1.47438">
        <ele>159.9</ele>
        <time>2015-04-24T10:56:40.000Z</time>
      </trkpt>
      <trkpt lat="48.5095" lon="1.47436">
        <ele>159.9</ele>
        <time>2015-04-24T10:56:44.000Z</time>
      </trkpt>
      <trkpt lat="48.50947" lon="1.47434">
        <ele>160</ele>
        <time>2015-04-24T10:56:46.000Z</time>
      </trkpt>
      <trkpt lat="48.50939" lon="1.47424">
        <ele>160</ele>
        <time>2015-04-24T10:56:54.000Z</time>
      </trkpt>
      <trkpt lat="48.50931" lon="1.47416">
        <ele>160</ele>
        <time>2015-04-24T10:57:02.000Z</time>
      </trkpt>
      <trkpt lat="48.50927" lon="1.47411">
        <ele>160</ele>
        <time>2015-04-24T10:57:06.000Z</time>
      </trkpt>
      <trkpt lat="48.5092" lon="1.47404">
        <ele>160</ele>
        <time>2015-04-24T10:57:12.000Z</time>
      </trkpt>
      <trkpt lat="48.50918" lon="1.47401">
        <ele>160</ele>
        <time>2015-04-24T10:57:17.000Z</time>
      </trkpt>
      <trkpt lat="48.50917" lon="1.47403">
        <ele>160</ele>
        <time>2015-04-24T10:57:31.000Z</time>
      </trkpt>
      <trkpt lat="48.50918" lon="1.47408">
        <ele>160</ele>
        <time>2015-04-24T10:57:37.000Z</time>
      </trkpt>
      <trkpt lat="48.50918" lon="1.47408">
        <ele>160</ele>
        <time>2015-04-24T10:57:43.000Z</time>
      </trkpt>
      <trkpt lat="48.50918" lon="1.47408">
        <ele>160</ele>
        <time>2015-04-24T10:57:56.000Z</time>
      </trkpt>
      <trkpt lat="48.50919" lon="1.47407">
        <ele>160</ele>
        <time>2015-04-24T10:58:05.000Z</time>
      </trkpt>
      <trkpt lat="48.50918" lon="1.47405">
        <ele>160</ele>
        <time>2015-04-24T10:58:06.000Z</time>
      </trkpt>
      <trkpt lat="48.50915" lon="1.47402">
        <ele>160</ele>
        <time>2015-04-24T10:58:09.000Z</time>
      </trkpt>
      <trkpt lat="48.50909" lon="1.47397">
        <ele>160</ele>
        <time>2015-04-24T10:58:16.000Z</time>
      </trkpt>
      <trkpt lat="48.50909" lon="1.47397">
        <ele>160</ele>
        <time>2015-04-24T10:58:21.000Z</time>
      </trkpt>
      <trkpt lat="48.5091" lon="1.47397">
        <ele>160</ele>
        <time>2015-04-24T10:58:26.000Z</time>
      </trkpt>
      <trkpt lat="48.50909" lon="1.47394">
        <ele>160</ele>
        <time>2015-04-24T10:58:29.000Z</time>
      </trkpt>
      <trkpt lat="48.50906" lon="1.47391">
        <ele>160</ele>
        <time>2015-04-24T10:58:32.000Z</time>
      </trkpt>
      <trkpt lat="48.50901" lon="1.47386">
        <ele>160</ele>
        <time>2015-04-24T10:58:38.000Z</time>
      </trkpt>
      <trkpt lat="48.50898" lon="1.47385">
        <ele>160</ele>
        <time>2015-04-24T10:58:41.000Z</time>
      </trkpt>
      <trkpt lat="48.50896" lon="1.47382">
        <ele>160</ele>
        <time>2015-04-24T10:58:44.000Z</time>
      </trkpt>
      <trkpt lat="48.50884" lon="1.4737">
        <ele>160</ele>
        <time>2015-04-24T10:58:56.000Z</time>
      </trkpt>
      <trkpt lat="48.50882" lon="1.47368">
        <ele>160</ele>
        <time>2015-04-24T10:58:58.000Z</time>
      </trkpt>
      <trkpt lat="48.50877" lon="1.47364">
        <ele>160</ele>
        <time>2015-04-24T10:59:03.000Z</time>
      </trkpt>
      <trkpt lat="48.50873" lon="1.4736">
        <ele>160</ele>
        <time>2015-04-24T10:59:08.000Z</time>
      </trkpt>
      <trkpt lat="48.50861" lon="1.4735">
        <ele>160</ele>
        <time>2015-04-24T10:59:19.000Z</time>
      </trkpt>
      <trkpt lat="48.50849" lon="1.47339">
        <ele>160.4</ele>
        <time>2015-04-24T10:59:29.000Z</time>
      </trkpt>
      <trkpt lat="48.50834" lon="1.47323">
        <ele>161</ele>
        <time>2015-04-24T10:59:42.000Z</time>
      </trkpt>
      <trkpt lat="48.50825" lon="1.47313">
        <ele>161</ele>
        <time>2015-04-24T10:59:50.000Z</time>
      </trkpt>
      <trkpt lat="48.50812" lon="1.47299">
        <ele>161</ele>
        <time>2015-04-24T11:00:01.000Z</time>
      </trkpt>
      <trkpt lat="48.50809" lon="1.47295">
        <ele>161</ele>
        <time>2015-04-24T11:00:04.000Z</time>
      </trkpt>
      <trkpt lat="48.50798" lon="1.47281">
        <ele>161</ele>
        <time>2015-04-24T11:00:14.000Z</time>
      </trkpt>
      <trkpt lat="48.50791" lon="1.47267">
        <ele>161</ele>
        <time>2015-04-24T11:00:23.000Z</time>
      </trkpt>
      <trkpt lat="48.50783" lon="1.47252">
        <ele>161</ele>
        <time>2015-04-24T11:00:32.000Z</time>
      </trkpt>
      <trkpt lat="48.50774" lon="1.47238">
        <ele>161.5</ele>
        <time>2015-04-24T11:00:41.000Z</time>
      </trkpt>
      <trkpt lat="48.50773" lon="1.47226">
        <ele>161.9</ele>
        <time>2015-04-24T11:00:47.000Z</time>
      </trkpt>
      <trkpt lat="48.50776" lon="1.47222">
        <ele>162</ele>
        <time>2015-04-24T11:00:52.000Z</time>
      </trkpt>
      <trkpt lat="48.50777" lon="1.47224">
        <ele>161.9</ele>
        <time>2015-04-24T11:00:58.000Z</time>
      </trkpt>
      <trkpt lat="48.50776" lon="1.47223">
        <ele>162</ele>
        <time>2015-04-24T11:01:05.000Z</time>
      </trkpt>
      <trkpt lat="48.50776" lon="1.47224">
        <ele>161.9</ele>
        <time>2015-04-24T11:01:12.000Z</time>
      </trkpt>
      <trkpt lat="48.50776" lon="1.47224">
        <ele>162</ele>
        <time>2015-04-24T11:01:14.000Z</time>
      </trkpt>
      <trkpt lat="48.50777" lon="1.47222">
        <ele>162</ele>
        <time>2015-04-24T11:01:15.000Z</time>
      </trkpt>
      <trkpt lat="48.50779" lon="1.47218">
        <ele>162.1</ele>
        <time>2015-04-24T11:01:18.000Z</time>
      </trkpt>
      <trkpt lat="48.5078" lon="1.47217">
        <ele>162.1</ele>
        <time>2015-04-24T11:01:19.000Z</time>
      </trkpt>
      <trkpt lat="48.50784" lon="1.4721">
        <ele>162.2</ele>
        <time>2015-04-24T11:01:24.000Z</time>
      </trkpt>
      <trkpt lat="48.50791" lon="1.47198">
        <ele>162.4</ele>
        <time>2015-04-24T11:01:31.000Z</time>
      </trkpt>
      <trkpt lat="48.50798" lon="1.47186">
        <ele>162.3</ele>
        <time>2015-04-24T11:01:38.000Z</time>
      </trkpt>
      <trkpt lat="48.50805" lon="1.47173">
        <ele>162</ele>
        <time>2015-04-24T11:01:46.000Z</time>
      </trkpt>
      <trkpt lat="48.50815" lon="1.47156">
        <ele>162.3</ele>
        <time>2015-04-24T11:01:56.000Z</time>
      </trkpt>
      <trkpt lat="48.50823" lon="1.47137">
        <ele>162.4</ele>
        <time>2015-04-24T11:02:06.000Z</time>
      </trkpt>
      <trkpt lat="48.50831" lon="1.47118">
        <ele>162.1</ele>
        <time>2015-04-24T11:02:16.000Z</time>
      </trkpt>
      <trkpt lat="48.50838" lon="1.47101">
        <ele>162.3</ele>
        <time>2015-04-24T11:02:25.000Z</time>
      </trkpt>
      <trkpt lat="48.50846" lon="1.47076">
        <ele>162.8</ele>
        <time>2015-04-24T11:02:37.000Z</time>
      </trkpt>
      <trkpt lat="48.50847" lon="1.47074">
        <ele>162.8</ele>
        <time>2015-04-24T11:02:38.000Z</time>
      </trkpt>
      <trkpt lat="48.50852" lon="1.47058">
        <ele>163.2</ele>
        <time>2015-04-24T11:02:46.000Z</time>
      </trkpt>
      <trkpt lat="48.50859" lon="1.47032">
        <ele>163.8</ele>
        <time>2015-04-24T11:02:58.000Z</time>
      </trkpt>
      <trkpt lat="48.50864" lon="1.47014">
        <ele>164</ele>
        <time>2015-04-24T11:03:07.000Z</time>
      </trkpt>
      <trkpt lat="48.50866" lon="1.47001">
        <ele>164.2</ele>
        <time>2015-04-24T11:03:13.000Z</time>
      </trkpt>
      <trkpt lat="48.50867" lon="1.46994">
        <ele>164.4</ele>
        <time>2015-04-24T11:03:16.000Z</time>
      </trkpt>
      <trkpt lat="48.5087" lon="1.46974">
        <ele>164.9</ele>
        <time>2015-04-24T11:03:25.000Z</time>
      </trkpt>
      <trkpt lat="48.50873" lon="1.46953">
        <ele>165</ele>
        <time>2015-04-24T11:03:35.000Z</time>
      </trkpt>
      <trkpt lat="48.50875" lon="1.46938">
        <ele>165.1</ele>
        <time>2015-04-24T11:03:42.000Z</time>
      </trkpt>
      <trkpt lat="48.50876" lon="1.4693">
        <ele>165.2</ele>
        <time>2015-04-24T11:03:46.000Z</time>
      </trkpt>
      <trkpt lat="48.50878" lon="1.46922">
        <ele>165.3</ele>
        <time>2015-04-24T11:03:50.000Z</time>
      </trkpt>
      <trkpt lat="48.5088" lon="1.46917">
        <ele>165.3</ele>
        <time>2015-04-24T11:03:52.000Z</time>
      </trkpt>
      <trkpt lat="48.50881" lon="1.46909">
        <ele>165.3</ele>
        <time>2015-04-24T11:03:56.000Z</time>
      </trkpt>
      <trkpt lat="48.50884" lon="1.46894">
        <ele>165.2</ele>
        <time>2015-04-24T11:04:03.000Z</time>
      </trkpt>
      <trkpt lat="48.50884" lon="1.46892">
        <ele>165.2</ele>
        <time>2015-04-24T11:04:04.000Z</time>
      </trkpt>
      <trkpt lat="48.50885" lon="1.46875">
        <ele>165.1</ele>
        <time>2015-04-24T11:04:12.000Z</time>
      </trkpt>
      <trkpt lat="48.50883" lon="1.46872">
        <ele>165.1</ele>
        <time>2015-04-24T11:04:14.000Z</time>
      </trkpt>
      <trkpt lat="48.50877" lon="1.46869">
        <ele>165.1</ele>
        <time>2015-04-24T11:04:18.000Z</time>
      </trkpt>
      <trkpt lat="48.50875" lon="1.46868">
        <ele>165.1</ele>
        <time>2015-04-24T11:04:19.000Z</time>
      </trkpt>
      <trkpt lat="48.50861" lon="1.46861">
        <ele>165</ele>
        <time>2015-04-24T11:04:28.000Z</time>
      </trkpt>
      <trkpt lat="48.50849" lon="1.46859">
        <ele>165.4</ele>
        <time>2015-04-24T11:04:36.000Z</time>
      </trkpt>
      <trkpt lat="48.50838" lon="1.46856">
        <ele>165.8</ele>
        <time>2015-04-24T11:04:44.000Z</time>
      </trkpt>
      <trkpt lat="48.50825" lon="1.46852">
        <ele>166</ele>
        <time>2015-04-24T11:04:53.000Z</time>
      </trkpt>
      <trkpt lat="48.50819" lon="1.4685">
        <ele>166</ele>
        <time>2015-04-24T11:04:57.000Z</time>
      </trkpt>
      <trkpt lat="48.50812" lon="1.4685">
        <ele>166</ele>
        <time>2015-04-24T11:05:01.000Z</time>
      </trkpt>
      <trkpt lat="48.50798" lon="1.4685">
        <ele>166.1</ele>
        <time>2015-04-24T11:05:10.000Z</time>
      </trkpt>
      <trkpt lat="48.50788" lon="1.46853">
        <ele>166.2</ele>
        <time>2015-04-24T11:05:17.000Z</time>
      </trkpt>
      <trkpt lat="48.50775" lon="1.46857">
        <ele>166.2</ele>
        <time>2015-04-24T11:05:27.000Z</time>
      </trkpt>
      <trkpt lat="48.50767" lon="1.46862">
        <ele>166.4</ele>
        <time>2015-04-24T11:05:34.000Z</time>
      </trkpt>
      <trkpt lat="48.50762" lon="1.46866">
        <ele>166.6</ele>
        <time>2015-04-24T11:05:39.000Z</time>
      </trkpt>
      <trkpt lat="48.50762" lon="1.46866">
        <ele>166.7</ele>
        <time>2015-04-24T11:05:41.000Z</time>
      </trkpt>
      <trkpt lat="48.50762" lon="1.46865">
        <ele>166.6</ele>
        <time>2015-04-24T11:05:50.000Z</time>
      </trkpt>
      <trkpt lat="48.50763" lon="1.46863">
        <ele>166.6</ele>
        <time>2015-04-24T11:05:59.000Z</time>
      </trkpt>
      <trkpt lat="48.50768" lon="1.46859">
        <ele>166.4</ele>
        <time>2015-04-24T11:06:05.000Z</time>
      </trkpt>
      <trkpt lat="48.5077" lon="1.46857">
        <ele>166.4</ele>
        <time>2015-04-24T11:06:10.000Z</time>
      </trkpt>
      <trkpt lat="48.5077" lon="1.46857">
        <ele>166.4</ele>
        <time>2015-04-24T11:06:15.000Z</time>
      </trkpt>
      <trkpt lat="48.50767" lon="1.4686">
        <ele>166.4</ele>
        <time>2015-04-24T11:06:20.000Z</time>
      </trkpt>
      <trkpt lat="48.50757" lon="1.46869">
        <ele>166.8</ele>
        <time>2015-04-24T11:06:26.000Z</time>
      </trkpt>
      <trkpt lat="48.50756" lon="1.46872">
        <ele>166.9</ele>
        <time>2015-04-24T11:06:31.000Z</time>
      </trkpt>
      <trkpt lat="48.50758" lon="1.46871">
        <ele>166.8</ele>
        <time>2015-04-24T11:06:33.000Z</time>
      </trkpt>
      <trkpt lat="48.50757" lon="1.46871">
        <ele>166.8</ele>
        <time>2015-04-24T11:06:36.000Z</time>
      </trkpt>
      <trkpt lat="48.50759" lon="1.46869">
        <ele>166.8</ele>
        <time>2015-04-24T11:06:41.000Z</time>
      </trkpt>
      <trkpt lat="48.50768" lon="1.46863">
        <ele>166.4</ele>
        <time>2015-04-24T11:06:50.000Z</time>
      </trkpt>
      <trkpt lat="48.50767" lon="1.46859">
        <ele>166.4</ele>
        <time>2015-04-24T11:06:53.000Z</time>
      </trkpt>
      <trkpt lat="48.50769" lon="1.46859">
        <ele>166.4</ele>
        <time>2015-04-24T11:06:55.000Z</time>
      </trkpt>
      <trkpt lat="48.50773" lon="1.46852">
        <ele>166.4</ele>
        <time>2015-04-24T11:07:01.000Z</time>
      </trkpt>
      <trkpt lat="48.50771" lon="1.46848">
        <ele>166.6</ele>
        <time>2015-04-24T11:07:11.000Z</time>
      </trkpt>
      <trkpt lat="48.5077" lon="1.46847">
        <ele>166.6</ele>
        <time>2015-04-24T11:07:22.000Z</time>
      </trkpt>
      <trkpt lat="48.50774" lon="1.46846">
        <ele>166.6</ele>
        <time>2015-04-24T11:07:29.000Z</time>
      </trkpt>
      <trkpt lat="48.50777" lon="1.46846">
        <ele>166.6</ele>
        <time>2015-04-24T11:07:36.000Z</time>
      </trkpt>
      <trkpt lat="48.50779" lon="1.46847">
        <ele>166.5</ele>
        <time>2015-04-24T11:07:48.000Z</time>
      </trkpt>
      <trkpt lat="48.50781" lon="1.46851">
        <ele>166.3</ele>
        <time>2015-04-24T11:07:54.000Z</time>
      </trkpt>
      <trkpt lat="48.50781" lon="1.46851">
        <ele>166.3</ele>
        <time>2015-04-24T11:07:59.000Z</time>
      </trkpt>
      <trkpt lat="48.50781" lon="1.46851">
        <ele>166.3</ele>
        <time>2015-04-24T11:08:04.000Z</time>
      </trkpt>
      <trkpt lat="48.5078" lon="1.4685">
        <ele>166.4</ele>
        <time>2015-04-24T11:08:09.000Z</time>
      </trkpt>
      <trkpt lat="48.50781" lon="1.46852">
        <ele>166.3</ele>
        <time>2015-04-24T11:08:15.000Z</time>
      </trkpt>
      <trkpt lat="48.50781" lon="1.46852">
        <ele>166.3</ele>
        <time>2015-04-24T11:08:22.000Z</time>
      </trkpt>
      <trkpt lat="48.50782" lon="1.4685">
        <ele>166.3</ele>
        <time>2015-04-24T11:08:23.000Z</time>
      </trkpt>
      <trkpt lat="48.50785" lon="1.46849">
        <ele>166.3</ele>
        <time>2015-04-24T11:08:27.000Z</time>
      </trkpt>
      <trkpt lat="48.50787" lon="1.46849">
        <ele>166.3</ele>
        <time>2015-04-24T11:08:29.000Z</time>
      </trkpt>
      <trkpt lat="48.50788" lon="1.46851">
        <ele>166.2</ele>
        <time>2015-04-24T11:08:30.000Z</time>
      </trkpt>
      <trkpt lat="48.50789" lon="1.46853">
        <ele>166.2</ele>
        <time>2015-04-24T11:08:31.000Z</time>
      </trkpt>
      <trkpt lat="48.50791" lon="1.46859">
        <ele>166</ele>
        <time>2015-04-24T11:08:36.000Z</time>
      </trkpt>
      <trkpt lat="48.50791" lon="1.46865">
        <ele>166.1</ele>
        <time>2015-04-24T11:08:42.000Z</time>
      </trkpt>
      <trkpt lat="48.50789" lon="1.46865">
        <ele>166.1</ele>
        <time>2015-04-24T11:08:48.000Z</time>
      </trkpt>
      <trkpt lat="48.50787" lon="1.46865">
        <ele>166.1</ele>
        <time>2015-04-24T11:08:55.000Z</time>
      </trkpt>
      <trkpt lat="48.50786" lon="1.46866">
        <ele>166.1</ele>
        <time>2015-04-24T11:09:01.000Z</time>
      </trkpt>
      <trkpt lat="48.50787" lon="1.46867">
        <ele>166.2</ele>
        <time>2015-04-24T11:09:06.000Z</time>
      </trkpt>
      <trkpt lat="48.50786" lon="1.46868">
        <ele>166.2</ele>
        <time>2015-04-24T11:09:12.000Z</time>
      </trkpt>
      <trkpt lat="48.50789" lon="1.4687">
        <ele>166.2</ele>
        <time>2015-04-24T11:09:18.000Z</time>
      </trkpt>
      <trkpt lat="48.5079" lon="1.46867">
        <ele>166.1</ele>
        <time>2015-04-24T11:09:25.000Z</time>
      </trkpt>
      <trkpt lat="48.50789" lon="1.46866">
        <ele>166.1</ele>
        <time>2015-04-24T11:09:29.000Z</time>
      </trkpt>
      <trkpt lat="48.50785" lon="1.46858">
        <ele>166.1</ele>
        <time>2015-04-24T11:09:35.000Z</time>
      </trkpt>
      <trkpt lat="48.50783" lon="1.46854">
        <ele>166.2</ele>
        <time>2015-04-24T11:09:42.000Z</time>
      </trkpt>
      <trkpt lat="48.50782" lon="1.46854">
        <ele>166.2</ele>
        <time>2015-04-24T11:09:48.000Z</time>
      </trkpt>
      <trkpt lat="48.50777" lon="1.46854">
        <ele>166.3</ele>
        <time>2015-04-24T11:09:54.000Z</time>
      </trkpt>
      <trkpt lat="48.50769" lon="1.46855">
        <ele>166.5</ele>
        <time>2015-04-24T11:10:01.000Z</time>
      </trkpt>
      <trkpt lat="48.50767" lon="1.46857">
        <ele>166.5</ele>
        <time>2015-04-24T11:10:03.000Z</time>
      </trkpt>
      <trkpt lat="48.50762" lon="1.46859">
        <ele>166.6</ele>
        <time>2015-04-24T11:10:08.000Z</time>
      </trkpt>
      <trkpt lat="48.50757" lon="1.46862">
        <ele>166.7</ele>
        <time>2015-04-24T11:10:15.000Z</time>
      </trkpt>
      <trkpt lat="48.50758" lon="1.46863">
        <ele>166.7</ele>
        <time>2015-04-24T11:10:21.000Z</time>
      </trkpt>
      <trkpt lat="48.50756" lon="1.46864">
        <ele>166.8</ele>
        <time>2015-04-24T11:10:37.000Z</time>
      </trkpt>
      <trkpt lat="48.50753" lon="1.46867">
        <ele>166.9</ele>
        <time>2015-04-24T11:10:41.000Z</time>
      </trkpt>
      <trkpt lat="48.5075" lon="1.46869">
        <ele>167</ele>
        <time>2015-04-24T11:10:43.000Z</time>
      </trkpt>
      <trkpt lat="48.5075" lon="1.46874">
        <ele>167</ele>
        <time>2015-04-24T11:10:48.000Z</time>
      </trkpt>
      <trkpt lat="48.5075" lon="1.46875">
        <ele>167</ele>
        <time>2015-04-24T11:10:49.000Z</time>
      </trkpt>
      <trkpt lat="48.50751" lon="1.4688">
        <ele>167</ele>
        <time>2015-04-24T11:10:53.000Z</time>
      </trkpt>
      <trkpt lat="48.50751" lon="1.46881">
        <ele>167</ele>
        <time>2015-04-24T11:10:55.000Z</time>
      </trkpt>
      <trkpt lat="48.50751" lon="1.4688">
        <ele>167</ele>
        <time>2015-04-24T11:10:57.000Z</time>
      </trkpt>
      <trkpt lat="48.5075" lon="1.46873">
        <ele>167</ele>
        <time>2015-04-24T11:11:04.000Z</time>
      </trkpt>
      <trkpt lat="48.5075" lon="1.46869">
        <ele>167</ele>
        <time>2015-04-24T11:11:08.000Z</time>
      </trkpt>
      <trkpt lat="48.50751" lon="1.46868">
        <ele>167</ele>
        <time>2015-04-24T11:11:09.000Z</time>
      </trkpt>
      <trkpt lat="48.50757" lon="1.46865">
        <ele>166.8</ele>
        <time>2015-04-24T11:11:14.000Z</time>
      </trkpt>
      <trkpt lat="48.50757" lon="1.46865">
        <ele>166.8</ele>
        <time>2015-04-24T11:11:16.000Z</time>
      </trkpt>
      <trkpt lat="48.50758" lon="1.46866">
        <ele>166.8</ele>
        <time>2015-04-24T11:11:22.000Z</time>
      </trkpt>
      <trkpt lat="48.50758" lon="1.46866">
        <ele>166.8</ele>
        <time>2015-04-24T11:11:30.000Z</time>
      </trkpt>
      <trkpt lat="48.50757" lon="1.46866">
        <ele>166.8</ele>
        <time>2015-04-24T11:11:35.000Z</time>
      </trkpt>
      <trkpt lat="48.50757" lon="1.46865">
        <ele>166.8</ele>
        <time>2015-04-24T11:11:41.000Z</time>
      </trkpt>
      <trkpt lat="48.50756" lon="1.46865">
        <ele>166.8</ele>
        <time>2015-04-24T11:11:47.000Z</time>
      </trkpt>
      <trkpt lat="48.50755" lon="1.46866">
        <ele>166.9</ele>
        <time>2015-04-24T11:11:48.000Z</time>
      </trkpt>
      <trkpt lat="48.50752" lon="1.46867">
        <ele>167</ele>
        <time>2015-04-24T11:11:52.000Z</time>
      </trkpt>
      <trkpt lat="48.50748" lon="1.4687">
        <ele>167</ele>
        <time>2015-04-24T11:11:55.000Z</time>
      </trkpt>
      <trkpt lat="48.50748" lon="1.46874">
        <ele>167</ele>
        <time>2015-04-24T11:11:58.000Z</time>
      </trkpt>
      <trkpt lat="48.50751" lon="1.46881">
        <ele>167</ele>
        <time>2015-04-24T11:12:04.000Z</time>
      </trkpt>
      <trkpt lat="48.50753" lon="1.46883">
        <ele>167</ele>
        <time>2015-04-24T11:12:09.000Z</time>
      </trkpt>
      <trkpt lat="48.50753" lon="1.46881">
        <ele>167</ele>
        <time>2015-04-24T11:12:15.000Z</time>
      </trkpt>
      <trkpt lat="48.50752" lon="1.46881">
        <ele>167</ele>
        <time>2015-04-24T11:12:23.000Z</time>
      </trkpt>
      <trkpt lat="48.5075" lon="1.4688">
        <ele>167</ele>
        <time>2015-04-24T11:12:31.000Z</time>
      </trkpt>
      <trkpt lat="48.5075" lon="1.46879">
        <ele>167</ele>
        <time>2015-04-24T11:12:34.000Z</time>
      </trkpt>
      <trkpt lat="48.5075" lon="1.46875">
        <ele>167</ele>
        <time>2015-04-24T11:12:36.000Z</time>
      </trkpt>
      <trkpt lat="48.50748" lon="1.46868">
        <ele>167</ele>
        <time>2015-04-24T11:12:40.000Z</time>
      </trkpt>
      <trkpt lat="48.50747" lon="1.46864">
        <ele>167</ele>
        <time>2015-04-24T11:12:45.000Z</time>
      </trkpt>
      <trkpt lat="48.50748" lon="1.46862">
        <ele>167</ele>
        <time>2015-04-24T11:12:46.000Z</time>
      </trkpt>
      <trkpt lat="48.50751" lon="1.4686">
        <ele>167</ele>
        <time>2015-04-24T11:12:50.000Z</time>
      </trkpt>
      <trkpt lat="48.50757" lon="1.46858">
        <ele>166.8</ele>
        <time>2015-04-24T11:12:56.000Z</time>
      </trkpt>
      <trkpt lat="48.50759" lon="1.46858">
        <ele>166.7</ele>
        <time>2015-04-24T11:13:02.000Z</time>
      </trkpt>
      <trkpt lat="48.50759" lon="1.46858">
        <ele>166.7</ele>
        <time>2015-04-24T11:13:03.000Z</time>
      </trkpt>
      <trkpt lat="48.50761" lon="1.46858">
        <ele>166.6</ele>
        <time>2015-04-24T11:13:10.000Z</time>
      </trkpt>
      <trkpt lat="48.50761" lon="1.46859">
        <ele>166.6</ele>
        <time>2015-04-24T11:13:17.000Z</time>
      </trkpt>
      <trkpt lat="48.50761" lon="1.46861">
        <ele>166.6</ele>
        <time>2015-04-24T11:13:26.000Z</time>
      </trkpt>
      <trkpt lat="48.50763" lon="1.4686">
        <ele>166.6</ele>
        <time>2015-04-24T11:13:34.000Z</time>
      </trkpt>
      <trkpt lat="48.50768" lon="1.46857">
        <ele>166.4</ele>
        <time>2015-04-24T11:13:40.000Z</time>
      </trkpt>
      <trkpt lat="48.50769" lon="1.46857">
        <ele>166.4</ele>
        <time>2015-04-24T11:13:45.000Z</time>
      </trkpt>
      <trkpt lat="48.50767" lon="1.46863">
        <ele>166.4</ele>
        <time>2015-04-24T11:13:49.000Z</time>
      </trkpt>
      <trkpt lat="48.50769" lon="1.46862">
        <ele>166.3</ele>
        <time>2015-04-24T11:13:51.000Z</time>
      </trkpt>
      <trkpt lat="48.50775" lon="1.46857">
        <ele>166.2</ele>
        <time>2015-04-24T11:13:55.000Z</time>
      </trkpt>
      <trkpt lat="48.50777" lon="1.46856">
        <ele>166.2</ele>
        <time>2015-04-24T11:13:57.000Z</time>
      </trkpt>
      <trkpt lat="48.50777" lon="1.46858">
        <ele>166.1</ele>
        <time>2015-04-24T11:14:00.000Z</time>
      </trkpt>
      <trkpt lat="48.50777" lon="1.46859">
        <ele>166.1</ele>
        <time>2015-04-24T11:14:01.000Z</time>
      </trkpt>
      <trkpt lat="48.50778" lon="1.46859">
        <ele>166.1</ele>
        <time>2015-04-24T11:14:05.000Z</time>
      </trkpt>
      <trkpt lat="48.5078" lon="1.46859">
        <ele>166.1</ele>
        <time>2015-04-24T11:14:06.000Z</time>
      </trkpt>
      <trkpt lat="48.50783" lon="1.46861">
        <ele>166</ele>
        <time>2015-04-24T11:14:11.000Z</time>
      </trkpt>
      <trkpt lat="48.50782" lon="1.46862">
        <ele>166</ele>
        <time>2015-04-24T11:14:16.000Z</time>
      </trkpt>
      <trkpt lat="48.50785" lon="1.46861">
        <ele>166</ele>
        <time>2015-04-24T11:14:22.000Z</time>
      </trkpt>
      <trkpt lat="48.50785" lon="1.46861">
        <ele>166</ele>
        <time>2015-04-24T11:14:28.000Z</time>
      </trkpt>
      <trkpt lat="48.5079" lon="1.46861">
        <ele>166</ele>
        <time>2015-04-24T11:14:33.000Z</time>
      </trkpt>
      <trkpt lat="48.5079" lon="1.4686">
        <ele>166</ele>
        <time>2015-04-24T11:14:38.000Z</time>
      </trkpt>
      <trkpt lat="48.50786" lon="1.46852">
        <ele>166.2</ele>
        <time>2015-04-24T11:14:45.000Z</time>
      </trkpt>
      <trkpt lat="48.50784" lon="1.46852">
        <ele>166.3</ele>
        <time>2015-04-24T11:14:46.000Z</time>
      </trkpt>
      <trkpt lat="48.50778" lon="1.46852">
        <ele>166.3</ele>
        <time>2015-04-24T11:14:50.000Z</time>
      </trkpt>
      <trkpt lat="48.50776" lon="1.46853">
        <ele>166.3</ele>
        <time>2015-04-24T11:14:51.000Z</time>
      </trkpt>
      <trkpt lat="48.50774" lon="1.46852">
        <ele>166.4</ele>
        <time>2015-04-24T11:14:56.000Z</time>
      </trkpt>
      <trkpt lat="48.50769" lon="1.46853">
        <ele>166.5</ele>
        <time>2015-04-24T11:15:02.000Z</time>
      </trkpt>
      <trkpt lat="48.50765" lon="1.46854">
        <ele>166.6</ele>
        <time>2015-04-24T11:15:09.000Z</time>
      </trkpt>
      <trkpt lat="48.50764" lon="1.46856">
        <ele>166.6</ele>
        <time>2015-04-24T11:15:18.000Z</time>
      </trkpt>
      <trkpt lat="48.50763" lon="1.46855">
        <ele>166.6</ele>
        <time>2015-04-24T11:15:27.000Z</time>
      </trkpt>
      <trkpt lat="48.50764" lon="1.46854">
        <ele>166.6</ele>
        <time>2015-04-24T11:15:39.000Z</time>
      </trkpt>
      <trkpt lat="48.50765" lon="1.46854">
        <ele>166.6</ele>
        <time>2015-04-24T11:15:48.000Z</time>
      </trkpt>
      <trkpt lat="48.50765" lon="1.46853">
        <ele>166.6</ele>
        <time>2015-04-24T11:15:56.000Z</time>
      </trkpt>
      <trkpt lat="48.50767" lon="1.46855">
        <ele>166.5</ele>
        <time>2015-04-24T11:16:03.000Z</time>
      </trkpt>
      <trkpt lat="48.50767" lon="1.46855">
        <ele>166.5</ele>
        <time>2015-04-24T11:16:09.000Z</time>
      </trkpt>
      <trkpt lat="48.50811" lon="1.46899">
        <ele>166</ele>
        <time>2015-04-24T12:34:11.000Z</time>
      </trkpt>
      <trkpt lat="48.5081" lon="1.46898">
        <ele>166</ele>
        <time>2015-04-24T12:34:15.000Z</time>
      </trkpt>
      <trkpt lat="48.50807" lon="1.4689">
        <ele>166</ele>
        <time>2015-04-24T12:34:20.000Z</time>
      </trkpt>
      <trkpt lat="48.50807" lon="1.46888">
        <ele>166</ele>
        <time>2015-04-24T12:34:21.000Z</time>
      </trkpt>
      <trkpt lat="48.50811" lon="1.46882">
        <ele>166</ele>
        <time>2015-04-24T12:34:26.000Z</time>
      </trkpt>
      <trkpt lat="48.50813" lon="1.46878">
        <ele>166</ele>
        <time>2015-04-24T12:34:29.000Z</time>
      </trkpt>
      <trkpt lat="48.50812" lon="1.46873">
        <ele>166</ele>
        <time>2015-04-24T12:34:32.000Z</time>
      </trkpt>
      <trkpt lat="48.5081" lon="1.46868">
        <ele>166</ele>
        <time>2015-04-24T12:34:37.000Z</time>
      </trkpt>
      <trkpt lat="48.50809" lon="1.46866">
        <ele>166</ele>
        <time>2015-04-24T12:34:43.000Z</time>
      </trkpt>
      <trkpt lat="48.50809" lon="1.46862">
        <ele>166</ele>
        <time>2015-04-24T12:34:49.000Z</time>
      </trkpt>
      <trkpt lat="48.50808" lon="1.4686">
        <ele>166</ele>
        <time>2015-04-24T12:34:55.000Z</time>
      </trkpt>
      <trkpt lat="48.50807" lon="1.46859">
        <ele>166</ele>
        <time>2015-04-24T12:35:01.000Z</time>
      </trkpt>
      <trkpt lat="48.50805" lon="1.46858">
        <ele>166</ele>
        <time>2015-04-24T12:35:10.000Z</time>
      </trkpt>
      <trkpt lat="48.50804" lon="1.46858">
        <ele>166</ele>
        <time>2015-04-24T12:35:19.000Z</time>
      </trkpt>
      <trkpt lat="48.50803" lon="1.4686">
        <ele>166</ele>
        <time>2015-04-24T12:35:23.000Z</time>
      </trkpt>
      <trkpt lat="48.50803" lon="1.46861">
        <ele>166</ele>
        <time>2015-04-24T12:35:29.000Z</time>
      </trkpt>
      <trkpt lat="48.50803" lon="1.4686">
        <ele>166</ele>
        <time>2015-04-24T12:35:30.000Z</time>
      </trkpt>
      <trkpt lat="48.50803" lon="1.46857">
        <ele>166</ele>
        <time>2015-04-24T12:35:35.000Z</time>
      </trkpt>
      <trkpt lat="48.50802" lon="1.46858">
        <ele>166</ele>
        <time>2015-04-24T12:35:44.000Z</time>
      </trkpt>
      <trkpt lat="48.50799" lon="1.46857">
        <ele>166</ele>
        <time>2015-04-24T12:35:54.000Z</time>
      </trkpt>
      <trkpt lat="48.50799" lon="1.46857">
        <ele>166</ele>
        <time>2015-04-24T12:35:58.000Z</time>
      </trkpt>
      <trkpt lat="48.50794" lon="1.4686">
        <ele>166</ele>
        <time>2015-04-24T12:36:03.000Z</time>
      </trkpt>
      <trkpt lat="48.50793" lon="1.46861">
        <ele>166</ele>
        <time>2015-04-24T12:36:08.000Z</time>
      </trkpt>
      <trkpt lat="48.50794" lon="1.4686">
        <ele>166</ele>
        <time>2015-04-24T12:36:10.000Z</time>
      </trkpt>
      <trkpt lat="48.50795" lon="1.4686">
        <ele>166</ele>
        <time>2015-04-24T12:36:12.000Z</time>
      </trkpt>
      <trkpt lat="48.50793" lon="1.46861">
        <ele>166</ele>
        <time>2015-04-24T12:36:18.000Z</time>
      </trkpt>
      <trkpt lat="48.5079" lon="1.46864">
        <ele>166.1</ele>
        <time>2015-04-24T12:36:22.000Z</time>
      </trkpt>
      <trkpt lat="48.50791" lon="1.46862">
        <ele>166</ele>
        <time>2015-04-24T12:36:27.000Z</time>
      </trkpt>
      <trkpt lat="48.50793" lon="1.46863">
        <ele>166</ele>
        <time>2015-04-24T12:36:31.000Z</time>
      </trkpt>
      <trkpt lat="48.50793" lon="1.46864">
        <ele>166</ele>
        <time>2015-04-24T12:36:33.000Z</time>
      </trkpt>
      <trkpt lat="48.50792" lon="1.46863">
        <ele>166</ele>
        <time>2015-04-24T12:36:39.000Z</time>
      </trkpt>
      <trkpt lat="48.50794" lon="1.46859">
        <ele>166</ele>
        <time>2015-04-24T12:36:42.000Z</time>
      </trkpt>
      <trkpt lat="48.50793" lon="1.46859">
        <ele>166</ele>
        <time>2015-04-24T12:36:43.000Z</time>
      </trkpt>
      <trkpt lat="48.50785" lon="1.46863">
        <ele>166</ele>
        <time>2015-04-24T12:36:48.000Z</time>
      </trkpt>
      <trkpt lat="48.50779" lon="1.46866">
        <ele>166.2</ele>
        <time>2015-04-24T12:36:52.000Z</time>
      </trkpt>
      <trkpt lat="48.50775" lon="1.4687">
        <ele>166.4</ele>
        <time>2015-04-24T12:36:55.000Z</time>
      </trkpt>
      <trkpt lat="48.50765" lon="1.46879">
        <ele>166.8</ele>
        <time>2015-04-24T12:37:02.000Z</time>
      </trkpt>
      <trkpt lat="48.50765" lon="1.4688">
        <ele>166.8</ele>
        <time>2015-04-24T12:37:03.000Z</time>
      </trkpt>
      <trkpt lat="48.50761" lon="1.46881">
        <ele>166.9</ele>
        <time>2015-04-24T12:37:09.000Z</time>
      </trkpt>
      <trkpt lat="48.50757" lon="1.46889">
        <ele>167</ele>
        <time>2015-04-24T12:37:15.000Z</time>
      </trkpt>
      <trkpt lat="48.50756" lon="1.46893">
        <ele>167.1</ele>
        <time>2015-04-24T12:37:17.000Z</time>
      </trkpt>
      <trkpt lat="48.50757" lon="1.46898">
        <ele>167.3</ele>
        <time>2015-04-24T12:37:20.000Z</time>
      </trkpt>
      <trkpt lat="48.50758" lon="1.46902">
        <ele>167.3</ele>
        <time>2015-04-24T12:37:26.000Z</time>
      </trkpt>
      <trkpt lat="48.50757" lon="1.46901">
        <ele>167.3</ele>
        <time>2015-04-24T12:37:27.000Z</time>
      </trkpt>
      <trkpt lat="48.50753" lon="1.46895">
        <ele>167.2</ele>
        <time>2015-04-24T12:37:31.000Z</time>
      </trkpt>
      <trkpt lat="48.50753" lon="1.46889">
        <ele>167</ele>
        <time>2015-04-24T12:37:35.000Z</time>
      </trkpt>
      <trkpt lat="48.50753" lon="1.46889">
        <ele>167</ele>
        <time>2015-04-24T12:37:36.000Z</time>
      </trkpt>
      <trkpt lat="48.50755" lon="1.46888">
        <ele>167</ele>
        <time>2015-04-24T12:37:38.000Z</time>
      </trkpt>
      <trkpt lat="48.50755" lon="1.46888">
        <ele>167</ele>
        <time>2015-04-24T12:37:42.000Z</time>
      </trkpt>
      <trkpt lat="48.50754" lon="1.46885">
        <ele>167</ele>
        <time>2015-04-24T12:37:51.000Z</time>
      </trkpt>
      <trkpt lat="48.50753" lon="1.46884">
        <ele>167</ele>
        <time>2015-04-24T12:37:52.000Z</time>
      </trkpt>
      <trkpt lat="48.50752" lon="1.46879">
        <ele>167</ele>
        <time>2015-04-24T12:37:55.000Z</time>
      </trkpt>
      <trkpt lat="48.50751" lon="1.46878">
        <ele>167</ele>
        <time>2015-04-24T12:37:57.000Z</time>
      </trkpt>
      <trkpt lat="48.50748" lon="1.4687">
        <ele>167</ele>
        <time>2015-04-24T12:38:04.000Z</time>
      </trkpt>
      <trkpt lat="48.50748" lon="1.46867">
        <ele>167</ele>
        <time>2015-04-24T12:38:10.000Z</time>
      </trkpt>
      <trkpt lat="48.50749" lon="1.46867">
        <ele>167</ele>
        <time>2015-04-24T12:38:16.000Z</time>
      </trkpt>
      <trkpt lat="48.50753" lon="1.46866">
        <ele>166.9</ele>
        <time>2015-04-24T12:38:21.000Z</time>
      </trkpt>
      <trkpt lat="48.5076" lon="1.46862">
        <ele>166.7</ele>
        <time>2015-04-24T12:38:29.000Z</time>
      </trkpt>
      <trkpt lat="48.50765" lon="1.46859">
        <ele>166.5</ele>
        <time>2015-04-24T12:38:34.000Z</time>
      </trkpt>
      <trkpt lat="48.50766" lon="1.46859">
        <ele>166.5</ele>
        <time>2015-04-24T12:38:39.000Z</time>
      </trkpt>
      <trkpt lat="48.50769" lon="1.46858">
        <ele>166.4</ele>
        <time>2015-04-24T12:38:42.000Z</time>
      </trkpt>
      <trkpt lat="48.5077" lon="1.46858">
        <ele>166.4</ele>
        <time>2015-04-24T12:38:43.000Z</time>
      </trkpt>
      <trkpt lat="48.50772" lon="1.46855">
        <ele>166.4</ele>
        <time>2015-04-24T12:38:47.000Z</time>
      </trkpt>
      <trkpt lat="48.50774" lon="1.46854">
        <ele>166.3</ele>
        <time>2015-04-24T12:38:49.000Z</time>
      </trkpt>
      <trkpt lat="48.5078" lon="1.4685">
        <ele>166.4</ele>
        <time>2015-04-24T12:38:56.000Z</time>
      </trkpt>
      <trkpt lat="48.50779" lon="1.46848">
        <ele>166.5</ele>
        <time>2015-04-24T12:39:01.000Z</time>
      </trkpt>
      <trkpt lat="48.50773" lon="1.4685">
        <ele>166.5</ele>
        <time>2015-04-24T12:39:06.000Z</time>
      </trkpt>
      <trkpt lat="48.50767" lon="1.46854">
        <ele>166.5</ele>
        <time>2015-04-24T12:39:12.000Z</time>
      </trkpt>
      <trkpt lat="48.50758" lon="1.46861">
        <ele>166.7</ele>
        <time>2015-04-24T12:39:20.000Z</time>
      </trkpt>
      <trkpt lat="48.50748" lon="1.46867">
        <ele>167</ele>
        <time>2015-04-24T12:39:28.000Z</time>
      </trkpt>
      <trkpt lat="48.50747" lon="1.4687">
        <ele>167</ele>
        <time>2015-04-24T12:39:30.000Z</time>
      </trkpt>
      <trkpt lat="48.50748" lon="1.46874">
        <ele>167</ele>
        <time>2015-04-24T12:39:33.000Z</time>
      </trkpt>
      <trkpt lat="48.50749" lon="1.46876">
        <ele>167</ele>
        <time>2015-04-24T12:39:39.000Z</time>
      </trkpt>
      <trkpt lat="48.50749" lon="1.46878">
        <ele>167</ele>
        <time>2015-04-24T12:39:45.000Z</time>
      </trkpt>
      <trkpt lat="48.5075" lon="1.4688">
        <ele>167</ele>
        <time>2015-04-24T12:39:47.000Z</time>
      </trkpt>
      <trkpt lat="48.50752" lon="1.46882">
        <ele>167</ele>
        <time>2015-04-24T12:39:50.000Z</time>
      </trkpt>
      <trkpt lat="48.50752" lon="1.46882">
        <ele>167</ele>
        <time>2015-04-24T12:39:56.000Z</time>
      </trkpt>
      <trkpt lat="48.50752" lon="1.46884">
        <ele>167</ele>
        <time>2015-04-24T12:40:05.000Z</time>
      </trkpt>
      <trkpt lat="48.5075" lon="1.46884">
        <ele>167</ele>
        <time>2015-04-24T12:40:15.000Z</time>
      </trkpt>
      <trkpt lat="48.50749" lon="1.46884">
        <ele>167</ele>
        <time>2015-04-24T12:40:24.000Z</time>
      </trkpt>
      <trkpt lat="48.50745" lon="1.46885">
        <ele>167</ele>
        <time>2015-04-24T12:40:33.000Z</time>
      </trkpt>
      <trkpt lat="48.50745" lon="1.46885">
        <ele>167</ele>
        <time>2015-04-24T12:40:40.000Z</time>
      </trkpt>
      <trkpt lat="48.50746" lon="1.4688">
        <ele>167</ele>
        <time>2015-04-24T12:40:49.000Z</time>
      </trkpt>
      <trkpt lat="48.50745" lon="1.46878">
        <ele>167</ele>
        <time>2015-04-24T12:40:51.000Z</time>
      </trkpt>
      <trkpt lat="48.50745" lon="1.46876">
        <ele>167</ele>
        <time>2015-04-24T12:40:54.000Z</time>
      </trkpt>
      <trkpt lat="48.50746" lon="1.46879">
        <ele>167</ele>
        <time>2015-04-24T12:41:04.000Z</time>
      </trkpt>
      <trkpt lat="48.50748" lon="1.46881">
        <ele>167</ele>
        <time>2015-04-24T12:41:10.000Z</time>
      </trkpt>
      <trkpt lat="48.50749" lon="1.46882">
        <ele>167</ele>
        <time>2015-04-24T12:41:17.000Z</time>
      </trkpt>
      <trkpt lat="48.50751" lon="1.46882">
        <ele>167</ele>
        <time>2015-04-24T12:41:24.000Z</time>
      </trkpt>
      <trkpt lat="48.50751" lon="1.46883">
        <ele>167</ele>
        <time>2015-04-24T12:41:30.000Z</time>
      </trkpt>
      <trkpt lat="48.50752" lon="1.46885">
        <ele>167</ele>
        <time>2015-04-24T12:41:36.000Z</time>
      </trkpt>
      <trkpt lat="48.50751" lon="1.46885">
        <ele>167</ele>
        <time>2015-04-24T12:41:42.000Z</time>
      </trkpt>
      <trkpt lat="48.50749" lon="1.46885">
        <ele>167</ele>
        <time>2015-04-24T12:41:48.000Z</time>
      </trkpt>
      <trkpt lat="48.50748" lon="1.46887">
        <ele>167</ele>
        <time>2015-04-24T12:41:56.000Z</time>
      </trkpt>
      <trkpt lat="48.5075" lon="1.46889">
        <ele>167</ele>
        <time>2015-04-24T12:42:02.000Z</time>
      </trkpt>
      <trkpt lat="48.50752" lon="1.4689">
        <ele>167</ele>
        <time>2015-04-24T12:42:10.000Z</time>
      </trkpt>
      <trkpt lat="48.50751" lon="1.46891">
        <ele>167.1</ele>
        <time>2015-04-24T12:42:16.000Z</time>
      </trkpt>
      <trkpt lat="48.50751" lon="1.46891">
        <ele>167.1</ele>
        <time>2015-04-24T12:42:17.000Z</time>
      </trkpt>
      <trkpt lat="48.50751" lon="1.46893">
        <ele>167.2</ele>
        <time>2015-04-24T12:42:26.000Z</time>
      </trkpt>
      <trkpt lat="48.50753" lon="1.46896">
        <ele>167.2</ele>
        <time>2015-04-24T12:42:32.000Z</time>
      </trkpt>
      <trkpt lat="48.50756" lon="1.469">
        <ele>167.3</ele>
        <time>2015-04-24T12:42:39.000Z</time>
      </trkpt>
      <trkpt lat="48.50757" lon="1.46901">
        <ele>167.3</ele>
        <time>2015-04-24T12:42:44.000Z</time>
      </trkpt>
      <trkpt lat="48.50758" lon="1.46902">
        <ele>167.3</ele>
        <time>2015-04-24T12:42:50.000Z</time>
      </trkpt>
      <trkpt lat="48.50759" lon="1.46905">
        <ele>167.4</ele>
        <time>2015-04-24T12:42:55.000Z</time>
      </trkpt>
      <trkpt lat="48.5076" lon="1.46908">
        <ele>167.5</ele>
        <time>2015-04-24T12:43:01.000Z</time>
      </trkpt>
      <trkpt lat="48.5076" lon="1.46909">
        <ele>167.5</ele>
        <time>2015-04-24T12:43:09.000Z</time>
      </trkpt>
      <trkpt lat="48.5076" lon="1.4691">
        <ele>167.5</ele>
        <time>2015-04-24T12:43:17.000Z</time>
      </trkpt>
      <trkpt lat="48.50761" lon="1.46912">
        <ele>167.5</ele>
        <time>2015-04-24T12:43:22.000Z</time>
      </trkpt>
      <trkpt lat="48.50761" lon="1.46915">
        <ele>167.6</ele>
        <time>2015-04-24T12:43:27.000Z</time>
      </trkpt>
      <trkpt lat="48.50759" lon="1.46915">
        <ele>167.6</ele>
        <time>2015-04-24T12:43:30.000Z</time>
      </trkpt>
      <trkpt lat="48.50758" lon="1.46916">
        <ele>167.7</ele>
        <time>2015-04-24T12:43:33.000Z</time>
      </trkpt>
      <trkpt lat="48.50759" lon="1.46918">
        <ele>167.6</ele>
        <time>2015-04-24T12:43:38.000Z</time>
      </trkpt>
      <trkpt lat="48.50761" lon="1.46919">
        <ele>167.5</ele>
        <time>2015-04-24T12:43:43.000Z</time>
      </trkpt>
      <trkpt lat="48.50764" lon="1.46915">
        <ele>167.5</ele>
        <time>2015-04-24T12:43:49.000Z</time>
      </trkpt>
      <trkpt lat="48.50765" lon="1.46916">
        <ele>167.4</ele>
        <time>2015-04-24T12:43:50.000Z</time>
      </trkpt>
      <trkpt lat="48.50766" lon="1.46917">
        <ele>167.4</ele>
        <time>2015-04-24T12:43:53.000Z</time>
      </trkpt>
      <trkpt lat="48.50767" lon="1.46917">
        <ele>167.4</ele>
        <time>2015-04-24T12:43:55.000Z</time>
      </trkpt>
      <trkpt lat="48.50765" lon="1.46913">
        <ele>167.4</ele>
        <time>2015-04-24T12:43:57.000Z</time>
      </trkpt>
      <trkpt lat="48.50764" lon="1.46911">
        <ele>167.4</ele>
        <time>2015-04-24T12:44:01.000Z</time>
      </trkpt>
      <trkpt lat="48.50762" lon="1.4691">
        <ele>167.4</ele>
        <time>2015-04-24T12:44:07.000Z</time>
      </trkpt>
      <trkpt lat="48.50763" lon="1.4691">
        <ele>167.4</ele>
        <time>2015-04-24T12:44:15.000Z</time>
      </trkpt>
      <trkpt lat="48.50762" lon="1.46911">
        <ele>167.5</ele>
        <time>2015-04-24T12:44:21.000Z</time>
      </trkpt>
      <trkpt lat="48.50763" lon="1.46912">
        <ele>167.5</ele>
        <time>2015-04-24T12:44:27.000Z</time>
      </trkpt>
      <trkpt lat="48.50764" lon="1.46912">
        <ele>167.4</ele>
        <time>2015-04-24T12:44:33.000Z</time>
      </trkpt>
      <trkpt lat="48.50761" lon="1.46908">
        <ele>167.4</ele>
        <time>2015-04-24T12:44:39.000Z</time>
      </trkpt>
      <trkpt lat="48.50758" lon="1.46906">
        <ele>167.5</ele>
        <time>2015-04-24T12:44:47.000Z</time>
      </trkpt>
      <trkpt lat="48.50758" lon="1.46906">
        <ele>167.5</ele>
        <time>2015-04-24T12:44:52.000Z</time>
      </trkpt>
      <trkpt lat="48.50756" lon="1.46902">
        <ele>167.4</ele>
        <time>2015-04-24T12:44:57.000Z</time>
      </trkpt>
      <trkpt lat="48.50754" lon="1.46899">
        <ele>167.3</ele>
        <time>2015-04-24T12:45:03.000Z</time>
      </trkpt>
      <trkpt lat="48.50754" lon="1.46896">
        <ele>167.2</ele>
        <time>2015-04-24T12:45:09.000Z</time>
      </trkpt>
      <trkpt lat="48.50755" lon="1.46895">
        <ele>167.2</ele>
        <time>2015-04-24T12:45:14.000Z</time>
      </trkpt>
      <trkpt lat="48.50755" lon="1.46895">
        <ele>167.2</ele>
        <time>2015-04-24T12:45:20.000Z</time>
      </trkpt>
      <trkpt lat="48.50755" lon="1.46895">
        <ele>167.2</ele>
        <time>2015-04-24T12:45:25.000Z</time>
      </trkpt>
      <trkpt lat="48.50756" lon="1.46896">
        <ele>167.2</ele>
        <time>2015-04-24T12:45:32.000Z</time>
      </trkpt>
      <trkpt lat="48.50753" lon="1.46889">
        <ele>167</ele>
        <time>2015-04-24T12:45:38.000Z</time>
      </trkpt>
      <trkpt lat="48.50751" lon="1.46884">
        <ele>167</ele>
        <time>2015-04-24T12:45:44.000Z</time>
      </trkpt>
      <trkpt lat="48.50749" lon="1.46881">
        <ele>167</ele>
        <time>2015-04-24T12:45:51.000Z</time>
      </trkpt>
      <trkpt lat="48.50749" lon="1.46879">
        <ele>167</ele>
        <time>2015-04-24T12:45:58.000Z</time>
      </trkpt>
      <trkpt lat="48.50747" lon="1.46877">
        <ele>167</ele>
        <time>2015-04-24T12:46:06.000Z</time>
      </trkpt>
      <trkpt lat="48.50747" lon="1.46879">
        <ele>167</ele>
        <time>2015-04-24T12:46:16.000Z</time>
      </trkpt>
      <trkpt lat="48.50749" lon="1.4688">
        <ele>167</ele>
        <time>2015-04-24T12:46:29.000Z</time>
      </trkpt>
      <trkpt lat="48.5075" lon="1.46882">
        <ele>167</ele>
        <time>2015-04-24T12:46:36.000Z</time>
      </trkpt>
      <trkpt lat="48.5075" lon="1.46884">
        <ele>167</ele>
        <time>2015-04-24T12:46:43.000Z</time>
      </trkpt>
      <trkpt lat="48.5075" lon="1.46884">
        <ele>167</ele>
        <time>2015-04-24T12:46:49.000Z</time>
      </trkpt>
      <trkpt lat="48.50749" lon="1.46883">
        <ele>167</ele>
        <time>2015-04-24T12:46:57.000Z</time>
      </trkpt>
      <trkpt lat="48.50749" lon="1.46882">
        <ele>167</ele>
        <time>2015-04-24T12:47:08.000Z</time>
      </trkpt>
      <trkpt lat="48.50749" lon="1.46884">
        <ele>167</ele>
        <time>2015-04-24T12:47:15.000Z</time>
      </trkpt>
      <trkpt lat="48.50749" lon="1.46885">
        <ele>167</ele>
        <time>2015-04-24T12:47:21.000Z</time>
      </trkpt>
      <trkpt lat="48.50748" lon="1.46884">
        <ele>167</ele>
        <time>2015-04-24T12:47:28.000Z</time>
      </trkpt>
      <trkpt lat="48.50745" lon="1.46886">
        <ele>167</ele>
        <time>2015-04-24T12:47:31.000Z</time>
      </trkpt>
      <trkpt lat="48.50745" lon="1.4689">
        <ele>167</ele>
        <time>2015-04-24T12:47:33.000Z</time>
      </trkpt>
      <trkpt lat="48.5075" lon="1.46898">
        <ele>167.3</ele>
        <time>2015-04-24T12:47:38.000Z</time>
      </trkpt>
      <trkpt lat="48.5075" lon="1.46897">
        <ele>167.3</ele>
        <time>2015-04-24T12:47:42.000Z</time>
      </trkpt>
      <trkpt lat="48.50749" lon="1.46895">
        <ele>167.2</ele>
        <time>2015-04-24T12:47:43.000Z</time>
      </trkpt>
      <trkpt lat="48.50748" lon="1.46886">
        <ele>167</ele>
        <time>2015-04-24T12:47:49.000Z</time>
      </trkpt>
      <trkpt lat="48.50749" lon="1.46884">
        <ele>167</ele>
        <time>2015-04-24T12:47:50.000Z</time>
      </trkpt>
      <trkpt lat="48.5075" lon="1.46878">
        <ele>167</ele>
        <time>2015-04-24T12:47:53.000Z</time>
      </trkpt>
      <trkpt lat="48.5075" lon="1.46876">
        <ele>167</ele>
        <time>2015-04-24T12:47:54.000Z</time>
      </trkpt>
      <trkpt lat="48.50747" lon="1.4687">
        <ele>167</ele>
        <time>2015-04-24T12:47:58.000Z</time>
      </trkpt>
      <trkpt lat="48.50745" lon="1.46871">
        <ele>167</ele>
        <time>2015-04-24T12:47:59.000Z</time>
      </trkpt>
      <trkpt lat="48.50741" lon="1.46872">
        <ele>167</ele>
        <time>2015-04-24T12:48:02.000Z</time>
      </trkpt>
      <trkpt lat="48.5074" lon="1.46873">
        <ele>167</ele>
        <time>2015-04-24T12:48:03.000Z</time>
      </trkpt>
      <trkpt lat="48.50738" lon="1.46874">
        <ele>167</ele>
        <time>2015-04-24T12:48:04.000Z</time>
      </trkpt>
      <trkpt lat="48.50735" lon="1.4688">
        <ele>167</ele>
        <time>2015-04-24T12:48:08.000Z</time>
      </trkpt>
      <trkpt lat="48.50732" lon="1.46883">
        <ele>167</ele>
        <time>2015-04-24T12:48:10.000Z</time>
      </trkpt>
      <trkpt lat="48.50726" lon="1.46891">
        <ele>167</ele>
        <time>2015-04-24T12:48:16.000Z</time>
      </trkpt>
      <trkpt lat="48.50715" lon="1.46904">
        <ele>167.1</ele>
        <time>2015-04-24T12:48:25.000Z</time>
      </trkpt>
      <trkpt lat="48.50708" lon="1.4691">
        <ele>167.1</ele>
        <time>2015-04-24T12:48:32.000Z</time>
      </trkpt>
      <trkpt lat="48.50702" lon="1.46917">
        <ele>167</ele>
        <time>2015-04-24T12:48:38.000Z</time>
      </trkpt>
      <trkpt lat="48.50693" lon="1.46922">
        <ele>167</ele>
        <time>2015-04-24T12:48:45.000Z</time>
      </trkpt>
      <trkpt lat="48.50681" lon="1.46931">
        <ele>167</ele>
        <time>2015-04-24T12:48:55.000Z</time>
      </trkpt>
      <trkpt lat="48.50673" lon="1.46935">
        <ele>167</ele>
        <time>2015-04-24T12:49:01.000Z</time>
      </trkpt>
      <trkpt lat="48.50665" lon="1.4694">
        <ele>167</ele>
        <time>2015-04-24T12:49:08.000Z</time>
      </trkpt>
      <trkpt lat="48.50658" lon="1.46941">
        <ele>167</ele>
        <time>2015-04-24T12:49:14.000Z</time>
      </trkpt>
      <trkpt lat="48.50656" lon="1.46941">
        <ele>167</ele>
        <time>2015-04-24T12:49:15.000Z</time>
      </trkpt>
      <trkpt lat="48.50649" lon="1.46944">
        <ele>167</ele>
        <time>2015-04-24T12:49:21.000Z</time>
      </trkpt>
      <trkpt lat="48.50645" lon="1.46947">
        <ele>167</ele>
        <time>2015-04-24T12:49:24.000Z</time>
      </trkpt>
      <trkpt lat="48.5064" lon="1.4695">
        <ele>167</ele>
        <time>2015-04-24T12:49:28.000Z</time>
      </trkpt>
      <trkpt lat="48.50637" lon="1.46953">
        <ele>167</ele>
        <time>2015-04-24T12:49:31.000Z</time>
      </trkpt>
      <trkpt lat="48.50633" lon="1.46955">
        <ele>166.9</ele>
        <time>2015-04-24T12:49:34.000Z</time>
      </trkpt>
      <trkpt lat="48.50631" lon="1.46956">
        <ele>166.9</ele>
        <time>2015-04-24T12:49:36.000Z</time>
      </trkpt>
      <trkpt lat="48.50629" lon="1.46957">
        <ele>166.8</ele>
        <time>2015-04-24T12:49:42.000Z</time>
      </trkpt>
      <trkpt lat="48.50628" lon="1.46957">
        <ele>166.8</ele>
        <time>2015-04-24T12:49:43.000Z</time>
      </trkpt>
      <trkpt lat="48.50624" lon="1.46959">
        <ele>166.7</ele>
        <time>2015-04-24T12:49:47.000Z</time>
      </trkpt>
      <trkpt lat="48.50614" lon="1.46966">
        <ele>166.3</ele>
        <time>2015-04-24T12:49:56.000Z</time>
      </trkpt>
      <trkpt lat="48.50614" lon="1.46966">
        <ele>166.3</ele>
        <time>2015-04-24T12:50:00.000Z</time>
      </trkpt>
      <trkpt lat="48.50609" lon="1.46968">
        <ele>166.2</ele>
        <time>2015-04-24T12:50:06.000Z</time>
      </trkpt>
      <trkpt lat="48.50602" lon="1.46972">
        <ele>166</ele>
        <time>2015-04-24T12:50:13.000Z</time>
      </trkpt>
      <trkpt lat="48.50598" lon="1.46973">
        <ele>166</ele>
        <time>2015-04-24T12:50:18.000Z</time>
      </trkpt>
      <trkpt lat="48.50587" lon="1.46979">
        <ele>166</ele>
        <time>2015-04-24T12:50:28.000Z</time>
      </trkpt>
      <trkpt lat="48.50581" lon="1.46982">
        <ele>166</ele>
        <time>2015-04-24T12:50:34.000Z</time>
      </trkpt>
      <trkpt lat="48.50579" lon="1.46983">
        <ele>166</ele>
        <time>2015-04-24T12:50:36.000Z</time>
      </trkpt>
      <trkpt lat="48.50568" lon="1.46989">
        <ele>166</ele>
        <time>2015-04-24T12:50:45.000Z</time>
      </trkpt>
      <trkpt lat="48.50558" lon="1.46994">
        <ele>166</ele>
        <time>2015-04-24T12:50:54.000Z</time>
      </trkpt>
      <trkpt lat="48.50549" lon="1.46998">
        <ele>166</ele>
        <time>2015-04-24T12:51:01.000Z</time>
      </trkpt>
      <trkpt lat="48.50536" lon="1.47003">
        <ele>166</ele>
        <time>2015-04-24T12:51:11.000Z</time>
      </trkpt>
      <trkpt lat="48.50535" lon="1.47004">
        <ele>166</ele>
        <time>2015-04-24T12:51:12.000Z</time>
      </trkpt>
      <trkpt lat="48.50526" lon="1.47007">
        <ele>166</ele>
        <time>2015-04-24T12:51:19.000Z</time>
      </trkpt>
      <trkpt lat="48.50515" lon="1.47011">
        <ele>166</ele>
        <time>2015-04-24T12:51:28.000Z</time>
      </trkpt>
      <trkpt lat="48.505" lon="1.47016">
        <ele>166</ele>
        <time>2015-04-24T12:51:39.000Z</time>
      </trkpt>
      <trkpt lat="48.50488" lon="1.47019">
        <ele>165.7</ele>
        <time>2015-04-24T12:51:49.000Z</time>
      </trkpt>
      <trkpt lat="48.50474" lon="1.47023">
        <ele>165.2</ele>
        <time>2015-04-24T12:52:00.000Z</time>
      </trkpt>
      <trkpt lat="48.5047" lon="1.47023">
        <ele>165.1</ele>
        <time>2015-04-24T12:52:03.000Z</time>
      </trkpt>
      <trkpt lat="48.50463" lon="1.47025">
        <ele>164.8</ele>
        <time>2015-04-24T12:52:09.000Z</time>
      </trkpt>
      <trkpt lat="48.50454" lon="1.47028">
        <ele>164.3</ele>
        <time>2015-04-24T12:52:17.000Z</time>
      </trkpt>
      <trkpt lat="48.50443" lon="1.4703">
        <ele>164</ele>
        <time>2015-04-24T12:52:25.000Z</time>
      </trkpt>
      <trkpt lat="48.50431" lon="1.47034">
        <ele>164</ele>
        <time>2015-04-24T12:52:35.000Z</time>
      </trkpt>
      <trkpt lat="48.50417" lon="1.47037">
        <ele>164</ele>
        <time>2015-04-24T12:52:46.000Z</time>
      </trkpt>
      <trkpt lat="48.50402" lon="1.47042">
        <ele>164</ele>
        <time>2015-04-24T12:52:58.000Z</time>
      </trkpt>
      <trkpt lat="48.50391" lon="1.47044">
        <ele>164</ele>
        <time>2015-04-24T12:53:07.000Z</time>
      </trkpt>
      <trkpt lat="48.50381" lon="1.47046">
        <ele>164</ele>
        <time>2015-04-24T12:53:15.000Z</time>
      </trkpt>
      <trkpt lat="48.50377" lon="1.47048">
        <ele>164</ele>
        <time>2015-04-24T12:53:19.000Z</time>
      </trkpt>
      <trkpt lat="48.50376" lon="1.47049">
        <ele>164</ele>
        <time>2015-04-24T12:53:21.000Z</time>
      </trkpt>
      <trkpt lat="48.50369" lon="1.47053">
        <ele>164</ele>
        <time>2015-04-24T12:53:28.000Z</time>
      </trkpt>
      <trkpt lat="48.50359" lon="1.47064">
        <ele>164</ele>
        <time>2015-04-24T12:53:38.000Z</time>
      </trkpt>
      <trkpt lat="48.50351" lon="1.4707">
        <ele>164</ele>
        <time>2015-04-24T12:53:46.000Z</time>
      </trkpt>
      <trkpt lat="48.50346" lon="1.47073">
        <ele>164</ele>
        <time>2015-04-24T12:53:54.000Z</time>
      </trkpt>
      <trkpt lat="48.50345" lon="1.47073">
        <ele>164</ele>
        <time>2015-04-24T12:53:55.000Z</time>
      </trkpt>
      <trkpt lat="48.5034" lon="1.47077">
        <ele>164</ele>
        <time>2015-04-24T12:54:00.000Z</time>
      </trkpt>
      <trkpt lat="48.50331" lon="1.47083">
        <ele>164</ele>
        <time>2015-04-24T12:54:08.000Z</time>
      </trkpt>
      <trkpt lat="48.50321" lon="1.47088">
        <ele>164</ele>
        <time>2015-04-24T12:54:17.000Z</time>
      </trkpt>
      <trkpt lat="48.50309" lon="1.47096">
        <ele>164</ele>
        <time>2015-04-24T12:54:27.000Z</time>
      </trkpt>
      <trkpt lat="48.50298" lon="1.47102">
        <ele>164</ele>
        <time>2015-04-24T12:54:37.000Z</time>
      </trkpt>
      <trkpt lat="48.50286" lon="1.4711">
        <ele>164</ele>
        <time>2015-04-24T12:54:47.000Z</time>
      </trkpt>
      <trkpt lat="48.50277" lon="1.47115">
        <ele>164.1</ele>
        <time>2015-04-24T12:54:55.000Z</time>
      </trkpt>
      <trkpt lat="48.50274" lon="1.47118">
        <ele>164.2</ele>
        <time>2015-04-24T12:55:02.000Z</time>
      </trkpt>
      <trkpt lat="48.50272" lon="1.4712">
        <ele>164.2</ele>
        <time>2015-04-24T12:55:04.000Z</time>
      </trkpt>
      <trkpt lat="48.50265" lon="1.47126">
        <ele>164.3</ele>
        <time>2015-04-24T12:55:10.000Z</time>
      </trkpt>
      <trkpt lat="48.50255" lon="1.47134">
        <ele>164.1</ele>
        <time>2015-04-24T12:55:19.000Z</time>
      </trkpt>
      <trkpt lat="48.50254" lon="1.47135">
        <ele>164.1</ele>
        <time>2015-04-24T12:55:20.000Z</time>
      </trkpt>
      <trkpt lat="48.50242" lon="1.47143">
        <ele>164</ele>
        <time>2015-04-24T12:55:30.000Z</time>
      </trkpt>
      <trkpt lat="48.5023" lon="1.47152">
        <ele>164</ele>
        <time>2015-04-24T12:55:40.000Z</time>
      </trkpt>
      <trkpt lat="48.5022" lon="1.47161">
        <ele>164</ele>
        <time>2015-04-24T12:55:50.000Z</time>
      </trkpt>
      <trkpt lat="48.50211" lon="1.47169">
        <ele>164</ele>
        <time>2015-04-24T12:55:58.000Z</time>
      </trkpt>
      <trkpt lat="48.50203" lon="1.47176">
        <ele>164</ele>
        <time>2015-04-24T12:56:06.000Z</time>
      </trkpt>
      <trkpt lat="48.50193" lon="1.47185">
        <ele>164</ele>
        <time>2015-04-24T12:56:15.000Z</time>
      </trkpt>
      <trkpt lat="48.50183" lon="1.47196">
        <ele>163.6</ele>
        <time>2015-04-24T12:56:25.000Z</time>
      </trkpt>
      <trkpt lat="48.50178" lon="1.47202">
        <ele>163.6</ele>
        <time>2015-04-24T12:56:32.000Z</time>
      </trkpt>
      <trkpt lat="48.50172" lon="1.4721">
        <ele>163.6</ele>
        <time>2015-04-24T12:56:39.000Z</time>
      </trkpt>
      <trkpt lat="48.50163" lon="1.47219">
        <ele>163.8</ele>
        <time>2015-04-24T12:56:48.000Z</time>
      </trkpt>
      <trkpt lat="48.50152" lon="1.47232">
        <ele>163.5</ele>
        <time>2015-04-24T12:56:59.000Z</time>
      </trkpt>
      <trkpt lat="48.50148" lon="1.47237">
        <ele>163.3</ele>
        <time>2015-04-24T12:57:06.000Z</time>
      </trkpt>
      <trkpt lat="48.50143" lon="1.47241">
        <ele>163.2</ele>
        <time>2015-04-24T12:57:15.000Z</time>
      </trkpt>
      <trkpt lat="48.50133" lon="1.47252">
        <ele>163.1</ele>
        <time>2015-04-24T12:57:25.000Z</time>
      </trkpt>
      <trkpt lat="48.50123" lon="1.4726">
        <ele>163.4</ele>
        <time>2015-04-24T12:57:35.000Z</time>
      </trkpt>
      <trkpt lat="48.50114" lon="1.47267">
        <ele>163.6</ele>
        <time>2015-04-24T12:57:43.000Z</time>
      </trkpt>
      <trkpt lat="48.501" lon="1.47276">
        <ele>163.9</ele>
        <time>2015-04-24T12:57:56.000Z</time>
      </trkpt>
      <trkpt lat="48.50089" lon="1.47282">
        <ele>164</ele>
        <time>2015-04-24T12:58:06.000Z</time>
      </trkpt>
      <trkpt lat="48.50083" lon="1.47286">
        <ele>164</ele>
        <time>2015-04-24T12:58:12.000Z</time>
      </trkpt>
      <trkpt lat="48.50078" lon="1.47288">
        <ele>163.9</ele>
        <time>2015-04-24T12:58:16.000Z</time>
      </trkpt>
      <trkpt lat="48.50065" lon="1.47296">
        <ele>163.8</ele>
        <time>2015-04-24T12:58:27.000Z</time>
      </trkpt>
      <trkpt lat="48.50053" lon="1.47302">
        <ele>163.8</ele>
        <time>2015-04-24T12:58:38.000Z</time>
      </trkpt>
      <trkpt lat="48.50043" lon="1.47306">
        <ele>163.6</ele>
        <time>2015-04-24T12:58:46.000Z</time>
      </trkpt>
      <trkpt lat="48.50029" lon="1.47313">
        <ele>163</ele>
        <time>2015-04-24T12:58:58.000Z</time>
      </trkpt>
      <trkpt lat="48.50019" lon="1.47318">
        <ele>163</ele>
        <time>2015-04-24T12:59:06.000Z</time>
      </trkpt>
      <trkpt lat="48.5001" lon="1.47323">
        <ele>163</ele>
        <time>2015-04-24T12:59:14.000Z</time>
      </trkpt>
      <trkpt lat="48.5" lon="1.47327">
        <ele>163</ele>
        <time>2015-04-24T12:59:23.000Z</time>
      </trkpt>
      <trkpt lat="48.49994" lon="1.47329">
        <ele>163</ele>
        <time>2015-04-24T12:59:28.000Z</time>
      </trkpt>
      <trkpt lat="48.49987" lon="1.47331">
        <ele>163</ele>
        <time>2015-04-24T12:59:34.000Z</time>
      </trkpt>
      <trkpt lat="48.49977" lon="1.47335">
        <ele>163</ele>
        <time>2015-04-24T12:59:44.000Z</time>
      </trkpt>
      <trkpt lat="48.49977" lon="1.47335">
        <ele>163</ele>
        <time>2015-04-24T12:59:56.000Z</time>
      </trkpt>
      <trkpt lat="48.49977" lon="1.47335">
        <ele>163</ele>
        <time>2015-04-24T13:00:07.000Z</time>
      </trkpt>
      <trkpt lat="48.49976" lon="1.47334">
        <ele>163</ele>
        <time>2015-04-24T13:00:25.000Z</time>
      </trkpt>
      <trkpt lat="48.49976" lon="1.47334">
        <ele>163</ele>
        <time>2015-04-24T13:00:47.000Z</time>
      </trkpt>
      <trkpt lat="48.49975" lon="1.47334">
        <ele>163</ele>
        <time>2015-04-24T13:01:00.000Z</time>
      </trkpt>
      <trkpt lat="48.49962" lon="1.47337">
        <ele>162.6</ele>
        <time>2015-04-24T13:01:11.000Z</time>
      </trkpt>
      <trkpt lat="48.4996" lon="1.47338">
        <ele>162.6</ele>
        <time>2015-04-24T13:01:13.000Z</time>
      </trkpt>
      <trkpt lat="48.49954" lon="1.47339">
        <ele>162.4</ele>
        <time>2015-04-24T13:01:18.000Z</time>
      </trkpt>
      <trkpt lat="48.49952" lon="1.4734">
        <ele>162.3</ele>
        <time>2015-04-24T13:01:20.000Z</time>
      </trkpt>
      <trkpt lat="48.49945" lon="1.47341">
        <ele>162</ele>
        <time>2015-04-24T13:01:26.000Z</time>
      </trkpt>
      <trkpt lat="48.49935" lon="1.47343">
        <ele>162</ele>
        <time>2015-04-24T13:01:34.000Z</time>
      </trkpt>
      <trkpt lat="48.49924" lon="1.47346">
        <ele>162</ele>
        <time>2015-04-24T13:01:43.000Z</time>
      </trkpt>
      <trkpt lat="48.49919" lon="1.47347">
        <ele>162</ele>
        <time>2015-04-24T13:01:47.000Z</time>
      </trkpt>
      <trkpt lat="48.49912" lon="1.47349">
        <ele>161.8</ele>
        <time>2015-04-24T13:01:53.000Z</time>
      </trkpt>
      <trkpt lat="48.49899" lon="1.47352">
        <ele>161.4</ele>
        <time>2015-04-24T13:02:03.000Z</time>
      </trkpt>
      <trkpt lat="48.49887" lon="1.47355">
        <ele>161</ele>
        <time>2015-04-24T13:02:13.000Z</time>
      </trkpt>
      <trkpt lat="48.49884" lon="1.47355">
        <ele>161</ele>
        <time>2015-04-24T13:02:15.000Z</time>
      </trkpt>
      <trkpt lat="48.49872" lon="1.47359">
        <ele>161</ele>
        <time>2015-04-24T13:02:25.000Z</time>
      </trkpt>
      <trkpt lat="48.49863" lon="1.4736">
        <ele>161</ele>
        <time>2015-04-24T13:02:32.000Z</time>
      </trkpt>
      <trkpt lat="48.49848" lon="1.47363">
        <ele>160.5</ele>
        <time>2015-04-24T13:02:44.000Z</time>
      </trkpt>
      <trkpt lat="48.49845" lon="1.47365">
        <ele>160.4</ele>
        <time>2015-04-24T13:02:47.000Z</time>
      </trkpt>
      <trkpt lat="48.49834" lon="1.47366">
        <ele>160</ele>
        <time>2015-04-24T13:02:55.000Z</time>
      </trkpt>
      <trkpt lat="48.49825" lon="1.47369">
        <ele>160</ele>
        <time>2015-04-24T13:03:03.000Z</time>
      </trkpt>
      <trkpt lat="48.49814" lon="1.47371">
        <ele>160</ele>
        <time>2015-04-24T13:03:13.000Z</time>
      </trkpt>
      <trkpt lat="48.49803" lon="1.47375">
        <ele>160</ele>
        <time>2015-04-24T13:03:22.000Z</time>
      </trkpt>
      <trkpt lat="48.4979" lon="1.47377">
        <ele>160</ele>
        <time>2015-04-24T13:03:32.000Z</time>
      </trkpt>
      <trkpt lat="48.49784" lon="1.47379">
        <ele>160</ele>
        <time>2015-04-24T13:03:37.000Z</time>
      </trkpt>
      <trkpt lat="48.49783" lon="1.4738">
        <ele>160</ele>
        <time>2015-04-24T13:03:40.000Z</time>
      </trkpt>
      <trkpt lat="48.49782" lon="1.47382">
        <ele>160</ele>
        <time>2015-04-24T13:03:48.000Z</time>
      </trkpt>
      <trkpt lat="48.49782" lon="1.47382">
        <ele>160</ele>
        <time>2015-04-24T13:04:06.000Z</time>
      </trkpt>
      <trkpt lat="48.49781" lon="1.47381">
        <ele>160</ele>
        <time>2015-04-24T13:04:15.000Z</time>
      </trkpt>
      <trkpt lat="48.49779" lon="1.47381">
        <ele>160</ele>
        <time>2015-04-24T13:04:17.000Z</time>
      </trkpt>
      <trkpt lat="48.49766" lon="1.47384">
        <ele>159.6</ele>
        <time>2015-04-24T13:04:27.000Z</time>
      </trkpt>
      <trkpt lat="48.49756" lon="1.47387">
        <ele>159.2</ele>
        <time>2015-04-24T13:04:35.000Z</time>
      </trkpt>
      <trkpt lat="48.49744" lon="1.4739">
        <ele>159</ele>
        <time>2015-04-24T13:04:44.000Z</time>
      </trkpt>
      <trkpt lat="48.49743" lon="1.4739">
        <ele>159</ele>
        <time>2015-04-24T13:04:45.000Z</time>
      </trkpt>
      <trkpt lat="48.49732" lon="1.47393">
        <ele>159</ele>
        <time>2015-04-24T13:04:53.000Z</time>
      </trkpt>
      <trkpt lat="48.49717" lon="1.47397">
        <ele>159</ele>
        <time>2015-04-24T13:05:05.000Z</time>
      </trkpt>
      <trkpt lat="48.49703" lon="1.47399">
        <ele>159</ele>
        <time>2015-04-24T13:05:15.000Z</time>
      </trkpt>
      <trkpt lat="48.49693" lon="1.47402">
        <ele>159</ele>
        <time>2015-04-24T13:05:23.000Z</time>
      </trkpt>
      <trkpt lat="48.4968" lon="1.47405">
        <ele>159</ele>
        <time>2015-04-24T13:05:33.000Z</time>
      </trkpt>
      <trkpt lat="48.49669" lon="1.47406">
        <ele>159</ele>
        <time>2015-04-24T13:05:41.000Z</time>
      </trkpt>
      <trkpt lat="48.49652" lon="1.47413">
        <ele>159.1</ele>
        <time>2015-04-24T13:05:54.000Z</time>
      </trkpt>
      <trkpt lat="48.49638" lon="1.47417">
        <ele>159</ele>
        <time>2015-04-24T13:06:04.000Z</time>
      </trkpt>
      <trkpt lat="48.49626" lon="1.47421">
        <ele>159.4</ele>
        <time>2015-04-24T13:06:13.000Z</time>
      </trkpt>
      <trkpt lat="48.49618" lon="1.47424">
        <ele>159.6</ele>
        <time>2015-04-24T13:06:19.000Z</time>
      </trkpt>
      <trkpt lat="48.49617" lon="1.47424">
        <ele>159.6</ele>
        <time>2015-04-24T13:06:20.000Z</time>
      </trkpt>
      <trkpt lat="48.49611" lon="1.47427">
        <ele>159.6</ele>
        <time>2015-04-24T13:06:24.000Z</time>
      </trkpt>
      <trkpt lat="48.49596" lon="1.47434">
        <ele>159.7</ele>
        <time>2015-04-24T13:06:36.000Z</time>
      </trkpt>
      <trkpt lat="48.49579" lon="1.47441">
        <ele>160</ele>
        <time>2015-04-24T13:06:49.000Z</time>
      </trkpt>
      <trkpt lat="48.49565" lon="1.47448">
        <ele>160</ele>
        <time>2015-04-24T13:07:00.000Z</time>
      </trkpt>
      <trkpt lat="48.49551" lon="1.47454">
        <ele>160</ele>
        <time>2015-04-24T13:07:12.000Z</time>
      </trkpt>
      <trkpt lat="48.49539" lon="1.47461">
        <ele>160</ele>
        <time>2015-04-24T13:07:23.000Z</time>
      </trkpt>
      <trkpt lat="48.49528" lon="1.47465">
        <ele>160</ele>
        <time>2015-04-24T13:07:32.000Z</time>
      </trkpt>
      <trkpt lat="48.49518" lon="1.47469">
        <ele>160.3</ele>
        <time>2015-04-24T13:07:40.000Z</time>
      </trkpt>
      <trkpt lat="48.49506" lon="1.47477">
        <ele>160.8</ele>
        <time>2015-04-24T13:07:50.000Z</time>
      </trkpt>
      <trkpt lat="48.49503" lon="1.47478">
        <ele>160.9</ele>
        <time>2015-04-24T13:07:52.000Z</time>
      </trkpt>
      <trkpt lat="48.49497" lon="1.47481">
        <ele>161</ele>
        <time>2015-04-24T13:07:57.000Z</time>
      </trkpt>
      <trkpt lat="48.49485" lon="1.47486">
        <ele>161</ele>
        <time>2015-04-24T13:08:06.000Z</time>
      </trkpt>
      <trkpt lat="48.49473" lon="1.47493">
        <ele>161</ele>
        <time>2015-04-24T13:08:16.000Z</time>
      </trkpt>
      <trkpt lat="48.4946" lon="1.47501">
        <ele>161</ele>
        <time>2015-04-24T13:08:26.000Z</time>
      </trkpt>
      <trkpt lat="48.4945" lon="1.47506">
        <ele>161</ele>
        <time>2015-04-24T13:08:34.000Z</time>
      </trkpt>
      <trkpt lat="48.4944" lon="1.47512">
        <ele>161</ele>
        <time>2015-04-24T13:08:43.000Z</time>
      </trkpt>
      <trkpt lat="48.49428" lon="1.47516">
        <ele>161</ele>
        <time>2015-04-24T13:08:53.000Z</time>
      </trkpt>
      <trkpt lat="48.49416" lon="1.47522">
        <ele>161</ele>
        <time>2015-04-24T13:09:05.000Z</time>
      </trkpt>
      <trkpt lat="48.49414" lon="1.47522">
        <ele>161</ele>
        <time>2015-04-24T13:09:20.000Z</time>
      </trkpt>
      <trkpt lat="48.49407" lon="1.47525">
        <ele>161</ele>
        <time>2015-04-24T13:09:25.000Z</time>
      </trkpt>
      <trkpt lat="48.49404" lon="1.47526">
        <ele>161</ele>
        <time>2015-04-24T13:09:28.000Z</time>
      </trkpt>
      <trkpt lat="48.4939" lon="1.47533">
        <ele>160.8</ele>
        <time>2015-04-24T13:09:39.000Z</time>
      </trkpt>
      <trkpt lat="48.49379" lon="1.47539">
        <ele>160.7</ele>
        <time>2015-04-24T13:09:47.000Z</time>
      </trkpt>
      <trkpt lat="48.49365" lon="1.47546">
        <ele>160.9</ele>
        <time>2015-04-24T13:09:58.000Z</time>
      </trkpt>
      <trkpt lat="48.49351" lon="1.47554">
        <ele>161</ele>
        <time>2015-04-24T13:10:09.000Z</time>
      </trkpt>
      <trkpt lat="48.49339" lon="1.47559">
        <ele>160.9</ele>
        <time>2015-04-24T13:10:18.000Z</time>
      </trkpt>
      <trkpt lat="48.49324" lon="1.47566">
        <ele>160.6</ele>
        <time>2015-04-24T13:10:29.000Z</time>
      </trkpt>
      <trkpt lat="48.49318" lon="1.47569">
        <ele>160.5</ele>
        <time>2015-04-24T13:10:37.000Z</time>
      </trkpt>
      <trkpt lat="48.49318" lon="1.47568">
        <ele>160.5</ele>
        <time>2015-04-24T13:10:56.000Z</time>
      </trkpt>
      <trkpt lat="48.49318" lon="1.47569">
        <ele>160.5</ele>
        <time>2015-04-24T13:11:19.000Z</time>
      </trkpt>
      <trkpt lat="48.49318" lon="1.47569">
        <ele>160.5</ele>
        <time>2015-04-24T13:11:30.000Z</time>
      </trkpt>
      <trkpt lat="48.49313" lon="1.47572">
        <ele>160.4</ele>
        <time>2015-04-24T13:11:36.000Z</time>
      </trkpt>
      <trkpt lat="48.49311" lon="1.47571">
        <ele>160.5</ele>
        <time>2015-04-24T13:11:40.000Z</time>
      </trkpt>
      <trkpt lat="48.49305" lon="1.47574">
        <ele>160.4</ele>
        <time>2015-04-24T13:11:45.000Z</time>
      </trkpt>
      <trkpt lat="48.49291" lon="1.47581">
        <ele>160.6</ele>
        <time>2015-04-24T13:11:56.000Z</time>
      </trkpt>
      <trkpt lat="48.49276" lon="1.47589">
        <ele>160.8</ele>
        <time>2015-04-24T13:12:07.000Z</time>
      </trkpt>
      <trkpt lat="48.49265" lon="1.47594">
        <ele>160.3</ele>
        <time>2015-04-24T13:12:16.000Z</time>
      </trkpt>
      <trkpt lat="48.49252" lon="1.476">
        <ele>160</ele>
        <time>2015-04-24T13:12:26.000Z</time>
      </trkpt>
      <trkpt lat="48.49243" lon="1.47604">
        <ele>160</ele>
        <time>2015-04-24T13:12:33.000Z</time>
      </trkpt>
      <trkpt lat="48.49232" lon="1.47609">
        <ele>160</ele>
        <time>2015-04-24T13:12:41.000Z</time>
      </trkpt>
      <trkpt lat="48.49228" lon="1.47611">
        <ele>160</ele>
        <time>2015-04-24T13:12:44.000Z</time>
      </trkpt>
      <trkpt lat="48.49215" lon="1.47617">
        <ele>159.9</ele>
        <time>2015-04-24T13:12:54.000Z</time>
      </trkpt>
      <trkpt lat="48.49202" lon="1.47622">
        <ele>159.7</ele>
        <time>2015-04-24T13:13:04.000Z</time>
      </trkpt>
      <trkpt lat="48.49188" lon="1.47627">
        <ele>159.3</ele>
        <time>2015-04-24T13:13:14.000Z</time>
      </trkpt>
      <trkpt lat="48.49176" lon="1.47631">
        <ele>159.1</ele>
        <time>2015-04-24T13:13:23.000Z</time>
      </trkpt>
      <trkpt lat="48.49165" lon="1.47634">
        <ele>158.9</ele>
        <time>2015-04-24T13:13:31.000Z</time>
      </trkpt>
      <trkpt lat="48.49164" lon="1.47634">
        <ele>158.9</ele>
        <time>2015-04-24T13:13:32.000Z</time>
      </trkpt>
      <trkpt lat="48.49153" lon="1.47638">
        <ele>158.5</ele>
        <time>2015-04-24T13:13:40.000Z</time>
      </trkpt>
      <trkpt lat="48.49144" lon="1.4764">
        <ele>158.2</ele>
        <time>2015-04-24T13:13:47.000Z</time>
      </trkpt>
      <trkpt lat="48.49132" lon="1.47645">
        <ele>158</ele>
        <time>2015-04-24T13:13:56.000Z</time>
      </trkpt>
      <trkpt lat="48.49121" lon="1.47649">
        <ele>158</ele>
        <time>2015-04-24T13:14:04.000Z</time>
      </trkpt>
      <trkpt lat="48.4911" lon="1.47652">
        <ele>158</ele>
        <time>2015-04-24T13:14:13.000Z</time>
      </trkpt>
      <trkpt lat="48.491" lon="1.47657">
        <ele>157.7</ele>
        <time>2015-04-24T13:14:22.000Z</time>
      </trkpt>
      <trkpt lat="48.49089" lon="1.47662">
        <ele>157.3</ele>
        <time>2015-04-24T13:14:31.000Z</time>
      </trkpt>
      <trkpt lat="48.49075" lon="1.47668">
        <ele>157.3</ele>
        <time>2015-04-24T13:14:43.000Z</time>
      </trkpt>
      <trkpt lat="48.49064" lon="1.47673">
        <ele>157.6</ele>
        <time>2015-04-24T13:14:52.000Z</time>
      </trkpt>
      <trkpt lat="48.49053" lon="1.47678">
        <ele>157.5</ele>
        <time>2015-04-24T13:15:01.000Z</time>
      </trkpt>
      <trkpt lat="48.49046" lon="1.47681">
        <ele>157.3</ele>
        <time>2015-04-24T13:15:07.000Z</time>
      </trkpt>
      <trkpt lat="48.49044" lon="1.47683">
        <ele>157.2</ele>
        <time>2015-04-24T13:15:09.000Z</time>
      </trkpt>
      <trkpt lat="48.49033" lon="1.47688">
        <ele>157</ele>
        <time>2015-04-24T13:15:18.000Z</time>
      </trkpt>
      <trkpt lat="48.49024" lon="1.47693">
        <ele>157.1</ele>
        <time>2015-04-24T13:15:25.000Z</time>
      </trkpt>
      <trkpt lat="48.49017" lon="1.47699">
        <ele>157.3</ele>
        <time>2015-04-24T13:15:31.000Z</time>
      </trkpt>
      <trkpt lat="48.49008" lon="1.47706">
        <ele>157.4</ele>
        <time>2015-04-24T13:15:39.000Z</time>
      </trkpt>
      <trkpt lat="48.49003" lon="1.47711">
        <ele>157.4</ele>
        <time>2015-04-24T13:15:43.000Z</time>
      </trkpt>
      <trkpt lat="48.48997" lon="1.47715">
        <ele>157.2</ele>
        <time>2015-04-24T13:15:48.000Z</time>
      </trkpt>
      <trkpt lat="48.48985" lon="1.47724">
        <ele>157</ele>
        <time>2015-04-24T13:15:58.000Z</time>
      </trkpt>
      <trkpt lat="48.48972" lon="1.47734">
        <ele>157</ele>
        <time>2015-04-24T13:16:08.000Z</time>
      </trkpt>
      <trkpt lat="48.48957" lon="1.47745">
        <ele>157.5</ele>
        <time>2015-04-24T13:16:20.000Z</time>
      </trkpt>
      <trkpt lat="48.48944" lon="1.47753">
        <ele>158</ele>
        <time>2015-04-24T13:16:30.000Z</time>
      </trkpt>
      <trkpt lat="48.4894" lon="1.47755">
        <ele>158</ele>
        <time>2015-04-24T13:16:33.000Z</time>
      </trkpt>
      <trkpt lat="48.48928" lon="1.47762">
        <ele>158</ele>
        <time>2015-04-24T13:16:42.000Z</time>
      </trkpt>
      <trkpt lat="48.48916" lon="1.47767">
        <ele>158</ele>
        <time>2015-04-24T13:16:51.000Z</time>
      </trkpt>
      <trkpt lat="48.48899" lon="1.47775">
        <ele>158</ele>
        <time>2015-04-24T13:17:03.000Z</time>
      </trkpt>
      <trkpt lat="48.48888" lon="1.47779">
        <ele>158</ele>
        <time>2015-04-24T13:17:11.000Z</time>
      </trkpt>
      <trkpt lat="48.48875" lon="1.47785">
        <ele>158</ele>
        <time>2015-04-24T13:17:21.000Z</time>
      </trkpt>
      <trkpt lat="48.48863" lon="1.4779">
        <ele>158</ele>
        <time>2015-04-24T13:17:30.000Z</time>
      </trkpt>
      <trkpt lat="48.48852" lon="1.47797">
        <ele>158</ele>
        <time>2015-04-24T13:17:39.000Z</time>
      </trkpt>
      <trkpt lat="48.48838" lon="1.47803">
        <ele>158</ele>
        <time>2015-04-24T13:17:49.000Z</time>
      </trkpt>
      <trkpt lat="48.48824" lon="1.4781">
        <ele>158</ele>
        <time>2015-04-24T13:18:00.000Z</time>
      </trkpt>
      <trkpt lat="48.48811" lon="1.47816">
        <ele>158</ele>
        <time>2015-04-24T13:18:10.000Z</time>
      </trkpt>
      <trkpt lat="48.48801" lon="1.4782">
        <ele>158</ele>
        <time>2015-04-24T13:18:18.000Z</time>
      </trkpt>
      <trkpt lat="48.48788" lon="1.47826">
        <ele>158</ele>
        <time>2015-04-24T13:18:27.000Z</time>
      </trkpt>
      <trkpt lat="48.48774" lon="1.47832">
        <ele>158</ele>
        <time>2015-04-24T13:18:38.000Z</time>
      </trkpt>
      <trkpt lat="48.48763" lon="1.47837">
        <ele>158</ele>
        <time>2015-04-24T13:18:46.000Z</time>
      </trkpt>
      <trkpt lat="48.4875" lon="1.47842">
        <ele>158</ele>
        <time>2015-04-24T13:18:56.000Z</time>
      </trkpt>
      <trkpt lat="48.48734" lon="1.4785">
        <ele>157.4</ele>
        <time>2015-04-24T13:19:09.000Z</time>
      </trkpt>
      <trkpt lat="48.48723" lon="1.47854">
        <ele>157</ele>
        <time>2015-04-24T13:19:18.000Z</time>
      </trkpt>
      <trkpt lat="48.4872" lon="1.47855">
        <ele>157</ele>
        <time>2015-04-24T13:19:20.000Z</time>
      </trkpt>
      <trkpt lat="48.48713" lon="1.47857">
        <ele>157</ele>
        <time>2015-04-24T13:19:26.000Z</time>
      </trkpt>
      <trkpt lat="48.48708" lon="1.47864">
        <ele>157</ele>
        <time>2015-04-24T13:19:32.000Z</time>
      </trkpt>
      <trkpt lat="48.48708" lon="1.47865">
        <ele>157</ele>
        <time>2015-04-24T13:19:33.000Z</time>
      </trkpt>
      <trkpt lat="48.48708" lon="1.47871">
        <ele>157</ele>
        <time>2015-04-24T13:19:38.000Z</time>
      </trkpt>
      <trkpt lat="48.48709" lon="1.47872">
        <ele>157</ele>
        <time>2015-04-24T13:19:39.000Z</time>
      </trkpt>
      <trkpt lat="48.48711" lon="1.47872">
        <ele>157</ele>
        <time>2015-04-24T13:19:44.000Z</time>
      </trkpt>
      <trkpt lat="48.48711" lon="1.47871">
        <ele>157</ele>
        <time>2015-04-24T13:19:50.000Z</time>
      </trkpt>
      <trkpt lat="48.4871" lon="1.47871">
        <ele>157</ele>
        <time>2015-04-24T13:19:57.000Z</time>
      </trkpt>
      <trkpt lat="48.4871" lon="1.47871">
        <ele>157</ele>
        <time>2015-04-24T13:20:06.000Z</time>
      </trkpt>
      <trkpt lat="48.48709" lon="1.47871">
        <ele>157</ele>
        <time>2015-04-24T13:20:15.000Z</time>
      </trkpt>
      <trkpt lat="48.4871" lon="1.47871">
        <ele>157</ele>
        <time>2015-04-24T13:20:22.000Z</time>
      </trkpt>
      <trkpt lat="48.48709" lon="1.47871">
        <ele>157</ele>
        <time>2015-04-24T13:20:33.000Z</time>
      </trkpt>
      <trkpt lat="48.4871" lon="1.47871">
        <ele>157</ele>
        <time>2015-04-24T13:20:41.000Z</time>
      </trkpt>
      <trkpt lat="48.4871" lon="1.47871">
        <ele>157</ele>
        <time>2015-04-24T13:20:48.000Z</time>
      </trkpt>
      <trkpt lat="48.4871" lon="1.47871">
        <ele>157</ele>
        <time>2015-04-24T13:21:04.000Z</time>
      </trkpt>
      <trkpt lat="48.4871" lon="1.47871">
        <ele>157</ele>
        <time>2015-04-24T13:21:14.000Z</time>
      </trkpt>
      <trkpt lat="48.4871" lon="1.47871">
        <ele>157</ele>
        <time>2015-04-24T13:21:26.000Z</time>
      </trkpt>
      <trkpt lat="48.4871" lon="1.47871">
        <ele>157</ele>
        <time>2015-04-24T13:21:42.000Z</time>
      </trkpt>
      <trkpt lat="48.4871" lon="1.47871">
        <ele>157</ele>
        <time>2015-04-24T13:21:55.000Z</time>
      </trkpt>
      <trkpt lat="48.4871" lon="1.47872">
        <ele>157</ele>
        <time>2015-04-24T13:22:08.000Z</time>
      </trkpt>
      <trkpt lat="48.4871" lon="1.47872">
        <ele>157</ele>
        <time>2015-04-24T13:22:19.000Z</time>
      </trkpt>
      <trkpt lat="48.4871" lon="1.47872">
        <ele>157</ele>
        <time>2015-04-24T13:22:26.000Z</time>
      </trkpt>
      <trkpt lat="48.4871" lon="1.47872">
        <ele>157</ele>
        <time>2015-04-24T13:22:32.000Z</time>
      </trkpt>
      <trkpt lat="48.4871" lon="1.47872">
        <ele>157</ele>
        <time>2015-04-24T13:22:48.000Z</time>
      </trkpt>
      <trkpt lat="48.4871" lon="1.47872">
        <ele>157</ele>
        <time>2015-04-24T13:23:02.000Z</time>
      </trkpt>
      <trkpt lat="48.4871" lon="1.47872">
        <ele>157</ele>
        <time>2015-04-24T13:23:17.000Z</time>
      </trkpt>
      <trkpt lat="48.4871" lon="1.47872">
        <ele>157</ele>
        <time>2015-04-24T13:23:22.000Z</time>
      </trkpt>
      <trkpt lat="48.4871" lon="1.47872">
        <ele>157</ele>
        <time>2015-04-24T13:23:31.000Z</time>
      </trkpt>
      <trkpt lat="48.4871" lon="1.47872">
        <ele>157</ele>
        <time>2015-04-24T13:23:41.000Z</time>
      </trkpt>
      <trkpt lat="48.4871" lon="1.47872">
        <ele>157</ele>
        <time>2015-04-24T13:23:47.000Z</time>
      </trkpt>
      <trkpt lat="48.48709" lon="1.47871">
        <ele>157</ele>
        <time>2015-04-24T13:23:54.000Z</time>
      </trkpt>
      <trkpt lat="48.48708" lon="1.47869">
        <ele>157</ele>
        <time>2015-04-24T13:24:04.000Z</time>
      </trkpt>
      <trkpt lat="48.48708" lon="1.4787">
        <ele>157</ele>
        <time>2015-04-24T13:24:08.000Z</time>
      </trkpt>
      <trkpt lat="48.48705" lon="1.47868">
        <ele>157</ele>
        <time>2015-04-24T13:24:13.000Z</time>
      </trkpt>
      <trkpt lat="48.48704" lon="1.47866">
        <ele>157</ele>
        <time>2015-04-24T13:24:14.000Z</time>
      </trkpt>
      <trkpt lat="48.487" lon="1.47865">
        <ele>157</ele>
        <time>2015-04-24T13:24:17.000Z</time>
      </trkpt>
      <trkpt lat="48.48693" lon="1.47864">
        <ele>157</ele>
        <time>2015-04-24T13:24:23.000Z</time>
      </trkpt>
      <trkpt lat="48.48692" lon="1.47863">
        <ele>156.9</ele>
        <time>2015-04-24T13:24:24.000Z</time>
      </trkpt>
      <trkpt lat="48.48682" lon="1.47862">
        <ele>156.6</ele>
        <time>2015-04-24T13:24:32.000Z</time>
      </trkpt>
      <trkpt lat="48.48681" lon="1.47862">
        <ele>156.5</ele>
        <time>2015-04-24T13:24:33.000Z</time>
      </trkpt>
      <trkpt lat="48.48676" lon="1.47863">
        <ele>156.3</ele>
        <time>2015-04-24T13:24:37.000Z</time>
      </trkpt>
      <trkpt lat="48.4867" lon="1.47862">
        <ele>156.1</ele>
        <time>2015-04-24T13:24:41.000Z</time>
      </trkpt>
      <trkpt lat="48.48663" lon="1.47862">
        <ele>156</ele>
        <time>2015-04-24T13:24:46.000Z</time>
      </trkpt>
      <trkpt lat="48.48653" lon="1.47862">
        <ele>156</ele>
        <time>2015-04-24T13:24:54.000Z</time>
      </trkpt>
      <trkpt lat="48.48639" lon="1.47863">
        <ele>156</ele>
        <time>2015-04-24T13:25:05.000Z</time>
      </trkpt>
      <trkpt lat="48.48627" lon="1.47864">
        <ele>155.6</ele>
        <time>2015-04-24T13:25:14.000Z</time>
      </trkpt>
      <trkpt lat="48.48612" lon="1.47865">
        <ele>155</ele>
        <time>2015-04-24T13:25:25.000Z</time>
      </trkpt>
      <trkpt lat="48.48604" lon="1.47866">
        <ele>155</ele>
        <time>2015-04-24T13:25:32.000Z</time>
      </trkpt>
      <trkpt lat="48.48588" lon="1.47868">
        <ele>155</ele>
        <time>2015-04-24T13:25:44.000Z</time>
      </trkpt>
      <trkpt lat="48.48582" lon="1.47868">
        <ele>154.9</ele>
        <time>2015-04-24T13:25:49.000Z</time>
      </trkpt>
      <trkpt lat="48.48576" lon="1.47868">
        <ele>154.7</ele>
        <time>2015-04-24T13:25:53.000Z</time>
      </trkpt>
      <trkpt lat="48.48575" lon="1.47869">
        <ele>154.7</ele>
        <time>2015-04-24T13:25:54.000Z</time>
      </trkpt>
      <trkpt lat="48.48571" lon="1.47869">
        <ele>154.6</ele>
        <time>2015-04-24T13:25:57.000Z</time>
      </trkpt>
      <trkpt lat="48.48566" lon="1.47869">
        <ele>154.4</ele>
        <time>2015-04-24T13:26:01.000Z</time>
      </trkpt>
      <trkpt lat="48.48553" lon="1.47872">
        <ele>154</ele>
        <time>2015-04-24T13:26:10.000Z</time>
      </trkpt>
      <trkpt lat="48.48543" lon="1.47873">
        <ele>153.8</ele>
        <time>2015-04-24T13:26:18.000Z</time>
      </trkpt>
      <trkpt lat="48.48529" lon="1.47874">
        <ele>153.6</ele>
        <time>2015-04-24T13:26:28.000Z</time>
      </trkpt>
      <trkpt lat="48.48518" lon="1.47875">
        <ele>153.5</ele>
        <time>2015-04-24T13:26:37.000Z</time>
      </trkpt>
      <trkpt lat="48.48506" lon="1.47877">
        <ele>153.4</ele>
        <time>2015-04-24T13:26:46.000Z</time>
      </trkpt>
      <trkpt lat="48.48493" lon="1.4788">
        <ele>153.3</ele>
        <time>2015-04-24T13:26:56.000Z</time>
      </trkpt>
      <trkpt lat="48.48481" lon="1.4788">
        <ele>153.3</ele>
        <time>2015-04-24T13:27:05.000Z</time>
      </trkpt>
      <trkpt lat="48.48469" lon="1.47882">
        <ele>153.3</ele>
        <time>2015-04-24T13:27:14.000Z</time>
      </trkpt>
      <trkpt lat="48.48465" lon="1.47882">
        <ele>153.2</ele>
        <time>2015-04-24T13:27:17.000Z</time>
      </trkpt>
      <trkpt lat="48.48456" lon="1.47881">
        <ele>153.3</ele>
        <time>2015-04-24T13:27:24.000Z</time>
      </trkpt>
      <trkpt lat="48.48449" lon="1.47875">
        <ele>153.5</ele>
        <time>2015-04-24T13:27:32.000Z</time>
      </trkpt>
      <trkpt lat="48.48448" lon="1.47875">
        <ele>153.5</ele>
        <time>2015-04-24T13:27:40.000Z</time>
      </trkpt>
      <trkpt lat="48.48448" lon="1.47874">
        <ele>153.5</ele>
        <time>2015-04-24T13:27:50.000Z</time>
      </trkpt>
      <trkpt lat="48.48445" lon="1.47869">
        <ele>153.7</ele>
        <time>2015-04-24T13:27:57.000Z</time>
      </trkpt>
      <trkpt lat="48.48445" lon="1.47865">
        <ele>153.9</ele>
        <time>2015-04-24T13:28:06.000Z</time>
      </trkpt>
      <trkpt lat="48.48445" lon="1.47864">
        <ele>153.9</ele>
        <time>2015-04-24T13:28:17.000Z</time>
      </trkpt>
      <trkpt lat="48.48444" lon="1.47863">
        <ele>153.9</ele>
        <time>2015-04-24T13:28:22.000Z</time>
      </trkpt>
      <trkpt lat="48.48444" lon="1.47864">
        <ele>153.9</ele>
        <time>2015-04-24T13:28:28.000Z</time>
      </trkpt>
      <trkpt lat="48.48445" lon="1.47867">
        <ele>153.8</ele>
        <time>2015-04-24T13:28:30.000Z</time>
      </trkpt>
      <trkpt lat="48.48446" lon="1.47869">
        <ele>153.7</ele>
        <time>2015-04-24T13:28:32.000Z</time>
      </trkpt>
      <trkpt lat="48.48446" lon="1.47871">
        <ele>153.6</ele>
        <time>2015-04-24T13:28:38.000Z</time>
      </trkpt>
      <trkpt lat="48.48445" lon="1.47875">
        <ele>153.5</ele>
        <time>2015-04-24T13:28:41.000Z</time>
      </trkpt>
      <trkpt lat="48.48443" lon="1.47879">
        <ele>153.4</ele>
        <time>2015-04-24T13:28:44.000Z</time>
      </trkpt>
      <trkpt lat="48.48434" lon="1.4789">
        <ele>153.4</ele>
        <time>2015-04-24T13:28:53.000Z</time>
      </trkpt>
      <trkpt lat="48.48429" lon="1.47898">
        <ele>153.4</ele>
        <time>2015-04-24T13:28:59.000Z</time>
      </trkpt>
      <trkpt lat="48.48428" lon="1.47898">
        <ele>153.4</ele>
        <time>2015-04-24T13:29:00.000Z</time>
      </trkpt>
      <trkpt lat="48.48423" lon="1.47899">
        <ele>153.5</ele>
        <time>2015-04-24T13:29:04.000Z</time>
      </trkpt>
      <trkpt lat="48.48422" lon="1.479">
        <ele>153.5</ele>
        <time>2015-04-24T13:29:05.000Z</time>
      </trkpt>
      <trkpt lat="48.48411" lon="1.47898">
        <ele>153.7</ele>
        <time>2015-04-24T13:29:14.000Z</time>
      </trkpt>
      <trkpt lat="48.48398" lon="1.47899">
        <ele>153.9</ele>
        <time>2015-04-24T13:29:24.000Z</time>
      </trkpt>
      <trkpt lat="48.48387" lon="1.47901">
        <ele>154</ele>
        <time>2015-04-24T13:29:33.000Z</time>
      </trkpt>
      <trkpt lat="48.48387" lon="1.47902">
        <ele>154</ele>
        <time>2015-04-24T13:29:37.000Z</time>
      </trkpt>
      <trkpt lat="48.48385" lon="1.47901">
        <ele>154</ele>
        <time>2015-04-24T13:29:39.000Z</time>
      </trkpt>
      <trkpt lat="48.48381" lon="1.47902">
        <ele>154</ele>
        <time>2015-04-24T13:29:42.000Z</time>
      </trkpt>
      <trkpt lat="48.48367" lon="1.47904">
        <ele>154</ele>
        <time>2015-04-24T13:29:53.000Z</time>
      </trkpt>
      <trkpt lat="48.48354" lon="1.47906">
        <ele>154</ele>
        <time>2015-04-24T13:30:02.000Z</time>
      </trkpt>
      <trkpt lat="48.48341" lon="1.47906">
        <ele>154</ele>
        <time>2015-04-24T13:30:12.000Z</time>
      </trkpt>
      <trkpt lat="48.4833" lon="1.47908">
        <ele>154</ele>
        <time>2015-04-24T13:30:20.000Z</time>
      </trkpt>
      <trkpt lat="48.48321" lon="1.47911">
        <ele>154</ele>
        <time>2015-04-24T13:30:28.000Z</time>
      </trkpt>
      <trkpt lat="48.48311" lon="1.47913">
        <ele>154</ele>
        <time>2015-04-24T13:30:36.000Z</time>
      </trkpt>
      <trkpt lat="48.48298" lon="1.47915">
        <ele>154</ele>
        <time>2015-04-24T13:30:46.000Z</time>
      </trkpt>
      <trkpt lat="48.4829" lon="1.47916">
        <ele>154</ele>
        <time>2015-04-24T13:30:53.000Z</time>
      </trkpt>
      <trkpt lat="48.48284" lon="1.47915">
        <ele>154</ele>
        <time>2015-04-24T13:30:57.000Z</time>
      </trkpt>
      <trkpt lat="48.48278" lon="1.47916">
        <ele>154</ele>
        <time>2015-04-24T13:31:02.000Z</time>
      </trkpt>
      <trkpt lat="48.48267" lon="1.47918">
        <ele>154</ele>
        <time>2015-04-24T13:31:11.000Z</time>
      </trkpt>
      <trkpt lat="48.48258" lon="1.4792">
        <ele>154</ele>
        <time>2015-04-24T13:31:19.000Z</time>
      </trkpt>
      <trkpt lat="48.48245" lon="1.47922">
        <ele>154</ele>
        <time>2015-04-24T13:31:29.000Z</time>
      </trkpt>
      <trkpt lat="48.48231" lon="1.47926">
        <ele>154</ele>
        <time>2015-04-24T13:31:40.000Z</time>
      </trkpt>
      <trkpt lat="48.48222" lon="1.47928">
        <ele>154</ele>
        <time>2015-04-24T13:31:48.000Z</time>
      </trkpt>
      <trkpt lat="48.48221" lon="1.47928">
        <ele>154</ele>
        <time>2015-04-24T13:31:53.000Z</time>
      </trkpt>
      <trkpt lat="48.48221" lon="1.47929">
        <ele>154</ele>
        <time>2015-04-24T13:32:04.000Z</time>
      </trkpt>
      <trkpt lat="48.48219" lon="1.47929">
        <ele>154</ele>
        <time>2015-04-24T13:32:14.000Z</time>
      </trkpt>
      <trkpt lat="48.48211" lon="1.47932">
        <ele>154</ele>
        <time>2015-04-24T13:32:20.000Z</time>
      </trkpt>
      <trkpt lat="48.48204" lon="1.47934">
        <ele>154</ele>
        <time>2015-04-24T13:32:27.000Z</time>
      </trkpt>
      <trkpt lat="48.48196" lon="1.47938">
        <ele>154</ele>
        <time>2015-04-24T13:32:35.000Z</time>
      </trkpt>
      <trkpt lat="48.48186" lon="1.4794">
        <ele>153.7</ele>
        <time>2015-04-24T13:32:43.000Z</time>
      </trkpt>
      <trkpt lat="48.48183" lon="1.47941">
        <ele>153.6</ele>
        <time>2015-04-24T13:32:45.000Z</time>
      </trkpt>
      <trkpt lat="48.4817" lon="1.47944">
        <ele>153.1</ele>
        <time>2015-04-24T13:32:55.000Z</time>
      </trkpt>
      <trkpt lat="48.48161" lon="1.47946">
        <ele>153.1</ele>
        <time>2015-04-24T13:33:02.000Z</time>
      </trkpt>
      <trkpt lat="48.48149" lon="1.47949">
        <ele>153.1</ele>
        <time>2015-04-24T13:33:11.000Z</time>
      </trkpt>
      <trkpt lat="48.48138" lon="1.47952">
        <ele>153</ele>
        <time>2015-04-24T13:33:19.000Z</time>
      </trkpt>
      <trkpt lat="48.48132" lon="1.47954">
        <ele>153</ele>
        <time>2015-04-24T13:33:25.000Z</time>
      </trkpt>
      <trkpt lat="48.48131" lon="1.47954">
        <ele>153</ele>
        <time>2015-04-24T13:33:26.000Z</time>
      </trkpt>
      <trkpt lat="48.4812" lon="1.47955">
        <ele>153</ele>
        <time>2015-04-24T13:33:35.000Z</time>
      </trkpt>
      <trkpt lat="48.48111" lon="1.47959">
        <ele>153</ele>
        <time>2015-04-24T13:33:42.000Z</time>
      </trkpt>
      <trkpt lat="48.48102" lon="1.47961">
        <ele>152.7</ele>
        <time>2015-04-24T13:33:49.000Z</time>
      </trkpt>
      <trkpt lat="48.48092" lon="1.47964">
        <ele>152.3</ele>
        <time>2015-04-24T13:33:58.000Z</time>
      </trkpt>
      <trkpt lat="48.48083" lon="1.47966">
        <ele>152</ele>
        <time>2015-04-24T13:34:05.000Z</time>
      </trkpt>
      <trkpt lat="48.48071" lon="1.4797">
        <ele>152</ele>
        <time>2015-04-24T13:34:14.000Z</time>
      </trkpt>
      <trkpt lat="48.4806" lon="1.47974">
        <ele>152</ele>
        <time>2015-04-24T13:34:23.000Z</time>
      </trkpt>
      <trkpt lat="48.48053" lon="1.47976">
        <ele>151.8</ele>
        <time>2015-04-24T13:34:29.000Z</time>
      </trkpt>
      <trkpt lat="48.48051" lon="1.47977">
        <ele>151.8</ele>
        <time>2015-04-24T13:34:31.000Z</time>
      </trkpt>
      <trkpt lat="48.48044" lon="1.47981">
        <ele>151.7</ele>
        <time>2015-04-24T13:34:37.000Z</time>
      </trkpt>
      <trkpt lat="48.48037" lon="1.47982">
        <ele>151.6</ele>
        <time>2015-04-24T13:34:44.000Z</time>
      </trkpt>
      <trkpt lat="48.48026" lon="1.47986">
        <ele>151.5</ele>
        <time>2015-04-24T13:34:53.000Z</time>
      </trkpt>
      <trkpt lat="48.48018" lon="1.4799">
        <ele>151.6</ele>
        <time>2015-04-24T13:35:00.000Z</time>
      </trkpt>
      <trkpt lat="48.48009" lon="1.47992">
        <ele>151.8</ele>
        <time>2015-04-24T13:35:08.000Z</time>
      </trkpt>
      <trkpt lat="48.47998" lon="1.47994">
        <ele>152</ele>
        <time>2015-04-24T13:35:17.000Z</time>
      </trkpt>
      <trkpt lat="48.47997" lon="1.47995">
        <ele>152</ele>
        <time>2015-04-24T13:35:18.000Z</time>
      </trkpt>
      <trkpt lat="48.47992" lon="1.47996">
        <ele>152</ele>
        <time>2015-04-24T13:35:22.000Z</time>
      </trkpt>
      <trkpt lat="48.47991" lon="1.47995">
        <ele>152</ele>
        <time>2015-04-24T13:35:23.000Z</time>
      </trkpt>
      <trkpt lat="48.47982" lon="1.47994">
        <ele>152</ele>
        <time>2015-04-24T13:35:30.000Z</time>
      </trkpt>
      <trkpt lat="48.47972" lon="1.47996">
        <ele>152</ele>
        <time>2015-04-24T13:35:38.000Z</time>
      </trkpt>
      <trkpt lat="48.47962" lon="1.47999">
        <ele>152</ele>
        <time>2015-04-24T13:35:46.000Z</time>
      </trkpt>
      <trkpt lat="48.47952" lon="1.48001">
        <ele>152</ele>
        <time>2015-04-24T13:35:54.000Z</time>
      </trkpt>
      <trkpt lat="48.47941" lon="1.48003">
        <ele>151.9</ele>
        <time>2015-04-24T13:36:02.000Z</time>
      </trkpt>
      <trkpt lat="48.47932" lon="1.48006">
        <ele>151.8</ele>
        <time>2015-04-24T13:36:10.000Z</time>
      </trkpt>
      <trkpt lat="48.47923" lon="1.48009">
        <ele>151.7</ele>
        <time>2015-04-24T13:36:17.000Z</time>
      </trkpt>
      <trkpt lat="48.47909" lon="1.48012">
        <ele>151.7</ele>
        <time>2015-04-24T13:36:27.000Z</time>
      </trkpt>
      <trkpt lat="48.479" lon="1.48014">
        <ele>151.8</ele>
        <time>2015-04-24T13:36:35.000Z</time>
      </trkpt>
      <trkpt lat="48.4789" lon="1.48018">
        <ele>152</ele>
        <time>2015-04-24T13:36:43.000Z</time>
      </trkpt>
      <trkpt lat="48.4788" lon="1.48021">
        <ele>152</ele>
        <time>2015-04-24T13:36:51.000Z</time>
      </trkpt>
      <trkpt lat="48.4787" lon="1.48024">
        <ele>152</ele>
        <time>2015-04-24T13:37:00.000Z</time>
      </trkpt>
      <trkpt lat="48.4786" lon="1.48025">
        <ele>152</ele>
        <time>2015-04-24T13:37:08.000Z</time>
      </trkpt>
      <trkpt lat="48.47851" lon="1.48027">
        <ele>152</ele>
        <time>2015-04-24T13:37:15.000Z</time>
      </trkpt>
      <trkpt lat="48.47839" lon="1.48029">
        <ele>152</ele>
        <time>2015-04-24T13:37:25.000Z</time>
      </trkpt>
      <trkpt lat="48.47827" lon="1.48031">
        <ele>151.9</ele>
        <time>2015-04-24T13:37:34.000Z</time>
      </trkpt>
      <trkpt lat="48.47816" lon="1.48032">
        <ele>151.9</ele>
        <time>2015-04-24T13:37:43.000Z</time>
      </trkpt>
      <trkpt lat="48.47802" lon="1.48033">
        <ele>151.8</ele>
        <time>2015-04-24T13:37:53.000Z</time>
      </trkpt>
      <trkpt lat="48.47794" lon="1.48035">
        <ele>151.7</ele>
        <time>2015-04-24T13:38:00.000Z</time>
      </trkpt>
      <trkpt lat="48.47785" lon="1.48038">
        <ele>151.6</ele>
        <time>2015-04-24T13:38:06.000Z</time>
      </trkpt>
      <trkpt lat="48.47772" lon="1.48039">
        <ele>151.6</ele>
        <time>2015-04-24T13:38:16.000Z</time>
      </trkpt>
      <trkpt lat="48.4776" lon="1.4804">
        <ele>151.5</ele>
        <time>2015-04-24T13:38:25.000Z</time>
      </trkpt>
      <trkpt lat="48.4775" lon="1.48041">
        <ele>151.5</ele>
        <time>2015-04-24T13:38:33.000Z</time>
      </trkpt>
      <trkpt lat="48.47738" lon="1.48044">
        <ele>151.2</ele>
        <time>2015-04-24T13:38:42.000Z</time>
      </trkpt>
      <trkpt lat="48.47731" lon="1.48044">
        <ele>151.1</ele>
        <time>2015-04-24T13:38:48.000Z</time>
      </trkpt>
      <trkpt lat="48.47729" lon="1.48045">
        <ele>151.1</ele>
        <time>2015-04-24T13:38:49.000Z</time>
      </trkpt>
      <trkpt lat="48.47717" lon="1.48048">
        <ele>150.9</ele>
        <time>2015-04-24T13:38:59.000Z</time>
      </trkpt>
      <trkpt lat="48.47708" lon="1.48048">
        <ele>150.6</ele>
        <time>2015-04-24T13:39:05.000Z</time>
      </trkpt>
      <trkpt lat="48.47706" lon="1.48048">
        <ele>150.6</ele>
        <time>2015-04-24T13:39:07.000Z</time>
      </trkpt>
      <trkpt lat="48.47695" lon="1.4805">
        <ele>150.2</ele>
        <time>2015-04-24T13:39:15.000Z</time>
      </trkpt>
      <trkpt lat="48.47686" lon="1.48052">
        <ele>150.1</ele>
        <time>2015-04-24T13:39:22.000Z</time>
      </trkpt>
      <trkpt lat="48.47676" lon="1.48052">
        <ele>150</ele>
        <time>2015-04-24T13:39:29.000Z</time>
      </trkpt>
      <trkpt lat="48.47673" lon="1.48052">
        <ele>150</ele>
        <time>2015-04-24T13:39:31.000Z</time>
      </trkpt>
      <trkpt lat="48.47669" lon="1.48053">
        <ele>150</ele>
        <time>2015-04-24T13:39:34.000Z</time>
      </trkpt>
      <trkpt lat="48.47665" lon="1.48053">
        <ele>150</ele>
        <time>2015-04-24T13:39:37.000Z</time>
      </trkpt>
      <trkpt lat="48.47656" lon="1.48055">
        <ele>150</ele>
        <time>2015-04-24T13:39:45.000Z</time>
      </trkpt>
      <trkpt lat="48.47648" lon="1.48056">
        <ele>150</ele>
        <time>2015-04-24T13:39:53.000Z</time>
      </trkpt>
      <trkpt lat="48.4764" lon="1.48058">
        <ele>149.9</ele>
        <time>2015-04-24T13:40:00.000Z</time>
      </trkpt>
      <trkpt lat="48.47629" lon="1.48059">
        <ele>149.8</ele>
        <time>2015-04-24T13:40:09.000Z</time>
      </trkpt>
      <trkpt lat="48.47619" lon="1.48062">
        <ele>149.6</ele>
        <time>2015-04-24T13:40:17.000Z</time>
      </trkpt>
      <trkpt lat="48.47607" lon="1.48064">
        <ele>149.5</ele>
        <time>2015-04-24T13:40:27.000Z</time>
      </trkpt>
      <trkpt lat="48.47598" lon="1.48064">
        <ele>149.5</ele>
        <time>2015-04-24T13:40:34.000Z</time>
      </trkpt>
      <trkpt lat="48.47587" lon="1.48066">
        <ele>149.6</ele>
        <time>2015-04-24T13:40:43.000Z</time>
      </trkpt>
      <trkpt lat="48.47577" lon="1.48067">
        <ele>149.5</ele>
        <time>2015-04-24T13:40:51.000Z</time>
      </trkpt>
      <trkpt lat="48.47576" lon="1.48067">
        <ele>149.4</ele>
        <time>2015-04-24T13:40:52.000Z</time>
      </trkpt>
      <trkpt lat="48.47563" lon="1.48068">
        <ele>149.2</ele>
        <time>2015-04-24T13:41:01.000Z</time>
      </trkpt>
      <trkpt lat="48.47552" lon="1.4807">
        <ele>149</ele>
        <time>2015-04-24T13:41:10.000Z</time>
      </trkpt>
      <trkpt lat="48.47541" lon="1.48071">
        <ele>149</ele>
        <time>2015-04-24T13:41:18.000Z</time>
      </trkpt>
      <trkpt lat="48.4753" lon="1.48077">
        <ele>149</ele>
        <time>2015-04-24T13:41:27.000Z</time>
      </trkpt>
      <trkpt lat="48.47527" lon="1.48077">
        <ele>149</ele>
        <time>2015-04-24T13:41:30.000Z</time>
      </trkpt>
      <trkpt lat="48.47524" lon="1.48076">
        <ele>149</ele>
        <time>2015-04-24T13:41:33.000Z</time>
      </trkpt>
      <trkpt lat="48.47522" lon="1.48076">
        <ele>149</ele>
        <time>2015-04-24T13:41:34.000Z</time>
      </trkpt>
      <trkpt lat="48.4752" lon="1.48077">
        <ele>149</ele>
        <time>2015-04-24T13:41:36.000Z</time>
      </trkpt>
      <trkpt lat="48.47513" lon="1.48078">
        <ele>149</ele>
        <time>2015-04-24T13:41:41.000Z</time>
      </trkpt>
      <trkpt lat="48.47506" lon="1.48079">
        <ele>149</ele>
        <time>2015-04-24T13:41:47.000Z</time>
      </trkpt>
      <trkpt lat="48.47496" lon="1.4808">
        <ele>148.9</ele>
        <time>2015-04-24T13:41:54.000Z</time>
      </trkpt>
      <trkpt lat="48.47484" lon="1.48082">
        <ele>148.4</ele>
        <time>2015-04-24T13:42:03.000Z</time>
      </trkpt>
      <trkpt lat="48.47474" lon="1.48086">
        <ele>148.1</ele>
        <time>2015-04-24T13:42:11.000Z</time>
      </trkpt>
      <trkpt lat="48.47465" lon="1.4809">
        <ele>147.7</ele>
        <time>2015-04-24T13:42:19.000Z</time>
      </trkpt>
      <trkpt lat="48.47453" lon="1.48097">
        <ele>147.3</ele>
        <time>2015-04-24T13:42:29.000Z</time>
      </trkpt>
      <trkpt lat="48.4745" lon="1.48098">
        <ele>147.2</ele>
        <time>2015-04-24T13:42:31.000Z</time>
      </trkpt>
      <trkpt lat="48.47445" lon="1.48104">
        <ele>147</ele>
        <time>2015-04-24T13:42:36.000Z</time>
      </trkpt>
      <trkpt lat="48.47436" lon="1.48114">
        <ele>146.8</ele>
        <time>2015-04-24T13:42:45.000Z</time>
      </trkpt>
      <trkpt lat="48.47434" lon="1.48118">
        <ele>146.8</ele>
        <time>2015-04-24T13:42:48.000Z</time>
      </trkpt>
      <trkpt lat="48.47431" lon="1.48121">
        <ele>146.7</ele>
        <time>2015-04-24T13:42:52.000Z</time>
      </trkpt>
      <trkpt lat="48.47425" lon="1.48126">
        <ele>146.5</ele>
        <time>2015-04-24T13:42:57.000Z</time>
      </trkpt>
      <trkpt lat="48.47424" lon="1.48127">
        <ele>146.4</ele>
        <time>2015-04-24T13:42:58.000Z</time>
      </trkpt>
      <trkpt lat="48.47417" lon="1.48135">
        <ele>146</ele>
        <time>2015-04-24T13:43:05.000Z</time>
      </trkpt>
      <trkpt lat="48.47415" lon="1.48138">
        <ele>145.9</ele>
        <time>2015-04-24T13:43:07.000Z</time>
      </trkpt>
      <trkpt lat="48.47412" lon="1.48141">
        <ele>145.9</ele>
        <time>2015-04-24T13:43:10.000Z</time>
      </trkpt>
      <trkpt lat="48.47401" lon="1.48151">
        <ele>145.6</ele>
        <time>2015-04-24T13:43:20.000Z</time>
      </trkpt>
      <trkpt lat="48.474" lon="1.48152">
        <ele>145.6</ele>
        <time>2015-04-24T13:43:21.000Z</time>
      </trkpt>
      <trkpt lat="48.4739" lon="1.4816">
        <ele>145.1</ele>
        <time>2015-04-24T13:43:29.000Z</time>
      </trkpt>
      <trkpt lat="48.47379" lon="1.48169">
        <ele>144.7</ele>
        <time>2015-04-24T13:43:38.000Z</time>
      </trkpt>
      <trkpt lat="48.47369" lon="1.48182">
        <ele>144</ele>
        <time>2015-04-24T13:43:48.000Z</time>
      </trkpt>
      <trkpt lat="48.47362" lon="1.48188">
        <ele>143.4</ele>
        <time>2015-04-24T13:43:54.000Z</time>
      </trkpt>
      <trkpt lat="48.4736" lon="1.48191">
        <ele>143.1</ele>
        <time>2015-04-24T13:44:01.000Z</time>
      </trkpt>
      <trkpt lat="48.47359" lon="1.48192">
        <ele>143</ele>
        <time>2015-04-24T13:44:11.000Z</time>
      </trkpt>
      <trkpt lat="48.47355" lon="1.48197">
        <ele>142.9</ele>
        <time>2015-04-24T13:44:17.000Z</time>
      </trkpt>
      <trkpt lat="48.4735" lon="1.48204">
        <ele>143.3</ele>
        <time>2015-04-24T13:44:24.000Z</time>
      </trkpt>
      <trkpt lat="48.47346" lon="1.48204">
        <ele>143.2</ele>
        <time>2015-04-24T13:44:28.000Z</time>
      </trkpt>
      <trkpt lat="48.47344" lon="1.48205">
        <ele>143.1</ele>
        <time>2015-04-24T13:44:30.000Z</time>
      </trkpt>
      <trkpt lat="48.47334" lon="1.48209">
        <ele>143.1</ele>
        <time>2015-04-24T13:44:39.000Z</time>
      </trkpt>
      <trkpt lat="48.47332" lon="1.4821">
        <ele>143</ele>
        <time>2015-04-24T13:44:41.000Z</time>
      </trkpt>
      <trkpt lat="48.47324" lon="1.48215">
        <ele>142.4</ele>
        <time>2015-04-24T13:44:49.000Z</time>
      </trkpt>
      <trkpt lat="48.47322" lon="1.48215">
        <ele>142.2</ele>
        <time>2015-04-24T13:44:51.000Z</time>
      </trkpt>
      <trkpt lat="48.47318" lon="1.48219">
        <ele>142.1</ele>
        <time>2015-04-24T13:44:55.000Z</time>
      </trkpt>
      <trkpt lat="48.47313" lon="1.48225">
        <ele>141.9</ele>
        <time>2015-04-24T13:45:01.000Z</time>
      </trkpt>
      <trkpt lat="48.47311" lon="1.48227">
        <ele>141.9</ele>
        <time>2015-04-24T13:45:03.000Z</time>
      </trkpt>
      <trkpt lat="48.47311" lon="1.48229">
        <ele>142</ele>
        <time>2015-04-24T13:45:04.000Z</time>
      </trkpt>
      <trkpt lat="48.47308" lon="1.4823">
        <ele>141.8</ele>
        <time>2015-04-24T13:45:09.000Z</time>
      </trkpt>
      <trkpt lat="48.47301" lon="1.48231">
        <ele>141.3</ele>
        <time>2015-04-24T13:45:16.000Z</time>
      </trkpt>
      <trkpt lat="48.47301" lon="1.48232">
        <ele>141.3</ele>
        <time>2015-04-24T13:45:17.000Z</time>
      </trkpt>
      <trkpt lat="48.47297" lon="1.48236">
        <ele>141.3</ele>
        <time>2015-04-24T13:45:22.000Z</time>
      </trkpt>
      <trkpt lat="48.47296" lon="1.48238">
        <ele>141.2</ele>
        <time>2015-04-24T13:45:24.000Z</time>
      </trkpt>
      <trkpt lat="48.47295" lon="1.48238">
        <ele>141.2</ele>
        <time>2015-04-24T13:45:25.000Z</time>
      </trkpt>
      <trkpt lat="48.47294" lon="1.4824">
        <ele>141.2</ele>
        <time>2015-04-24T13:45:27.000Z</time>
      </trkpt>
      <trkpt lat="48.47293" lon="1.48242">
        <ele>141.2</ele>
        <time>2015-04-24T13:45:31.000Z</time>
      </trkpt>
      <trkpt lat="48.47293" lon="1.4824">
        <ele>141.1</ele>
        <time>2015-04-24T13:45:39.000Z</time>
      </trkpt>
      <trkpt lat="48.47293" lon="1.48239">
        <ele>141</ele>
        <time>2015-04-24T13:45:53.000Z</time>
      </trkpt>
      <trkpt lat="48.47296" lon="1.48234">
        <ele>141</ele>
        <time>2015-04-24T13:46:02.000Z</time>
      </trkpt>
      <trkpt lat="48.47304" lon="1.48231">
        <ele>141.5</ele>
        <time>2015-04-24T13:46:12.000Z</time>
      </trkpt>
      <trkpt lat="48.47309" lon="1.48232">
        <ele>142</ele>
        <time>2015-04-24T13:46:20.000Z</time>
      </trkpt>
      <trkpt lat="48.4731" lon="1.48232">
        <ele>142</ele>
        <time>2015-04-24T13:46:26.000Z</time>
      </trkpt>
      <trkpt lat="48.47308" lon="1.48228">
        <ele>141.6</ele>
        <time>2015-04-24T13:46:40.000Z</time>
      </trkpt>
      <trkpt lat="48.47307" lon="1.48229">
        <ele>141.7</ele>
        <time>2015-04-24T13:46:58.000Z</time>
      </trkpt>
      <trkpt lat="48.47308" lon="1.48231">
        <ele>141.8</ele>
        <time>2015-04-24T13:47:05.000Z</time>
      </trkpt>
      <trkpt lat="48.47308" lon="1.48231">
        <ele>141.8</ele>
        <time>2015-04-24T13:47:07.000Z</time>
      </trkpt>
      <trkpt lat="48.47308" lon="1.48232">
        <ele>141.9</ele>
        <time>2015-04-24T13:47:12.000Z</time>
      </trkpt>
      <trkpt lat="48.47308" lon="1.48234">
        <ele>142</ele>
        <time>2015-04-24T13:47:18.000Z</time>
      </trkpt>
      <trkpt lat="48.47308" lon="1.48236">
        <ele>142.1</ele>
        <time>2015-04-24T13:47:28.000Z</time>
      </trkpt>
      <trkpt lat="48.47308" lon="1.48237">
        <ele>142.2</ele>
        <time>2015-04-24T13:47:38.000Z</time>
      </trkpt>
      <trkpt lat="48.47308" lon="1.48239">
        <ele>142.3</ele>
        <time>2015-04-24T13:47:47.000Z</time>
      </trkpt>
      <trkpt lat="48.47308" lon="1.48239">
        <ele>142.4</ele>
        <time>2015-04-24T13:47:48.000Z</time>
      </trkpt>
      <trkpt lat="48.47308" lon="1.48238">
        <ele>142.3</ele>
        <time>2015-04-24T13:47:53.000Z</time>
      </trkpt>
      <trkpt lat="48.47308" lon="1.48238">
        <ele>142.4</ele>
        <time>2015-04-24T13:47:55.000Z</time>
      </trkpt>
      <trkpt lat="48.47309" lon="1.48239">
        <ele>142.4</ele>
        <time>2015-04-24T13:48:01.000Z</time>
      </trkpt>
      <trkpt lat="48.47309" lon="1.48238">
        <ele>142.4</ele>
        <time>2015-04-24T13:48:04.000Z</time>
      </trkpt>
      <trkpt lat="48.47309" lon="1.48238">
        <ele>142.4</ele>
        <time>2015-04-24T13:48:12.000Z</time>
      </trkpt>
      <trkpt lat="48.47308" lon="1.48238">
        <ele>142.3</ele>
        <time>2015-04-24T13:48:16.000Z</time>
      </trkpt>
      <trkpt lat="48.47309" lon="1.48237">
        <ele>142.3</ele>
        <time>2015-04-24T13:48:23.000Z</time>
      </trkpt>
      <trkpt lat="48.47309" lon="1.48237">
        <ele>142.3</ele>
        <time>2015-04-24T13:48:29.000Z</time>
      </trkpt>
      <trkpt lat="48.47309" lon="1.48236">
        <ele>142.2</ele>
        <time>2015-04-24T13:48:35.000Z</time>
      </trkpt>
      <trkpt lat="48.47309" lon="1.48236">
        <ele>142.2</ele>
        <time>2015-04-24T13:48:41.000Z</time>
      </trkpt>
      <trkpt lat="48.47308" lon="1.48237">
        <ele>142.3</ele>
        <time>2015-04-24T13:48:50.000Z</time>
      </trkpt>
      <trkpt lat="48.47308" lon="1.48238">
        <ele>142.3</ele>
        <time>2015-04-24T13:48:59.000Z</time>
      </trkpt>
      <trkpt lat="48.47308" lon="1.48239">
        <ele>142.4</ele>
        <time>2015-04-24T13:49:20.000Z</time>
      </trkpt>
      <trkpt lat="48.47309" lon="1.4824">
        <ele>142.4</ele>
        <time>2015-04-24T13:49:39.000Z</time>
      </trkpt>
      <trkpt lat="48.47309" lon="1.4824">
        <ele>142.5</ele>
        <time>2015-04-24T13:49:52.000Z</time>
      </trkpt>
      <trkpt lat="48.47309" lon="1.4824">
        <ele>142.5</ele>
        <time>2015-04-24T13:50:03.000Z</time>
      </trkpt>
      <trkpt lat="48.4731" lon="1.48239">
        <ele>142.5</ele>
        <time>2015-04-24T13:50:17.000Z</time>
      </trkpt>
      <trkpt lat="48.47311" lon="1.48239">
        <ele>142.6</ele>
        <time>2015-04-24T13:50:27.000Z</time>
      </trkpt>
      <trkpt lat="48.4731" lon="1.48237">
        <ele>142.4</ele>
        <time>2015-04-24T13:50:40.000Z</time>
      </trkpt>
      <trkpt lat="48.47307" lon="1.48238">
        <ele>142.2</ele>
        <time>2015-04-24T13:50:46.000Z</time>
      </trkpt>
      <trkpt lat="48.47303" lon="1.48241">
        <ele>142.1</ele>
        <time>2015-04-24T13:50:53.000Z</time>
      </trkpt>
      <trkpt lat="48.47302" lon="1.48243">
        <ele>142.1</ele>
        <time>2015-04-24T13:50:55.000Z</time>
      </trkpt>
      <trkpt lat="48.47298" lon="1.48246">
        <ele>141.9</ele>
        <time>2015-04-24T13:51:02.000Z</time>
      </trkpt>
      <trkpt lat="48.47297" lon="1.48246">
        <ele>141.8</ele>
        <time>2015-04-24T13:51:03.000Z</time>
      </trkpt>
      <trkpt lat="48.47293" lon="1.48247">
        <ele>141.5</ele>
        <time>2015-04-24T13:51:09.000Z</time>
      </trkpt>
      <trkpt lat="48.47289" lon="1.4825">
        <ele>141.2</ele>
        <time>2015-04-24T13:51:15.000Z</time>
      </trkpt>
      <trkpt lat="48.47288" lon="1.48251">
        <ele>141.1</ele>
        <time>2015-04-24T13:51:21.000Z</time>
      </trkpt>
      <trkpt lat="48.47287" lon="1.48251">
        <ele>141</ele>
        <time>2015-04-24T13:51:32.000Z</time>
      </trkpt>
      <trkpt lat="48.47286" lon="1.48252">
        <ele>140.9</ele>
        <time>2015-04-24T13:51:36.000Z</time>
      </trkpt>
      <trkpt lat="48.47286" lon="1.48252">
        <ele>140.9</ele>
        <time>2015-04-24T13:51:37.000Z</time>
      </trkpt>
      <trkpt lat="48.47282" lon="1.48257">
        <ele>140.7</ele>
        <time>2015-04-24T13:51:42.000Z</time>
      </trkpt>
      <trkpt lat="48.4728" lon="1.48258">
        <ele>140.5</ele>
        <time>2015-04-24T13:51:44.000Z</time>
      </trkpt>
      <trkpt lat="48.47277" lon="1.48259">
        <ele>140.3</ele>
        <time>2015-04-24T13:51:48.000Z</time>
      </trkpt>
      <trkpt lat="48.47276" lon="1.48259">
        <ele>140.3</ele>
        <time>2015-04-24T13:51:49.000Z</time>
      </trkpt>
      <trkpt lat="48.47272" lon="1.48262">
        <ele>140</ele>
        <time>2015-04-24T13:51:54.000Z</time>
      </trkpt>
      <trkpt lat="48.47267" lon="1.48266">
        <ele>139.4</ele>
        <time>2015-04-24T13:52:00.000Z</time>
      </trkpt>
      <trkpt lat="48.47265" lon="1.48267">
        <ele>139.1</ele>
        <time>2015-04-24T13:52:03.000Z</time>
      </trkpt>
      <trkpt lat="48.47259" lon="1.48272">
        <ele>138</ele>
        <time>2015-04-24T13:52:10.000Z</time>
      </trkpt>
      <trkpt lat="48.47257" lon="1.48274">
        <ele>137.6</ele>
        <time>2015-04-24T13:52:13.000Z</time>
      </trkpt>
      <trkpt lat="48.47254" lon="1.48276">
        <ele>136.8</ele>
        <time>2015-04-24T13:52:16.000Z</time>
      </trkpt>
      <trkpt lat="48.47247" lon="1.48281">
        <ele>136.6</ele>
        <time>2015-04-24T13:52:23.000Z</time>
      </trkpt>
      <trkpt lat="48.47244" lon="1.48283">
        <ele>136.9</ele>
        <time>2015-04-24T13:52:26.000Z</time>
      </trkpt>
      <trkpt lat="48.47241" lon="1.48285">
        <ele>137.1</ele>
        <time>2015-04-24T13:52:29.000Z</time>
      </trkpt>
      <trkpt lat="48.47234" lon="1.48291">
        <ele>137</ele>
        <time>2015-04-24T13:52:37.000Z</time>
      </trkpt>
      <trkpt lat="48.4723" lon="1.48295">
        <ele>136.4</ele>
        <time>2015-04-24T13:52:43.000Z</time>
      </trkpt>
      <trkpt lat="48.47227" lon="1.48296">
        <ele>136</ele>
        <time>2015-04-24T13:52:46.000Z</time>
      </trkpt>
      <trkpt lat="48.47226" lon="1.48297">
        <ele>135.8</ele>
        <time>2015-04-24T13:52:47.000Z</time>
      </trkpt>
      <trkpt lat="48.47223" lon="1.483">
        <ele>135</ele>
        <time>2015-04-24T13:52:50.000Z</time>
      </trkpt>
      <trkpt lat="48.4722" lon="1.48302">
        <ele>134.6</ele>
        <time>2015-04-24T13:52:55.000Z</time>
      </trkpt>
      <trkpt lat="48.47219" lon="1.48303">
        <ele>134.5</ele>
        <time>2015-04-24T13:52:56.000Z</time>
      </trkpt>
      <trkpt lat="48.47215" lon="1.48306">
        <ele>134</ele>
        <time>2015-04-24T13:53:03.000Z</time>
      </trkpt>
      <trkpt lat="48.47208" lon="1.48311">
        <ele>134.1</ele>
        <time>2015-04-24T13:53:11.000Z</time>
      </trkpt>
      <trkpt lat="48.47204" lon="1.48314">
        <ele>133.8</ele>
        <time>2015-04-24T13:53:16.000Z</time>
      </trkpt>
      <trkpt lat="48.47199" lon="1.48316">
        <ele>133.3</ele>
        <time>2015-04-24T13:53:20.000Z</time>
      </trkpt>
      <trkpt lat="48.47195" lon="1.48321">
        <ele>132.4</ele>
        <time>2015-04-24T13:53:25.000Z</time>
      </trkpt>
      <trkpt lat="48.47192" lon="1.48322">
        <ele>132.3</ele>
        <time>2015-04-24T13:53:28.000Z</time>
      </trkpt>
      <trkpt lat="48.47185" lon="1.48327">
        <ele>131.7</ele>
        <time>2015-04-24T13:53:35.000Z</time>
      </trkpt>
      <trkpt lat="48.47181" lon="1.4833">
        <ele>131.2</ele>
        <time>2015-04-24T13:53:39.000Z</time>
      </trkpt>
      <trkpt lat="48.47178" lon="1.48332">
        <ele>130.8</ele>
        <time>2015-04-24T13:53:42.000Z</time>
      </trkpt>
      <trkpt lat="48.47172" lon="1.48336">
        <ele>130.2</ele>
        <time>2015-04-24T13:53:48.000Z</time>
      </trkpt>
      <trkpt lat="48.47171" lon="1.48337">
        <ele>130.1</ele>
        <time>2015-04-24T13:53:49.000Z</time>
      </trkpt>
      <trkpt lat="48.4717" lon="1.48338">
        <ele>129.9</ele>
        <time>2015-04-24T13:53:50.000Z</time>
      </trkpt>
      <trkpt lat="48.47162" lon="1.48344">
        <ele>128.7</ele>
        <time>2015-04-24T13:53:57.000Z</time>
      </trkpt>
      <trkpt lat="48.47156" lon="1.48348">
        <ele>127.8</ele>
        <time>2015-04-24T13:54:02.000Z</time>
      </trkpt>
      <trkpt lat="48.47152" lon="1.48353">
        <ele>127.3</ele>
        <time>2015-04-24T13:54:06.000Z</time>
      </trkpt>
      <trkpt lat="48.47145" lon="1.48362">
        <ele>126.4</ele>
        <time>2015-04-24T13:54:14.000Z</time>
      </trkpt>
      <trkpt lat="48.47136" lon="1.48371">
        <ele>125.5</ele>
        <time>2015-04-24T13:54:24.000Z</time>
      </trkpt>
      <trkpt lat="48.47135" lon="1.48372">
        <ele>125.4</ele>
        <time>2015-04-24T13:54:25.000Z</time>
      </trkpt>
      <trkpt lat="48.47128" lon="1.48378">
        <ele>124.9</ele>
        <time>2015-04-24T13:54:33.000Z</time>
      </trkpt>
      <trkpt lat="48.47123" lon="1.48384">
        <ele>124.5</ele>
        <time>2015-04-24T13:54:41.000Z</time>
      </trkpt>
      <trkpt lat="48.47121" lon="1.48386">
        <ele>124.4</ele>
        <time>2015-04-24T13:54:43.000Z</time>
      </trkpt>
      <trkpt lat="48.47118" lon="1.48389">
        <ele>124.2</ele>
        <time>2015-04-24T13:54:49.000Z</time>
      </trkpt>
      <trkpt lat="48.47117" lon="1.4839">
        <ele>124.2</ele>
        <time>2015-04-24T13:54:57.000Z</time>
      </trkpt>
      <trkpt lat="48.47115" lon="1.48393">
        <ele>124.1</ele>
        <time>2015-04-24T13:55:04.000Z</time>
      </trkpt>
      <trkpt lat="48.47115" lon="1.48395">
        <ele>124.1</ele>
        <time>2015-04-24T13:55:09.000Z</time>
      </trkpt>
      <trkpt lat="48.47112" lon="1.48396">
        <ele>124</ele>
        <time>2015-04-24T13:55:17.000Z</time>
      </trkpt>
      <trkpt lat="48.47111" lon="1.48396">
        <ele>124</ele>
        <time>2015-04-24T13:55:23.000Z</time>
      </trkpt>
      <trkpt lat="48.47112" lon="1.48397">
        <ele>124</ele>
        <time>2015-04-24T13:55:30.000Z</time>
      </trkpt>
      <trkpt lat="48.47112" lon="1.48397">
        <ele>124</ele>
        <time>2015-04-24T13:55:35.000Z</time>
      </trkpt>
      <trkpt lat="48.4711" lon="1.48396">
        <ele>124</ele>
        <time>2015-04-24T13:55:43.000Z</time>
      </trkpt>
      <trkpt lat="48.47106" lon="1.48392">
        <ele>123.8</ele>
        <time>2015-04-24T13:55:51.000Z</time>
      </trkpt>
      <trkpt lat="48.47102" lon="1.48388">
        <ele>123.7</ele>
        <time>2015-04-24T13:55:59.000Z</time>
      </trkpt>
      <trkpt lat="48.47102" lon="1.48386">
        <ele>123.7</ele>
        <time>2015-04-24T13:56:07.000Z</time>
      </trkpt>
      <trkpt lat="48.47102" lon="1.48386">
        <ele>123.7</ele>
        <time>2015-04-24T13:56:18.000Z</time>
      </trkpt>
      <trkpt lat="48.47102" lon="1.48386">
        <ele>123.7</ele>
        <time>2015-04-24T13:56:27.000Z</time>
      </trkpt>
      <trkpt lat="48.47103" lon="1.48387">
        <ele>123.7</ele>
        <time>2015-04-24T13:56:33.000Z</time>
      </trkpt>
      <trkpt lat="48.47104" lon="1.48386">
        <ele>123.7</ele>
        <time>2015-04-24T13:56:34.000Z</time>
      </trkpt>
      <trkpt lat="48.47107" lon="1.48385">
        <ele>123.9</ele>
        <time>2015-04-24T13:56:40.000Z</time>
      </trkpt>
      <trkpt lat="48.47109" lon="1.48385">
        <ele>123.9</ele>
        <time>2015-04-24T13:56:47.000Z</time>
      </trkpt>
      <trkpt lat="48.4711" lon="1.48386">
        <ele>124</ele>
        <time>2015-04-24T13:56:54.000Z</time>
      </trkpt>
      <trkpt lat="48.47109" lon="1.48387">
        <ele>123.9</ele>
        <time>2015-04-24T13:56:59.000Z</time>
      </trkpt>
      <trkpt lat="48.47109" lon="1.48387">
        <ele>123.9</ele>
        <time>2015-04-24T13:57:04.000Z</time>
      </trkpt>
      <trkpt lat="48.47109" lon="1.48387">
        <ele>123.9</ele>
        <time>2015-04-24T13:57:12.000Z</time>
      </trkpt>
      <trkpt lat="48.47109" lon="1.4839">
        <ele>123.9</ele>
        <time>2015-04-24T13:57:18.000Z</time>
      </trkpt>
      <trkpt lat="48.47111" lon="1.48389">
        <ele>124</ele>
        <time>2015-04-24T13:57:29.000Z</time>
      </trkpt>
      <trkpt lat="48.47109" lon="1.48392">
        <ele>123.9</ele>
        <time>2015-04-24T13:57:37.000Z</time>
      </trkpt>
      <trkpt lat="48.47108" lon="1.48391">
        <ele>123.9</ele>
        <time>2015-04-24T13:57:46.000Z</time>
      </trkpt>
      <trkpt lat="48.47107" lon="1.48396">
        <ele>123.9</ele>
        <time>2015-04-24T13:57:55.000Z</time>
      </trkpt>
      <trkpt lat="48.47108" lon="1.48394">
        <ele>123.9</ele>
        <time>2015-04-24T13:58:02.000Z</time>
      </trkpt>
      <trkpt lat="48.47109" lon="1.48393">
        <ele>123.9</ele>
        <time>2015-04-24T13:58:08.000Z</time>
      </trkpt>
      <trkpt lat="48.47109" lon="1.48393">
        <ele>123.9</ele>
        <time>2015-04-24T13:58:14.000Z</time>
      </trkpt>
      <trkpt lat="48.47108" lon="1.48394">
        <ele>123.9</ele>
        <time>2015-04-24T13:58:20.000Z</time>
      </trkpt>
      <trkpt lat="48.47109" lon="1.48398">
        <ele>123.9</ele>
        <time>2015-04-24T13:58:32.000Z</time>
      </trkpt>
      <trkpt lat="48.4711" lon="1.48398">
        <ele>124</ele>
        <time>2015-04-24T13:58:39.000Z</time>
      </trkpt>
      <trkpt lat="48.4711" lon="1.48399">
        <ele>124</ele>
        <time>2015-04-24T13:58:45.000Z</time>
      </trkpt>
      <trkpt lat="48.4711" lon="1.48399">
        <ele>124</ele>
        <time>2015-04-24T13:58:50.000Z</time>
      </trkpt>
      <trkpt lat="48.47109" lon="1.48399">
        <ele>123.9</ele>
        <time>2015-04-24T13:58:55.000Z</time>
      </trkpt>
      <trkpt lat="48.47109" lon="1.48399">
        <ele>123.9</ele>
        <time>2015-04-24T13:58:56.000Z</time>
      </trkpt>
      <trkpt lat="48.47108" lon="1.48395">
        <ele>123.9</ele>
        <time>2015-04-24T13:58:59.000Z</time>
      </trkpt>
      <trkpt lat="48.47106" lon="1.48392">
        <ele>123.8</ele>
        <time>2015-04-24T13:59:01.000Z</time>
      </trkpt>
      <trkpt lat="48.47108" lon="1.48384">
        <ele>123.9</ele>
        <time>2015-04-24T13:59:07.000Z</time>
      </trkpt>
      <trkpt lat="48.47109" lon="1.48377">
        <ele>123.9</ele>
        <time>2015-04-24T13:59:10.000Z</time>
      </trkpt>
      <trkpt lat="48.47108" lon="1.48372">
        <ele>123.9</ele>
        <time>2015-04-24T13:59:12.000Z</time>
      </trkpt>
      <trkpt lat="48.47105" lon="1.48358">
        <ele>123.9</ele>
        <time>2015-04-24T13:59:18.000Z</time>
      </trkpt>
      <trkpt lat="48.47104" lon="1.48353">
        <ele>124.1</ele>
        <time>2015-04-24T13:59:20.000Z</time>
      </trkpt>
      <trkpt lat="48.47102" lon="1.48339">
        <ele>124.5</ele>
        <time>2015-04-24T13:59:26.000Z</time>
      </trkpt>
      <trkpt lat="48.47095" lon="1.48327">
        <ele>124.5</ele>
        <time>2015-04-24T13:59:34.000Z</time>
      </trkpt>
      <trkpt lat="48.47085" lon="1.48311">
        <ele>124.1</ele>
        <time>2015-04-24T13:59:44.000Z</time>
      </trkpt>
      <trkpt lat="48.47076" lon="1.48299">
        <ele>124.2</ele>
        <time>2015-04-24T13:59:53.000Z</time>
      </trkpt>
      <trkpt lat="48.47068" lon="1.48285">
        <ele>124.5</ele>
        <time>2015-04-24T14:00:02.000Z</time>
      </trkpt>
      <trkpt lat="48.4706" lon="1.48271">
        <ele>124.7</ele>
        <time>2015-04-24T14:00:11.000Z</time>
      </trkpt>
      <trkpt lat="48.47052" lon="1.48257">
        <ele>124.6</ele>
        <time>2015-04-24T14:00:20.000Z</time>
      </trkpt>
      <trkpt lat="48.47051" lon="1.48255">
        <ele>124.7</ele>
        <time>2015-04-24T14:00:21.000Z</time>
      </trkpt>
      <trkpt lat="48.47046" lon="1.48246">
        <ele>124.8</ele>
        <time>2015-04-24T14:00:27.000Z</time>
      </trkpt>
      <trkpt lat="48.47042" lon="1.48234">
        <ele>124.8</ele>
        <time>2015-04-24T14:00:34.000Z</time>
      </trkpt>
      <trkpt lat="48.47039" lon="1.4822">
        <ele>124.9</ele>
        <time>2015-04-24T14:00:42.000Z</time>
      </trkpt>
      <trkpt lat="48.47039" lon="1.48218">
        <ele>124.9</ele>
        <time>2015-04-24T14:00:43.000Z</time>
      </trkpt>
      <trkpt lat="48.47037" lon="1.48212">
        <ele>125</ele>
        <time>2015-04-24T14:00:46.000Z</time>
      </trkpt>
      <trkpt lat="48.47035" lon="1.48208">
        <ele>125.1</ele>
        <time>2015-04-24T14:00:49.000Z</time>
      </trkpt>
      <trkpt lat="48.4703" lon="1.482">
        <ele>125</ele>
        <time>2015-04-24T14:00:56.000Z</time>
      </trkpt>
      <trkpt lat="48.47029" lon="1.482">
        <ele>124.9</ele>
        <time>2015-04-24T14:01:02.000Z</time>
      </trkpt>
      <trkpt lat="48.47029" lon="1.48199">
        <ele>124.9</ele>
        <time>2015-04-24T14:01:09.000Z</time>
      </trkpt>
      <trkpt lat="48.47026" lon="1.48201">
        <ele>124.7</ele>
        <time>2015-04-24T14:01:14.000Z</time>
      </trkpt>
      <trkpt lat="48.4702" lon="1.48206">
        <ele>124.2</ele>
        <time>2015-04-24T14:01:20.000Z</time>
      </trkpt>
      <trkpt lat="48.4701" lon="1.48212">
        <ele>123.5</ele>
        <time>2015-04-24T14:01:27.000Z</time>
      </trkpt>
      <trkpt lat="48.47001" lon="1.48215">
        <ele>123</ele>
        <time>2015-04-24T14:01:33.000Z</time>
      </trkpt>
      <trkpt lat="48.46999" lon="1.48215">
        <ele>123</ele>
        <time>2015-04-24T14:01:34.000Z</time>
      </trkpt>
      <trkpt lat="48.4699" lon="1.48217">
        <ele>122.7</ele>
        <time>2015-04-24T14:01:42.000Z</time>
      </trkpt>
      <trkpt lat="48.46982" lon="1.48211">
        <ele>122.6</ele>
        <time>2015-04-24T14:01:51.000Z</time>
      </trkpt>
      <trkpt lat="48.46977" lon="1.48201">
        <ele>122.8</ele>
        <time>2015-04-24T14:01:59.000Z</time>
      </trkpt>
      <trkpt lat="48.4697" lon="1.4819">
        <ele>122.8</ele>
        <time>2015-04-24T14:02:08.000Z</time>
      </trkpt>
      <trkpt lat="48.46967" lon="1.48185">
        <ele>122.5</ele>
        <time>2015-04-24T14:02:12.000Z</time>
      </trkpt>
      <trkpt lat="48.46965" lon="1.48186">
        <ele>122.5</ele>
        <time>2015-04-24T14:02:15.000Z</time>
      </trkpt>
      <trkpt lat="48.46965" lon="1.48187">
        <ele>122.5</ele>
        <time>2015-04-24T14:02:20.000Z</time>
      </trkpt>
      <trkpt lat="48.46965" lon="1.48185">
        <ele>122.5</ele>
        <time>2015-04-24T14:02:25.000Z</time>
      </trkpt>
      <trkpt lat="48.46964" lon="1.48182">
        <ele>122.4</ele>
        <time>2015-04-24T14:02:27.000Z</time>
      </trkpt>
      <trkpt lat="48.46961" lon="1.48176">
        <ele>122.2</ele>
        <time>2015-04-24T14:02:31.000Z</time>
      </trkpt>
      <trkpt lat="48.46957" lon="1.48177">
        <ele>122.2</ele>
        <time>2015-04-24T14:02:35.000Z</time>
      </trkpt>
      <trkpt lat="48.46954" lon="1.48177">
        <ele>122.1</ele>
        <time>2015-04-24T14:02:42.000Z</time>
      </trkpt>
      <trkpt lat="48.46953" lon="1.48176">
        <ele>122.1</ele>
        <time>2015-04-24T14:02:53.000Z</time>
      </trkpt>
      <trkpt lat="48.4695" lon="1.48177">
        <ele>122.1</ele>
        <time>2015-04-24T14:02:59.000Z</time>
      </trkpt>
      <trkpt lat="48.46948" lon="1.48183">
        <ele>122.1</ele>
        <time>2015-04-24T14:03:06.000Z</time>
      </trkpt>
      <trkpt lat="48.46946" lon="1.48186">
        <ele>122.1</ele>
        <time>2015-04-24T14:03:12.000Z</time>
      </trkpt>
      <trkpt lat="48.46947" lon="1.48184">
        <ele>122.1</ele>
        <time>2015-04-24T14:03:18.000Z</time>
      </trkpt>
      <trkpt lat="48.46949" lon="1.4818">
        <ele>122.1</ele>
        <time>2015-04-24T14:03:26.000Z</time>
      </trkpt>
      <trkpt lat="48.46948" lon="1.48183">
        <ele>122.1</ele>
        <time>2015-04-24T14:03:29.000Z</time>
      </trkpt>
      <trkpt lat="48.46947" lon="1.48186">
        <ele>122.1</ele>
        <time>2015-04-24T14:03:31.000Z</time>
      </trkpt>
      <trkpt lat="48.46946" lon="1.48187">
        <ele>122.1</ele>
        <time>2015-04-24T14:03:32.000Z</time>
      </trkpt>
      <trkpt lat="48.46945" lon="1.48192">
        <ele>122</ele>
        <time>2015-04-24T14:03:36.000Z</time>
      </trkpt>
      <trkpt lat="48.46943" lon="1.48203">
        <ele>122</ele>
        <time>2015-04-24T14:03:44.000Z</time>
      </trkpt>
      <trkpt lat="48.46937" lon="1.48215">
        <ele>122</ele>
        <time>2015-04-24T14:03:51.000Z</time>
      </trkpt>
      <trkpt lat="48.4693" lon="1.48227">
        <ele>122</ele>
        <time>2015-04-24T14:03:59.000Z</time>
      </trkpt>
      <trkpt lat="48.46924" lon="1.48239">
        <ele>122</ele>
        <time>2015-04-24T14:04:07.000Z</time>
      </trkpt>
      <trkpt lat="48.46917" lon="1.4825">
        <ele>122</ele>
        <time>2015-04-24T14:04:15.000Z</time>
      </trkpt>
      <trkpt lat="48.46916" lon="1.48252">
        <ele>122</ele>
        <time>2015-04-24T14:04:16.000Z</time>
      </trkpt>
      <trkpt lat="48.46909" lon="1.48265">
        <ele>121.8</ele>
        <time>2015-04-24T14:04:25.000Z</time>
      </trkpt>
      <trkpt lat="48.46901" lon="1.48274">
        <ele>121.5</ele>
        <time>2015-04-24T14:04:33.000Z</time>
      </trkpt>
      <trkpt lat="48.46891" lon="1.48282">
        <ele>121.2</ele>
        <time>2015-04-24T14:04:42.000Z</time>
      </trkpt>
      <trkpt lat="48.46882" lon="1.48289">
        <ele>121.6</ele>
        <time>2015-04-24T14:04:50.000Z</time>
      </trkpt>
      <trkpt lat="48.46871" lon="1.483">
        <ele>121.9</ele>
        <time>2015-04-24T14:05:00.000Z</time>
      </trkpt>
      <trkpt lat="48.46856" lon="1.48308">
        <ele>121.9</ele>
        <time>2015-04-24T14:05:12.000Z</time>
      </trkpt>
      <trkpt lat="48.46848" lon="1.48313">
        <ele>122</ele>
        <time>2015-04-24T14:05:20.000Z</time>
      </trkpt>
      <trkpt lat="48.46838" lon="1.48317">
        <ele>122.3</ele>
        <time>2015-04-24T14:05:28.000Z</time>
      </trkpt>
      <trkpt lat="48.46829" lon="1.48321">
        <ele>122.6</ele>
        <time>2015-04-24T14:05:36.000Z</time>
      </trkpt>
      <trkpt lat="48.4682" lon="1.48327">
        <ele>122.9</ele>
        <time>2015-04-24T14:05:45.000Z</time>
      </trkpt>
      <trkpt lat="48.46809" lon="1.48335">
        <ele>122.9</ele>
        <time>2015-04-24T14:05:56.000Z</time>
      </trkpt>
      <trkpt lat="48.46805" lon="1.48346">
        <ele>122.5</ele>
        <time>2015-04-24T14:06:04.000Z</time>
      </trkpt>
      <trkpt lat="48.46804" lon="1.48353">
        <ele>122.2</ele>
        <time>2015-04-24T14:06:12.000Z</time>
      </trkpt>
      <trkpt lat="48.46803" lon="1.48353">
        <ele>122.2</ele>
        <time>2015-04-24T14:06:23.000Z</time>
      </trkpt>
      <trkpt lat="48.46798" lon="1.48344">
        <ele>122.4</ele>
        <time>2015-04-24T14:06:30.000Z</time>
      </trkpt>
      <trkpt lat="48.46795" lon="1.48338">
        <ele>122.5</ele>
        <time>2015-04-24T14:06:37.000Z</time>
      </trkpt>
      <trkpt lat="48.46794" lon="1.48337">
        <ele>122.4</ele>
        <time>2015-04-24T14:06:43.000Z</time>
      </trkpt>
      <trkpt lat="48.46795" lon="1.48341">
        <ele>122.4</ele>
        <time>2015-04-24T14:06:49.000Z</time>
      </trkpt>
      <trkpt lat="48.46796" lon="1.48344">
        <ele>122.3</ele>
        <time>2015-04-24T14:06:51.000Z</time>
      </trkpt>
      <trkpt lat="48.46797" lon="1.4835">
        <ele>122.1</ele>
        <time>2015-04-24T14:06:55.000Z</time>
      </trkpt>
      <trkpt lat="48.46798" lon="1.48353">
        <ele>122</ele>
        <time>2015-04-24T14:06:57.000Z</time>
      </trkpt>
      <trkpt lat="48.46799" lon="1.48355">
        <ele>122</ele>
        <time>2015-04-24T14:06:59.000Z</time>
      </trkpt>
      <trkpt lat="48.46799" lon="1.48358">
        <ele>121.9</ele>
        <time>2015-04-24T14:07:01.000Z</time>
      </trkpt>
      <trkpt lat="48.46799" lon="1.48362">
        <ele>121.7</ele>
        <time>2015-04-24T14:07:03.000Z</time>
      </trkpt>
      <trkpt lat="48.46799" lon="1.48362">
        <ele>121.7</ele>
        <time>2015-04-24T14:07:07.000Z</time>
      </trkpt>
      <trkpt lat="48.46799" lon="1.48361">
        <ele>121.8</ele>
        <time>2015-04-24T14:07:14.000Z</time>
      </trkpt>
      <trkpt lat="48.468" lon="1.48356">
        <ele>122</ele>
        <time>2015-04-24T14:07:24.000Z</time>
      </trkpt>
      <trkpt lat="48.468" lon="1.48352">
        <ele>122.1</ele>
        <time>2015-04-24T14:07:28.000Z</time>
      </trkpt>
      <trkpt lat="48.46798" lon="1.48349">
        <ele>122.2</ele>
        <time>2015-04-24T14:07:30.000Z</time>
      </trkpt>
      <trkpt lat="48.46791" lon="1.48345">
        <ele>122</ele>
        <time>2015-04-24T14:07:39.000Z</time>
      </trkpt>
      <trkpt lat="48.46796" lon="1.48344">
        <ele>122.3</ele>
        <time>2015-04-24T14:07:46.000Z</time>
      </trkpt>
      <trkpt lat="48.46802" lon="1.4834">
        <ele>122.6</ele>
        <time>2015-04-24T14:07:54.000Z</time>
      </trkpt>
      <trkpt lat="48.46803" lon="1.48339">
        <ele>122.7</ele>
        <time>2015-04-24T14:07:59.000Z</time>
      </trkpt>
      <trkpt lat="48.46807" lon="1.48339">
        <ele>122.8</ele>
        <time>2015-04-24T14:08:06.000Z</time>
      </trkpt>
      <trkpt lat="48.46814" lon="1.48335">
        <ele>122.9</ele>
        <time>2015-04-24T14:08:13.000Z</time>
      </trkpt>
      <trkpt lat="48.46822" lon="1.4833">
        <ele>122.9</ele>
        <time>2015-04-24T14:08:21.000Z</time>
      </trkpt>
      <trkpt lat="48.46827" lon="1.48327">
        <ele>122.8</ele>
        <time>2015-04-24T14:08:28.000Z</time>
      </trkpt>
      <trkpt lat="48.46831" lon="1.48324">
        <ele>122.7</ele>
        <time>2015-04-24T14:08:32.000Z</time>
      </trkpt>
      <trkpt lat="48.46832" lon="1.48321">
        <ele>122.6</ele>
        <time>2015-04-24T14:08:36.000Z</time>
      </trkpt>
      <trkpt lat="48.46832" lon="1.4832">
        <ele>122.6</ele>
        <time>2015-04-24T14:08:37.000Z</time>
      </trkpt>
      <trkpt lat="48.4683" lon="1.48312">
        <ele>122.3</ele>
        <time>2015-04-24T14:08:44.000Z</time>
      </trkpt>
      <trkpt lat="48.46829" lon="1.48309">
        <ele>122.3</ele>
        <time>2015-04-24T14:08:47.000Z</time>
      </trkpt>
      <trkpt lat="48.46826" lon="1.48308">
        <ele>122.3</ele>
        <time>2015-04-24T14:08:49.000Z</time>
      </trkpt>
      <trkpt lat="48.46819" lon="1.48308">
        <ele>122.5</ele>
        <time>2015-04-24T14:08:57.000Z</time>
      </trkpt>
      <trkpt lat="48.46814" lon="1.483">
        <ele>122.4</ele>
        <time>2015-04-24T14:09:03.000Z</time>
      </trkpt>
      <trkpt lat="48.46807" lon="1.4829">
        <ele>121.9</ele>
        <time>2015-04-24T14:09:11.000Z</time>
      </trkpt>
      <trkpt lat="48.46807" lon="1.48289">
        <ele>121.8</ele>
        <time>2015-04-24T14:09:12.000Z</time>
      </trkpt>
      <trkpt lat="48.468" lon="1.48284">
        <ele>121.6</ele>
        <time>2015-04-24T14:09:19.000Z</time>
      </trkpt>
      <trkpt lat="48.46794" lon="1.4828">
        <ele>121.5</ele>
        <time>2015-04-24T14:09:26.000Z</time>
      </trkpt>
      <trkpt lat="48.46789" lon="1.48277">
        <ele>121.6</ele>
        <time>2015-04-24T14:09:31.000Z</time>
      </trkpt>
      <trkpt lat="48.46783" lon="1.48271">
        <ele>121.6</ele>
        <time>2015-04-24T14:09:38.000Z</time>
      </trkpt>
      <trkpt lat="48.46776" lon="1.48268">
        <ele>121.7</ele>
        <time>2015-04-24T14:09:45.000Z</time>
      </trkpt>
      <trkpt lat="48.46764" lon="1.48264">
        <ele>121.5</ele>
        <time>2015-04-24T14:09:55.000Z</time>
      </trkpt>
      <trkpt lat="48.4676" lon="1.48262">
        <ele>121.4</ele>
        <time>2015-04-24T14:09:58.000Z</time>
      </trkpt>
      <trkpt lat="48.46757" lon="1.48261">
        <ele>121.4</ele>
        <time>2015-04-24T14:10:00.000Z</time>
      </trkpt>
      <trkpt lat="48.46753" lon="1.48259">
        <ele>121.3</ele>
        <time>2015-04-24T14:10:04.000Z</time>
      </trkpt>
      <trkpt lat="48.4675" lon="1.48258">
        <ele>121.3</ele>
        <time>2015-04-24T14:10:06.000Z</time>
      </trkpt>
      <trkpt lat="48.46748" lon="1.48258">
        <ele>121.3</ele>
        <time>2015-04-24T14:10:08.000Z</time>
      </trkpt>
      <trkpt lat="48.46741" lon="1.48257">
        <ele>121.2</ele>
        <time>2015-04-24T14:10:14.000Z</time>
      </trkpt>
      <trkpt lat="48.4673" lon="1.48255">
        <ele>121.2</ele>
        <time>2015-04-24T14:10:23.000Z</time>
      </trkpt>
      <trkpt lat="48.46721" lon="1.48253">
        <ele>121.1</ele>
        <time>2015-04-24T14:10:31.000Z</time>
      </trkpt>
      <trkpt lat="48.4671" lon="1.4825">
        <ele>121</ele>
        <time>2015-04-24T14:10:40.000Z</time>
      </trkpt>
      <trkpt lat="48.46707" lon="1.48251">
        <ele>121</ele>
        <time>2015-04-24T14:10:43.000Z</time>
      </trkpt>
      <trkpt lat="48.46706" lon="1.48253">
        <ele>121</ele>
        <time>2015-04-24T14:10:45.000Z</time>
      </trkpt>
      <trkpt lat="48.46703" lon="1.48265">
        <ele>121.2</ele>
        <time>2015-04-24T14:10:53.000Z</time>
      </trkpt>
      <trkpt lat="48.46702" lon="1.48275">
        <ele>121.2</ele>
        <time>2015-04-24T14:10:59.000Z</time>
      </trkpt>
      <trkpt lat="48.46701" lon="1.4828">
        <ele>121.3</ele>
        <time>2015-04-24T14:11:02.000Z</time>
      </trkpt>
      <trkpt lat="48.46701" lon="1.48283">
        <ele>121.4</ele>
        <time>2015-04-24T14:11:04.000Z</time>
      </trkpt>
      <trkpt lat="48.46701" lon="1.48291">
        <ele>121.6</ele>
        <time>2015-04-24T14:11:10.000Z</time>
      </trkpt>
      <trkpt lat="48.46701" lon="1.48294">
        <ele>121.7</ele>
        <time>2015-04-24T14:11:12.000Z</time>
      </trkpt>
      <trkpt lat="48.467" lon="1.48299">
        <ele>121.8</ele>
        <time>2015-04-24T14:11:15.000Z</time>
      </trkpt>
      <trkpt lat="48.46699" lon="1.48302">
        <ele>121.9</ele>
        <time>2015-04-24T14:11:17.000Z</time>
      </trkpt>
      <trkpt lat="48.46698" lon="1.48307">
        <ele>122</ele>
        <time>2015-04-24T14:11:23.000Z</time>
      </trkpt>
      <trkpt lat="48.46696" lon="1.48309">
        <ele>122</ele>
        <time>2015-04-24T14:11:29.000Z</time>
      </trkpt>
      <trkpt lat="48.46696" lon="1.48311">
        <ele>122</ele>
        <time>2015-04-24T14:11:36.000Z</time>
      </trkpt>
      <trkpt lat="48.46693" lon="1.48314">
        <ele>121.9</ele>
        <time>2015-04-24T14:11:43.000Z</time>
      </trkpt>
      <trkpt lat="48.4669" lon="1.4832">
        <ele>121.8</ele>
        <time>2015-04-24T14:11:48.000Z</time>
      </trkpt>
      <trkpt lat="48.46683" lon="1.48323">
        <ele>121.3</ele>
        <time>2015-04-24T14:11:55.000Z</time>
      </trkpt>
      <trkpt lat="48.46676" lon="1.48321">
        <ele>121</ele>
        <time>2015-04-24T14:12:00.000Z</time>
      </trkpt>
      <trkpt lat="48.46672" lon="1.48319">
        <ele>120.8</ele>
        <time>2015-04-24T14:12:04.000Z</time>
      </trkpt>
      <trkpt lat="48.46668" lon="1.48318">
        <ele>120.6</ele>
        <time>2015-04-24T14:12:07.000Z</time>
      </trkpt>
      <trkpt lat="48.46658" lon="1.48316">
        <ele>120.6</ele>
        <time>2015-04-24T14:12:15.000Z</time>
      </trkpt>
      <trkpt lat="48.46647" lon="1.48314">
        <ele>120.7</ele>
        <time>2015-04-24T14:12:24.000Z</time>
      </trkpt>
      <trkpt lat="48.46646" lon="1.48313">
        <ele>120.7</ele>
        <time>2015-04-24T14:12:25.000Z</time>
      </trkpt>
      <trkpt lat="48.46641" lon="1.48313">
        <ele>120.7</ele>
        <time>2015-04-24T14:12:30.000Z</time>
      </trkpt>
      <trkpt lat="48.46639" lon="1.48313">
        <ele>120.7</ele>
        <time>2015-04-24T14:12:31.000Z</time>
      </trkpt>
      <trkpt lat="48.46627" lon="1.48313">
        <ele>121.2</ele>
        <time>2015-04-24T14:12:40.000Z</time>
      </trkpt>
      <trkpt lat="48.46617" lon="1.48312">
        <ele>121.6</ele>
        <time>2015-04-24T14:12:48.000Z</time>
      </trkpt>
      <trkpt lat="48.46616" lon="1.48311">
        <ele>121.6</ele>
        <time>2015-04-24T14:12:49.000Z</time>
      </trkpt>
      <trkpt lat="48.46613" lon="1.48309">
        <ele>121.8</ele>
        <time>2015-04-24T14:12:52.000Z</time>
      </trkpt>
      <trkpt lat="48.46605" lon="1.48309">
        <ele>121.9</ele>
        <time>2015-04-24T14:12:58.000Z</time>
      </trkpt>
      <trkpt lat="48.46599" lon="1.48308">
        <ele>121.9</ele>
        <time>2015-04-24T14:13:03.000Z</time>
      </trkpt>
      <trkpt lat="48.46596" lon="1.48309">
        <ele>121.9</ele>
        <time>2015-04-24T14:13:06.000Z</time>
      </trkpt>
      <trkpt lat="48.46592" lon="1.48309">
        <ele>122</ele>
        <time>2015-04-24T14:13:09.000Z</time>
      </trkpt>
      <trkpt lat="48.46585" lon="1.48308">
        <ele>122</ele>
        <time>2015-04-24T14:13:14.000Z</time>
      </trkpt>
      <trkpt lat="48.46583" lon="1.48309">
        <ele>122</ele>
        <time>2015-04-24T14:13:16.000Z</time>
      </trkpt>
      <trkpt lat="48.4658" lon="1.48311">
        <ele>122</ele>
        <time>2015-04-24T14:13:18.000Z</time>
      </trkpt>
      <trkpt lat="48.46577" lon="1.48313">
        <ele>121.9</ele>
        <time>2015-04-24T14:13:21.000Z</time>
      </trkpt>
      <trkpt lat="48.46573" lon="1.48313">
        <ele>121.9</ele>
        <time>2015-04-24T14:13:28.000Z</time>
      </trkpt>
      <trkpt lat="48.46573" lon="1.48312">
        <ele>121.9</ele>
        <time>2015-04-24T14:13:33.000Z</time>
      </trkpt>
      <trkpt lat="48.46572" lon="1.4831">
        <ele>121.9</ele>
        <time>2015-04-24T14:13:39.000Z</time>
      </trkpt>
      <trkpt lat="48.46566" lon="1.4831">
        <ele>121.9</ele>
        <time>2015-04-24T14:13:46.000Z</time>
      </trkpt>
      <trkpt lat="48.46559" lon="1.48312">
        <ele>121.8</ele>
        <time>2015-04-24T14:13:53.000Z</time>
      </trkpt>
      <trkpt lat="48.46552" lon="1.48312">
        <ele>121.8</ele>
        <time>2015-04-24T14:13:58.000Z</time>
      </trkpt>
      <trkpt lat="48.46546" lon="1.48311">
        <ele>122</ele>
        <time>2015-04-24T14:14:03.000Z</time>
      </trkpt>
      <trkpt lat="48.46536" lon="1.48311">
        <ele>122.2</ele>
        <time>2015-04-24T14:14:11.000Z</time>
      </trkpt>
      <trkpt lat="48.46532" lon="1.48312">
        <ele>122.2</ele>
        <time>2015-04-24T14:14:18.000Z</time>
      </trkpt>
      <trkpt lat="48.46531" lon="1.48312">
        <ele>122.2</ele>
        <time>2015-04-24T14:14:30.000Z</time>
      </trkpt>
      <trkpt lat="48.4653" lon="1.48313">
        <ele>122.2</ele>
        <time>2015-04-24T14:14:40.000Z</time>
      </trkpt>
      <trkpt lat="48.4653" lon="1.48313">
        <ele>122.2</ele>
        <time>2015-04-24T14:14:50.000Z</time>
      </trkpt>
      <trkpt lat="48.4653" lon="1.48312">
        <ele>122.3</ele>
        <time>2015-04-24T14:14:59.000Z</time>
      </trkpt>
      <trkpt lat="48.46529" lon="1.48311">
        <ele>122.4</ele>
        <time>2015-04-24T14:15:10.000Z</time>
      </trkpt>
      <trkpt lat="48.46525" lon="1.48307">
        <ele>122.7</ele>
        <time>2015-04-24T14:15:16.000Z</time>
      </trkpt>
      <trkpt lat="48.46524" lon="1.48306">
        <ele>122.6</ele>
        <time>2015-04-24T14:15:17.000Z</time>
      </trkpt>
      <trkpt lat="48.46518" lon="1.48305">
        <ele>122.3</ele>
        <time>2015-04-24T14:15:22.000Z</time>
      </trkpt>
      <trkpt lat="48.46509" lon="1.48304">
        <ele>121.7</ele>
        <time>2015-04-24T14:15:31.000Z</time>
      </trkpt>
      <trkpt lat="48.46502" lon="1.48301">
        <ele>121.3</ele>
        <time>2015-04-24T14:15:38.000Z</time>
      </trkpt>
      <trkpt lat="48.46493" lon="1.48296">
        <ele>121.2</ele>
        <time>2015-04-24T14:15:46.000Z</time>
      </trkpt>
      <trkpt lat="48.46492" lon="1.48295">
        <ele>121.2</ele>
        <time>2015-04-24T14:15:48.000Z</time>
      </trkpt>
      <trkpt lat="48.46489" lon="1.48294">
        <ele>121.2</ele>
        <time>2015-04-24T14:15:50.000Z</time>
      </trkpt>
      <trkpt lat="48.46486" lon="1.48292">
        <ele>121.2</ele>
        <time>2015-04-24T14:15:53.000Z</time>
      </trkpt>
      <trkpt lat="48.46483" lon="1.48292">
        <ele>121.2</ele>
        <time>2015-04-24T14:15:56.000Z</time>
      </trkpt>
      <trkpt lat="48.46478" lon="1.48288">
        <ele>121.4</ele>
        <time>2015-04-24T14:16:02.000Z</time>
      </trkpt>
      <trkpt lat="48.4647" lon="1.48284">
        <ele>121.5</ele>
        <time>2015-04-24T14:16:09.000Z</time>
      </trkpt>
      <trkpt lat="48.46459" lon="1.48282">
        <ele>121.3</ele>
        <time>2015-04-24T14:16:17.000Z</time>
      </trkpt>
      <trkpt lat="48.4645" lon="1.48281">
        <ele>121.1</ele>
        <time>2015-04-24T14:16:24.000Z</time>
      </trkpt>
      <trkpt lat="48.46444" lon="1.48282">
        <ele>120.9</ele>
        <time>2015-04-24T14:16:30.000Z</time>
      </trkpt>
      <trkpt lat="48.46439" lon="1.48284">
        <ele>121</ele>
        <time>2015-04-24T14:16:34.000Z</time>
      </trkpt>
      <trkpt lat="48.46435" lon="1.48285">
        <ele>121.1</ele>
        <time>2015-04-24T14:16:37.000Z</time>
      </trkpt>
      <trkpt lat="48.46434" lon="1.48285">
        <ele>121.1</ele>
        <time>2015-04-24T14:16:38.000Z</time>
      </trkpt>
      <trkpt lat="48.46425" lon="1.48288">
        <ele>121.3</ele>
        <time>2015-04-24T14:16:45.000Z</time>
      </trkpt>
      <trkpt lat="48.46415" lon="1.48288">
        <ele>121.8</ele>
        <time>2015-04-24T14:16:53.000Z</time>
      </trkpt>
      <trkpt lat="48.46412" lon="1.48287">
        <ele>122.2</ele>
        <time>2015-04-24T14:17:00.000Z</time>
      </trkpt>
      <trkpt lat="48.4641" lon="1.48288">
        <ele>122.4</ele>
        <time>2015-04-24T14:17:07.000Z</time>
      </trkpt>
      <trkpt lat="48.46407" lon="1.48289">
        <ele>122.5</ele>
        <time>2015-04-24T14:17:12.000Z</time>
      </trkpt>
      <trkpt lat="48.46406" lon="1.48291">
        <ele>122.6</ele>
        <time>2015-04-24T14:17:14.000Z</time>
      </trkpt>
      <trkpt lat="48.46405" lon="1.48292">
        <ele>122.5</ele>
        <time>2015-04-24T14:17:16.000Z</time>
      </trkpt>
      <trkpt lat="48.46404" lon="1.48293">
        <ele>122.6</ele>
        <time>2015-04-24T14:17:17.000Z</time>
      </trkpt>
      <trkpt lat="48.46401" lon="1.48294">
        <ele>122.7</ele>
        <time>2015-04-24T14:17:19.000Z</time>
      </trkpt>
      <trkpt lat="48.46396" lon="1.48294">
        <ele>123.1</ele>
        <time>2015-04-24T14:17:23.000Z</time>
      </trkpt>
      <trkpt lat="48.46393" lon="1.48296">
        <ele>123.1</ele>
        <time>2015-04-24T14:17:28.000Z</time>
      </trkpt>
      <trkpt lat="48.46385" lon="1.48304">
        <ele>122.4</ele>
        <time>2015-04-24T14:17:35.000Z</time>
      </trkpt>
      <trkpt lat="48.46379" lon="1.4831">
        <ele>122.1</ele>
        <time>2015-04-24T14:17:41.000Z</time>
      </trkpt>
      <trkpt lat="48.4637" lon="1.48317">
        <ele>122</ele>
        <time>2015-04-24T14:17:49.000Z</time>
      </trkpt>
      <trkpt lat="48.46363" lon="1.48323">
        <ele>121.7</ele>
        <time>2015-04-24T14:17:56.000Z</time>
      </trkpt>
      <trkpt lat="48.46362" lon="1.48324">
        <ele>121.6</ele>
        <time>2015-04-24T14:17:58.000Z</time>
      </trkpt>
      <trkpt lat="48.46358" lon="1.48331">
        <ele>121.4</ele>
        <time>2015-04-24T14:18:03.000Z</time>
      </trkpt>
      <trkpt lat="48.46352" lon="1.4834">
        <ele>121.6</ele>
        <time>2015-04-24T14:18:10.000Z</time>
      </trkpt>
      <trkpt lat="48.46346" lon="1.48345">
        <ele>121.9</ele>
        <time>2015-04-24T14:18:16.000Z</time>
      </trkpt>
      <trkpt lat="48.4634" lon="1.4835">
        <ele>122.1</ele>
        <time>2015-04-24T14:18:22.000Z</time>
      </trkpt>
      <trkpt lat="48.46339" lon="1.4835">
        <ele>122.1</ele>
        <time>2015-04-24T14:18:23.000Z</time>
      </trkpt>
      <trkpt lat="48.46336" lon="1.48353">
        <ele>122.2</ele>
        <time>2015-04-24T14:18:26.000Z</time>
      </trkpt>
      <trkpt lat="48.46332" lon="1.48357">
        <ele>122.2</ele>
        <time>2015-04-24T14:18:28.000Z</time>
      </trkpt>
      <trkpt lat="48.4633" lon="1.4836">
        <ele>122.2</ele>
        <time>2015-04-24T14:18:30.000Z</time>
      </trkpt>
      <trkpt lat="48.46324" lon="1.48368">
        <ele>122.1</ele>
        <time>2015-04-24T14:18:37.000Z</time>
      </trkpt>
      <trkpt lat="48.46316" lon="1.4838">
        <ele>121.9</ele>
        <time>2015-04-24T14:18:47.000Z</time>
      </trkpt>
      <trkpt lat="48.46314" lon="1.48382">
        <ele>121.9</ele>
        <time>2015-04-24T14:18:49.000Z</time>
      </trkpt>
      <trkpt lat="48.46311" lon="1.48388">
        <ele>121.9</ele>
        <time>2015-04-24T14:18:54.000Z</time>
      </trkpt>
      <trkpt lat="48.46306" lon="1.48393">
        <ele>121.8</ele>
        <time>2015-04-24T14:19:01.000Z</time>
      </trkpt>
      <trkpt lat="48.46302" lon="1.484">
        <ele>121.7</ele>
        <time>2015-04-24T14:19:09.000Z</time>
      </trkpt>
      <trkpt lat="48.46301" lon="1.48405">
        <ele>121.5</ele>
        <time>2015-04-24T14:19:15.000Z</time>
      </trkpt>
      <trkpt lat="48.463" lon="1.48406">
        <ele>121.5</ele>
        <time>2015-04-24T14:19:16.000Z</time>
      </trkpt>
      <trkpt lat="48.46293" lon="1.48416">
        <ele>121.5</ele>
        <time>2015-04-24T14:19:24.000Z</time>
      </trkpt>
      <trkpt lat="48.46285" lon="1.48424">
        <ele>121.7</ele>
        <time>2015-04-24T14:19:32.000Z</time>
      </trkpt>
      <trkpt lat="48.46281" lon="1.4843">
        <ele>121.6</ele>
        <time>2015-04-24T14:19:38.000Z</time>
      </trkpt>
      <trkpt lat="48.46278" lon="1.48434">
        <ele>121.4</ele>
        <time>2015-04-24T14:19:44.000Z</time>
      </trkpt>
      <trkpt lat="48.46278" lon="1.48434">
        <ele>121.4</ele>
        <time>2015-04-24T14:19:50.000Z</time>
      </trkpt>
      <trkpt lat="48.46276" lon="1.48438">
        <ele>121.3</ele>
        <time>2015-04-24T14:19:58.000Z</time>
      </trkpt>
      <trkpt lat="48.46275" lon="1.48439">
        <ele>121.3</ele>
        <time>2015-04-24T14:19:59.000Z</time>
      </trkpt>
      <trkpt lat="48.46269" lon="1.48445">
        <ele>121.3</ele>
        <time>2015-04-24T14:20:06.000Z</time>
      </trkpt>
      <trkpt lat="48.46263" lon="1.4845">
        <ele>121.6</ele>
        <time>2015-04-24T14:20:13.000Z</time>
      </trkpt>
      <trkpt lat="48.46257" lon="1.48458">
        <ele>121.6</ele>
        <time>2015-04-24T14:20:20.000Z</time>
      </trkpt>
      <trkpt lat="48.46251" lon="1.48465">
        <ele>121.3</ele>
        <time>2015-04-24T14:20:27.000Z</time>
      </trkpt>
      <trkpt lat="48.46245" lon="1.48472">
        <ele>121.2</ele>
        <time>2015-04-24T14:20:34.000Z</time>
      </trkpt>
      <trkpt lat="48.46244" lon="1.48475">
        <ele>121.2</ele>
        <time>2015-04-24T14:20:36.000Z</time>
      </trkpt>
      <trkpt lat="48.46239" lon="1.48481">
        <ele>121.4</ele>
        <time>2015-04-24T14:20:42.000Z</time>
      </trkpt>
      <trkpt lat="48.46232" lon="1.48487">
        <ele>121.7</ele>
        <time>2015-04-24T14:20:49.000Z</time>
      </trkpt>
      <trkpt lat="48.46227" lon="1.48492">
        <ele>121.8</ele>
        <time>2015-04-24T14:20:54.000Z</time>
      </trkpt>
      <trkpt lat="48.46224" lon="1.48497">
        <ele>121.9</ele>
        <time>2015-04-24T14:20:58.000Z</time>
      </trkpt>
      <trkpt lat="48.46222" lon="1.48498">
        <ele>122</ele>
        <time>2015-04-24T14:21:00.000Z</time>
      </trkpt>
      <trkpt lat="48.46219" lon="1.48502">
        <ele>121.9</ele>
        <time>2015-04-24T14:21:04.000Z</time>
      </trkpt>
      <trkpt lat="48.46214" lon="1.48505">
        <ele>121.9</ele>
        <time>2015-04-24T14:21:08.000Z</time>
      </trkpt>
      <trkpt lat="48.46212" lon="1.48508">
        <ele>121.8</ele>
        <time>2015-04-24T14:21:11.000Z</time>
      </trkpt>
      <trkpt lat="48.46209" lon="1.48511">
        <ele>121.8</ele>
        <time>2015-04-24T14:21:14.000Z</time>
      </trkpt>
      <trkpt lat="48.46204" lon="1.48514">
        <ele>121.8</ele>
        <time>2015-04-24T14:21:19.000Z</time>
      </trkpt>
      <trkpt lat="48.46203" lon="1.48514">
        <ele>121.8</ele>
        <time>2015-04-24T14:21:20.000Z</time>
      </trkpt>
      <trkpt lat="48.46198" lon="1.48514">
        <ele>121.9</ele>
        <time>2015-04-24T14:21:27.000Z</time>
      </trkpt>
      <trkpt lat="48.46197" lon="1.48515">
        <ele>122</ele>
        <time>2015-04-24T14:21:30.000Z</time>
      </trkpt>
      <trkpt lat="48.46196" lon="1.48516">
        <ele>122</ele>
        <time>2015-04-24T14:21:32.000Z</time>
      </trkpt>
      <trkpt lat="48.46191" lon="1.48522">
        <ele>122</ele>
        <time>2015-04-24T14:21:38.000Z</time>
      </trkpt>
      <trkpt lat="48.46191" lon="1.48523">
        <ele>122</ele>
        <time>2015-04-24T14:21:39.000Z</time>
      </trkpt>
      <trkpt lat="48.46185" lon="1.48525">
        <ele>122</ele>
        <time>2015-04-24T14:21:44.000Z</time>
      </trkpt>
      <trkpt lat="48.46184" lon="1.48525">
        <ele>122</ele>
        <time>2015-04-24T14:21:45.000Z</time>
      </trkpt>
      <trkpt lat="48.46175" lon="1.48524">
        <ele>122</ele>
        <time>2015-04-24T14:21:52.000Z</time>
      </trkpt>
      <trkpt lat="48.46171" lon="1.48525">
        <ele>122</ele>
        <time>2015-04-24T14:21:56.000Z</time>
      </trkpt>
      <trkpt lat="48.46169" lon="1.48525">
        <ele>122</ele>
        <time>2015-04-24T14:21:58.000Z</time>
      </trkpt>
      <trkpt lat="48.46162" lon="1.48532">
        <ele>122</ele>
        <time>2015-04-24T14:22:05.000Z</time>
      </trkpt>
      <trkpt lat="48.46155" lon="1.48543">
        <ele>122.2</ele>
        <time>2015-04-24T14:22:13.000Z</time>
      </trkpt>
      <trkpt lat="48.46147" lon="1.48554">
        <ele>122.7</ele>
        <time>2015-04-24T14:22:22.000Z</time>
      </trkpt>
      <trkpt lat="48.46139" lon="1.48566">
        <ele>122.6</ele>
        <time>2015-04-24T14:22:31.000Z</time>
      </trkpt>
      <trkpt lat="48.46131" lon="1.48578">
        <ele>122.4</ele>
        <time>2015-04-24T14:22:40.000Z</time>
      </trkpt>
      <trkpt lat="48.46126" lon="1.48586">
        <ele>122.4</ele>
        <time>2015-04-24T14:22:47.000Z</time>
      </trkpt>
      <trkpt lat="48.46123" lon="1.48589">
        <ele>122.4</ele>
        <time>2015-04-24T14:22:50.000Z</time>
      </trkpt>
      <trkpt lat="48.46119" lon="1.48593">
        <ele>122.4</ele>
        <time>2015-04-24T14:22:54.000Z</time>
      </trkpt>
      <trkpt lat="48.46118" lon="1.48596">
        <ele>122.3</ele>
        <time>2015-04-24T14:22:57.000Z</time>
      </trkpt>
      <trkpt lat="48.46118" lon="1.48597">
        <ele>122.3</ele>
        <time>2015-04-24T14:22:59.000Z</time>
      </trkpt>
      <trkpt lat="48.46117" lon="1.48598">
        <ele>122.3</ele>
        <time>2015-04-24T14:23:11.000Z</time>
      </trkpt>
      <trkpt lat="48.46113" lon="1.48604">
        <ele>122.2</ele>
        <time>2015-04-24T14:23:18.000Z</time>
      </trkpt>
      <trkpt lat="48.46113" lon="1.4861">
        <ele>122</ele>
        <time>2015-04-24T14:23:25.000Z</time>
      </trkpt>
      <trkpt lat="48.46115" lon="1.48616">
        <ele>121.8</ele>
        <time>2015-04-24T14:23:33.000Z</time>
      </trkpt>
      <trkpt lat="48.46117" lon="1.48619">
        <ele>121.8</ele>
        <time>2015-04-24T14:23:39.000Z</time>
      </trkpt>
      <trkpt lat="48.46118" lon="1.4862">
        <ele>121.7</ele>
        <time>2015-04-24T14:23:45.000Z</time>
      </trkpt>
      <trkpt lat="48.46117" lon="1.48622">
        <ele>121.8</ele>
        <time>2015-04-24T14:24:00.000Z</time>
      </trkpt>
      <trkpt lat="48.46121" lon="1.4862">
        <ele>121.7</ele>
        <time>2015-04-24T14:24:07.000Z</time>
      </trkpt>
      <trkpt lat="48.46124" lon="1.48619">
        <ele>121.5</ele>
        <time>2015-04-24T14:24:13.000Z</time>
      </trkpt>
      <trkpt lat="48.46125" lon="1.48619">
        <ele>121.5</ele>
        <time>2015-04-24T14:24:19.000Z</time>
      </trkpt>
      <trkpt lat="48.46127" lon="1.4862">
        <ele>121.4</ele>
        <time>2015-04-24T14:24:28.000Z</time>
      </trkpt>
      <trkpt lat="48.46128" lon="1.48619">
        <ele>121.4</ele>
        <time>2015-04-24T14:24:36.000Z</time>
      </trkpt>
      <trkpt lat="48.46132" lon="1.48621">
        <ele>121.2</ele>
        <time>2015-04-24T14:24:45.000Z</time>
      </trkpt>
      <trkpt lat="48.46132" lon="1.48618">
        <ele>121.2</ele>
        <time>2015-04-24T14:24:53.000Z</time>
      </trkpt>
      <trkpt lat="48.46128" lon="1.48618">
        <ele>121.4</ele>
        <time>2015-04-24T14:24:58.000Z</time>
      </trkpt>
      <trkpt lat="48.46118" lon="1.48618">
        <ele>121.8</ele>
        <time>2015-04-24T14:25:04.000Z</time>
      </trkpt>
      <trkpt lat="48.4611" lon="1.48618">
        <ele>122</ele>
        <time>2015-04-24T14:25:12.000Z</time>
      </trkpt>
      <trkpt lat="48.46104" lon="1.48621">
        <ele>122</ele>
        <time>2015-04-24T14:25:20.000Z</time>
      </trkpt>
      <trkpt lat="48.461" lon="1.48627">
        <ele>122</ele>
        <time>2015-04-24T14:25:27.000Z</time>
      </trkpt>
      <trkpt lat="48.46097" lon="1.48629">
        <ele>122</ele>
        <time>2015-04-24T14:25:30.000Z</time>
      </trkpt>
      <trkpt lat="48.46094" lon="1.48632">
        <ele>122</ele>
        <time>2015-04-24T14:25:34.000Z</time>
      </trkpt>
      <trkpt lat="48.46088" lon="1.48638">
        <ele>122</ele>
        <time>2015-04-24T14:25:42.000Z</time>
      </trkpt>
      <trkpt lat="48.46086" lon="1.48639">
        <ele>122</ele>
        <time>2015-04-24T14:25:44.000Z</time>
      </trkpt>
      <trkpt lat="48.46082" lon="1.48644">
        <ele>122</ele>
        <time>2015-04-24T14:25:49.000Z</time>
      </trkpt>
      <trkpt lat="48.46076" lon="1.4865">
        <ele>122</ele>
        <time>2015-04-24T14:25:56.000Z</time>
      </trkpt>
      <trkpt lat="48.46071" lon="1.48658">
        <ele>122</ele>
        <time>2015-04-24T14:26:03.000Z</time>
      </trkpt>
      <trkpt lat="48.4607" lon="1.48658">
        <ele>122</ele>
        <time>2015-04-24T14:26:04.000Z</time>
      </trkpt>
      <trkpt lat="48.46065" lon="1.48666">
        <ele>122</ele>
        <time>2015-04-24T14:26:11.000Z</time>
      </trkpt>
      <trkpt lat="48.46063" lon="1.48668">
        <ele>122</ele>
        <time>2015-04-24T14:26:13.000Z</time>
      </trkpt>
      <trkpt lat="48.46059" lon="1.48673">
        <ele>122</ele>
        <time>2015-04-24T14:26:18.000Z</time>
      </trkpt>
      <trkpt lat="48.46058" lon="1.48675">
        <ele>122</ele>
        <time>2015-04-24T14:26:19.000Z</time>
      </trkpt>
      <trkpt lat="48.46055" lon="1.48681">
        <ele>122</ele>
        <time>2015-04-24T14:26:25.000Z</time>
      </trkpt>
      <trkpt lat="48.4605" lon="1.48687">
        <ele>122.2</ele>
        <time>2015-04-24T14:26:31.000Z</time>
      </trkpt>
      <trkpt lat="48.46049" lon="1.48688">
        <ele>122.2</ele>
        <time>2015-04-24T14:26:32.000Z</time>
      </trkpt>
      <trkpt lat="48.46042" lon="1.48697">
        <ele>122.4</ele>
        <time>2015-04-24T14:26:41.000Z</time>
      </trkpt>
      <trkpt lat="48.46036" lon="1.48706">
        <ele>122.4</ele>
        <time>2015-04-24T14:26:49.000Z</time>
      </trkpt>
      <trkpt lat="48.46029" lon="1.48714">
        <ele>122.3</ele>
        <time>2015-04-24T14:26:57.000Z</time>
      </trkpt>
      <trkpt lat="48.46023" lon="1.48725">
        <ele>122.2</ele>
        <time>2015-04-24T14:27:06.000Z</time>
      </trkpt>
      <trkpt lat="48.4602" lon="1.48729">
        <ele>122.2</ele>
        <time>2015-04-24T14:27:10.000Z</time>
      </trkpt>
      <trkpt lat="48.46019" lon="1.48731">
        <ele>122.2</ele>
        <time>2015-04-24T14:27:12.000Z</time>
      </trkpt>
      <trkpt lat="48.46015" lon="1.48736">
        <ele>122.2</ele>
        <time>2015-04-24T14:27:19.000Z</time>
      </trkpt>
      <trkpt lat="48.46014" lon="1.48737">
        <ele>122.2</ele>
        <time>2015-04-24T14:27:20.000Z</time>
      </trkpt>
      <trkpt lat="48.46009" lon="1.48741">
        <ele>122.2</ele>
        <time>2015-04-24T14:27:25.000Z</time>
      </trkpt>
      <trkpt lat="48.46004" lon="1.48746">
        <ele>122.1</ele>
        <time>2015-04-24T14:27:31.000Z</time>
      </trkpt>
      <trkpt lat="48.45998" lon="1.48752">
        <ele>122.1</ele>
        <time>2015-04-24T14:27:38.000Z</time>
      </trkpt>
      <trkpt lat="48.45994" lon="1.48757">
        <ele>122.2</ele>
        <time>2015-04-24T14:27:44.000Z</time>
      </trkpt>
      <trkpt lat="48.45989" lon="1.4876">
        <ele>122.4</ele>
        <time>2015-04-24T14:27:51.000Z</time>
      </trkpt>
      <trkpt lat="48.45988" lon="1.48761">
        <ele>122.4</ele>
        <time>2015-04-24T14:27:58.000Z</time>
      </trkpt>
      <trkpt lat="48.45989" lon="1.48761">
        <ele>122.4</ele>
        <time>2015-04-24T14:28:08.000Z</time>
      </trkpt>
      <trkpt lat="48.45986" lon="1.48767">
        <ele>122.5</ele>
        <time>2015-04-24T14:28:15.000Z</time>
      </trkpt>
      <trkpt lat="48.45986" lon="1.48769">
        <ele>122.5</ele>
        <time>2015-04-24T14:28:25.000Z</time>
      </trkpt>
      <trkpt lat="48.45988" lon="1.48769">
        <ele>122.4</ele>
        <time>2015-04-24T14:28:38.000Z</time>
      </trkpt>
      <trkpt lat="48.45989" lon="1.48769">
        <ele>122.4</ele>
        <time>2015-04-24T14:28:55.000Z</time>
      </trkpt>
      <trkpt lat="48.45986" lon="1.48771">
        <ele>122.5</ele>
        <time>2015-04-24T14:29:15.000Z</time>
      </trkpt>
      <trkpt lat="48.45986" lon="1.48772">
        <ele>122.5</ele>
        <time>2015-04-24T14:29:26.000Z</time>
      </trkpt>
      <trkpt lat="48.45983" lon="1.48773">
        <ele>122.6</ele>
        <time>2015-04-24T14:29:36.000Z</time>
      </trkpt>
      <trkpt lat="48.45983" lon="1.48774">
        <ele>122.6</ele>
        <time>2015-04-24T14:29:37.000Z</time>
      </trkpt>
      <trkpt lat="48.45979" lon="1.48777">
        <ele>122.8</ele>
        <time>2015-04-24T14:29:42.000Z</time>
      </trkpt>
      <trkpt lat="48.45977" lon="1.48778">
        <ele>122.8</ele>
        <time>2015-04-24T14:29:44.000Z</time>
      </trkpt>
      <trkpt lat="48.45976" lon="1.4878">
        <ele>122.8</ele>
        <time>2015-04-24T14:29:47.000Z</time>
      </trkpt>
      <trkpt lat="48.45974" lon="1.48781">
        <ele>122.8</ele>
        <time>2015-04-24T14:29:49.000Z</time>
      </trkpt>
      <trkpt lat="48.45967" lon="1.48785">
        <ele>122.8</ele>
        <time>2015-04-24T14:29:55.000Z</time>
      </trkpt>
      <trkpt lat="48.4596" lon="1.4879">
        <ele>122.8</ele>
        <time>2015-04-24T14:30:01.000Z</time>
      </trkpt>
      <trkpt lat="48.45952" lon="1.48795">
        <ele>122.8</ele>
        <time>2015-04-24T14:30:08.000Z</time>
      </trkpt>
      <trkpt lat="48.45945" lon="1.48802">
        <ele>123</ele>
        <time>2015-04-24T14:30:16.000Z</time>
      </trkpt>
      <trkpt lat="48.45937" lon="1.48808">
        <ele>122.9</ele>
        <time>2015-04-24T14:30:24.000Z</time>
      </trkpt>
      <trkpt lat="48.45929" lon="1.4882">
        <ele>122.8</ele>
        <time>2015-04-24T14:30:33.000Z</time>
      </trkpt>
      <trkpt lat="48.45922" lon="1.4883">
        <ele>122.8</ele>
        <time>2015-04-24T14:30:41.000Z</time>
      </trkpt>
      <trkpt lat="48.45919" lon="1.48836">
        <ele>122.8</ele>
        <time>2015-04-24T14:30:47.000Z</time>
      </trkpt>
      <trkpt lat="48.45913" lon="1.48838">
        <ele>122.9</ele>
        <time>2015-04-24T14:30:52.000Z</time>
      </trkpt>
      <trkpt lat="48.45908" lon="1.4884">
        <ele>122.8</ele>
        <time>2015-04-24T14:30:58.000Z</time>
      </trkpt>
      <trkpt lat="48.45904" lon="1.48842">
        <ele>122.8</ele>
        <time>2015-04-24T14:31:04.000Z</time>
      </trkpt>
      <trkpt lat="48.45895" lon="1.48845">
        <ele>122.9</ele>
        <time>2015-04-24T14:31:12.000Z</time>
      </trkpt>
      <trkpt lat="48.45891" lon="1.48855">
        <ele>122.9</ele>
        <time>2015-04-24T14:31:20.000Z</time>
      </trkpt>
      <trkpt lat="48.4589" lon="1.48859">
        <ele>123</ele>
        <time>2015-04-24T14:31:23.000Z</time>
      </trkpt>
      <trkpt lat="48.45889" lon="1.48863">
        <ele>123.1</ele>
        <time>2015-04-24T14:31:26.000Z</time>
      </trkpt>
      <trkpt lat="48.45888" lon="1.4887">
        <ele>123.3</ele>
        <time>2015-04-24T14:31:30.000Z</time>
      </trkpt>
      <trkpt lat="48.4589" lon="1.48874">
        <ele>123.4</ele>
        <time>2015-04-24T14:31:33.000Z</time>
      </trkpt>
      <trkpt lat="48.45892" lon="1.48879">
        <ele>123.5</ele>
        <time>2015-04-24T14:31:37.000Z</time>
      </trkpt>
      <trkpt lat="48.45893" lon="1.48881">
        <ele>123.5</ele>
        <time>2015-04-24T14:31:39.000Z</time>
      </trkpt>
      <trkpt lat="48.45895" lon="1.48888">
        <ele>123.5</ele>
        <time>2015-04-24T14:31:43.000Z</time>
      </trkpt>
      <trkpt lat="48.45896" lon="1.4889">
        <ele>123.5</ele>
        <time>2015-04-24T14:31:45.000Z</time>
      </trkpt>
      <trkpt lat="48.45899" lon="1.48895">
        <ele>123.3</ele>
        <time>2015-04-24T14:31:51.000Z</time>
      </trkpt>
      <trkpt lat="48.459" lon="1.489">
        <ele>123.2</ele>
        <time>2015-04-24T14:31:56.000Z</time>
      </trkpt>
      <trkpt lat="48.45903" lon="1.48908">
        <ele>123</ele>
        <time>2015-04-24T14:32:01.000Z</time>
      </trkpt>
      <trkpt lat="48.45904" lon="1.4891">
        <ele>122.9</ele>
        <time>2015-04-24T14:32:03.000Z</time>
      </trkpt>
      <trkpt lat="48.45905" lon="1.48912">
        <ele>122.9</ele>
        <time>2015-04-24T14:32:04.000Z</time>
      </trkpt>
      <trkpt lat="48.45907" lon="1.48919">
        <ele>122.8</ele>
        <time>2015-04-24T14:32:09.000Z</time>
      </trkpt>
      <trkpt lat="48.4591" lon="1.48926">
        <ele>123</ele>
        <time>2015-04-24T14:32:14.000Z</time>
      </trkpt>
      <trkpt lat="48.45911" lon="1.48928">
        <ele>123</ele>
        <time>2015-04-24T14:32:15.000Z</time>
      </trkpt>
      <trkpt lat="48.45915" lon="1.4894">
        <ele>123.7</ele>
        <time>2015-04-24T14:32:22.000Z</time>
      </trkpt>
      <trkpt lat="48.45917" lon="1.48948">
        <ele>123.7</ele>
        <time>2015-04-24T14:32:26.000Z</time>
      </trkpt>
      <trkpt lat="48.45918" lon="1.48953">
        <ele>123.3</ele>
        <time>2015-04-24T14:32:28.000Z</time>
      </trkpt>
      <trkpt lat="48.45919" lon="1.48954">
        <ele>123.1</ele>
        <time>2015-04-24T14:32:29.000Z</time>
      </trkpt>
      <trkpt lat="48.45924" lon="1.48974">
        <ele>121.8</ele>
        <time>2015-04-24T14:32:38.000Z</time>
      </trkpt>
      <trkpt lat="48.45928" lon="1.48988">
        <ele>122.3</ele>
        <time>2015-04-24T14:32:46.000Z</time>
      </trkpt>
      <trkpt lat="48.45933" lon="1.48999">
        <ele>123.1</ele>
        <time>2015-04-24T14:32:54.000Z</time>
      </trkpt>
      <trkpt lat="48.45937" lon="1.49006">
        <ele>123.6</ele>
        <time>2015-04-24T14:33:01.000Z</time>
      </trkpt>
      <trkpt lat="48.45938" lon="1.49007">
        <ele>123.7</ele>
        <time>2015-04-24T14:33:07.000Z</time>
      </trkpt>
      <trkpt lat="48.45937" lon="1.49007">
        <ele>123.6</ele>
        <time>2015-04-24T14:33:15.000Z</time>
      </trkpt>
      <trkpt lat="48.45934" lon="1.49011">
        <ele>123.5</ele>
        <time>2015-04-24T14:33:23.000Z</time>
      </trkpt>
      <trkpt lat="48.45933" lon="1.49012">
        <ele>123.5</ele>
        <time>2015-04-24T14:33:24.000Z</time>
      </trkpt>
      <trkpt lat="48.4593" lon="1.49017">
        <ele>123.3</ele>
        <time>2015-04-24T14:33:29.000Z</time>
      </trkpt>
      <trkpt lat="48.4593" lon="1.49019">
        <ele>123.2</ele>
        <time>2015-04-24T14:33:30.000Z</time>
      </trkpt>
      <trkpt lat="48.45924" lon="1.49032">
        <ele>123.2</ele>
        <time>2015-04-24T14:33:40.000Z</time>
      </trkpt>
      <trkpt lat="48.45922" lon="1.49033">
        <ele>123.2</ele>
        <time>2015-04-24T14:33:42.000Z</time>
      </trkpt>
      <trkpt lat="48.45918" lon="1.49037">
        <ele>123.5</ele>
        <time>2015-04-24T14:33:46.000Z</time>
      </trkpt>
      <trkpt lat="48.45917" lon="1.49038">
        <ele>123.5</ele>
        <time>2015-04-24T14:33:47.000Z</time>
      </trkpt>
      <trkpt lat="48.45909" lon="1.49047">
        <ele>123.7</ele>
        <time>2015-04-24T14:33:55.000Z</time>
      </trkpt>
      <trkpt lat="48.45901" lon="1.49053">
        <ele>123.1</ele>
        <time>2015-04-24T14:34:02.000Z</time>
      </trkpt>
      <trkpt lat="48.459" lon="1.49054">
        <ele>123</ele>
        <time>2015-04-24T14:34:03.000Z</time>
      </trkpt>
      <trkpt lat="48.45893" lon="1.49063">
        <ele>122.8</ele>
        <time>2015-04-24T14:34:12.000Z</time>
      </trkpt>
      <trkpt lat="48.45887" lon="1.4907">
        <ele>123.5</ele>
        <time>2015-04-24T14:34:19.000Z</time>
      </trkpt>
      <trkpt lat="48.45881" lon="1.49077">
        <ele>123.9</ele>
        <time>2015-04-24T14:34:26.000Z</time>
      </trkpt>
      <trkpt lat="48.45874" lon="1.49086">
        <ele>123.7</ele>
        <time>2015-04-24T14:34:33.000Z</time>
      </trkpt>
      <trkpt lat="48.45864" lon="1.49097">
        <ele>123</ele>
        <time>2015-04-24T14:34:43.000Z</time>
      </trkpt>
      <trkpt lat="48.45861" lon="1.49099">
        <ele>122.7</ele>
        <time>2015-04-24T14:34:46.000Z</time>
      </trkpt>
      <trkpt lat="48.45857" lon="1.491">
        <ele>122.7</ele>
        <time>2015-04-24T14:34:50.000Z</time>
      </trkpt>
      <trkpt lat="48.45853" lon="1.491">
        <ele>122.7</ele>
        <time>2015-04-24T14:34:53.000Z</time>
      </trkpt>
      <trkpt lat="48.45849" lon="1.49102">
        <ele>122.7</ele>
        <time>2015-04-24T14:34:57.000Z</time>
      </trkpt>
      <trkpt lat="48.45841" lon="1.49105">
        <ele>122.8</ele>
        <time>2015-04-24T14:35:04.000Z</time>
      </trkpt>
      <trkpt lat="48.45834" lon="1.49107">
        <ele>122.7</ele>
        <time>2015-04-24T14:35:10.000Z</time>
      </trkpt>
      <trkpt lat="48.45833" lon="1.49107">
        <ele>122.7</ele>
        <time>2015-04-24T14:35:11.000Z</time>
      </trkpt>
      <trkpt lat="48.4583" lon="1.4911">
        <ele>122.8</ele>
        <time>2015-04-24T14:35:16.000Z</time>
      </trkpt>
      <trkpt lat="48.45825" lon="1.49111">
        <ele>122.7</ele>
        <time>2015-04-24T14:35:21.000Z</time>
      </trkpt>
      <trkpt lat="48.45819" lon="1.49113">
        <ele>122.7</ele>
        <time>2015-04-24T14:35:26.000Z</time>
      </trkpt>
      <trkpt lat="48.45814" lon="1.49114">
        <ele>122.6</ele>
        <time>2015-04-24T14:35:31.000Z</time>
      </trkpt>
      <trkpt lat="48.45811" lon="1.49115">
        <ele>122.6</ele>
        <time>2015-04-24T14:35:33.000Z</time>
      </trkpt>
      <trkpt lat="48.45806" lon="1.49117">
        <ele>122.6</ele>
        <time>2015-04-24T14:35:36.000Z</time>
      </trkpt>
      <trkpt lat="48.45802" lon="1.49119">
        <ele>122.7</ele>
        <time>2015-04-24T14:35:39.000Z</time>
      </trkpt>
      <trkpt lat="48.45794" lon="1.49121">
        <ele>122.6</ele>
        <time>2015-04-24T14:35:45.000Z</time>
      </trkpt>
      <trkpt lat="48.45785" lon="1.4912">
        <ele>122.3</ele>
        <time>2015-04-24T14:35:51.000Z</time>
      </trkpt>
      <trkpt lat="48.45784" lon="1.4912">
        <ele>122.2</ele>
        <time>2015-04-24T14:35:52.000Z</time>
      </trkpt>
      <trkpt lat="48.45781" lon="1.4912">
        <ele>122</ele>
        <time>2015-04-24T14:35:57.000Z</time>
      </trkpt>
      <trkpt lat="48.4578" lon="1.49119">
        <ele>122</ele>
        <time>2015-04-24T14:35:58.000Z</time>
      </trkpt>
      <trkpt lat="48.45777" lon="1.4912">
        <ele>121.9</ele>
        <time>2015-04-24T14:36:03.000Z</time>
      </trkpt>
      <trkpt lat="48.45775" lon="1.49121">
        <ele>122.1</ele>
        <time>2015-04-24T14:36:05.000Z</time>
      </trkpt>
      <trkpt lat="48.45773" lon="1.49122">
        <ele>122.1</ele>
        <time>2015-04-24T14:36:08.000Z</time>
      </trkpt>
      <trkpt lat="48.45769" lon="1.49124">
        <ele>122.3</ele>
        <time>2015-04-24T14:36:12.000Z</time>
      </trkpt>
      <trkpt lat="48.45765" lon="1.49127">
        <ele>122.4</ele>
        <time>2015-04-24T14:36:17.000Z</time>
      </trkpt>
      <trkpt lat="48.45762" lon="1.49127">
        <ele>122.4</ele>
        <time>2015-04-24T14:36:19.000Z</time>
      </trkpt>
      <trkpt lat="48.45757" lon="1.49128">
        <ele>122.4</ele>
        <time>2015-04-24T14:36:23.000Z</time>
      </trkpt>
      <trkpt lat="48.4575" lon="1.4913">
        <ele>122.4</ele>
        <time>2015-04-24T14:36:29.000Z</time>
      </trkpt>
      <trkpt lat="48.45749" lon="1.4913">
        <ele>122.3</ele>
        <time>2015-04-24T14:36:30.000Z</time>
      </trkpt>
      <trkpt lat="48.45743" lon="1.4913">
        <ele>122.2</ele>
        <time>2015-04-24T14:36:36.000Z</time>
      </trkpt>
      <trkpt lat="48.45739" lon="1.4913">
        <ele>122.1</ele>
        <time>2015-04-24T14:36:42.000Z</time>
      </trkpt>
      <trkpt lat="48.45734" lon="1.49127">
        <ele>121.8</ele>
        <time>2015-04-24T14:36:49.000Z</time>
      </trkpt>
      <trkpt lat="48.45728" lon="1.49127">
        <ele>121.7</ele>
        <time>2015-04-24T14:36:57.000Z</time>
      </trkpt>
      <trkpt lat="48.45723" lon="1.49125">
        <ele>121.5</ele>
        <time>2015-04-24T14:37:02.000Z</time>
      </trkpt>
      <trkpt lat="48.45717" lon="1.49123">
        <ele>121.5</ele>
        <time>2015-04-24T14:37:08.000Z</time>
      </trkpt>
      <trkpt lat="48.45711" lon="1.49122">
        <ele>121.6</ele>
        <time>2015-04-24T14:37:15.000Z</time>
      </trkpt>
      <trkpt lat="48.45704" lon="1.49117">
        <ele>121.7</ele>
        <time>2015-04-24T14:37:23.000Z</time>
      </trkpt>
      <trkpt lat="48.45697" lon="1.49113">
        <ele>121.9</ele>
        <time>2015-04-24T14:37:30.000Z</time>
      </trkpt>
      <trkpt lat="48.45691" lon="1.49108">
        <ele>122.1</ele>
        <time>2015-04-24T14:37:37.000Z</time>
      </trkpt>
      <trkpt lat="48.45689" lon="1.49106">
        <ele>122.2</ele>
        <time>2015-04-24T14:37:40.000Z</time>
      </trkpt>
      <trkpt lat="48.45687" lon="1.49103">
        <ele>122.2</ele>
        <time>2015-04-24T14:37:43.000Z</time>
      </trkpt>
      <trkpt lat="48.45686" lon="1.49102">
        <ele>122.2</ele>
        <time>2015-04-24T14:37:44.000Z</time>
      </trkpt>
      <trkpt lat="48.45682" lon="1.49096">
        <ele>122.2</ele>
        <time>2015-04-24T14:37:50.000Z</time>
      </trkpt>
      <trkpt lat="48.45681" lon="1.49095">
        <ele>122.2</ele>
        <time>2015-04-24T14:37:51.000Z</time>
      </trkpt>
      <trkpt lat="48.45676" lon="1.49088">
        <ele>122.1</ele>
        <time>2015-04-24T14:37:58.000Z</time>
      </trkpt>
      <trkpt lat="48.4567" lon="1.49082">
        <ele>122</ele>
        <time>2015-04-24T14:38:05.000Z</time>
      </trkpt>
      <trkpt lat="48.45664" lon="1.49079">
        <ele>122.1</ele>
        <time>2015-04-24T14:38:12.000Z</time>
      </trkpt>
      <trkpt lat="48.45658" lon="1.49076">
        <ele>122.2</ele>
        <time>2015-04-24T14:38:19.000Z</time>
      </trkpt>
      <trkpt lat="48.45655" lon="1.49075">
        <ele>122.3</ele>
        <time>2015-04-24T14:38:23.000Z</time>
      </trkpt>
      <trkpt lat="48.45653" lon="1.49075">
        <ele>122.3</ele>
        <time>2015-04-24T14:38:25.000Z</time>
      </trkpt>
      <trkpt lat="48.45646" lon="1.49077">
        <ele>122.6</ele>
        <time>2015-04-24T14:38:31.000Z</time>
      </trkpt>
      <trkpt lat="48.45643" lon="1.49079">
        <ele>122.7</ele>
        <time>2015-04-24T14:38:35.000Z</time>
      </trkpt>
      <trkpt lat="48.45641" lon="1.49079">
        <ele>122.8</ele>
        <time>2015-04-24T14:38:36.000Z</time>
      </trkpt>
      <trkpt lat="48.45632" lon="1.49084">
        <ele>122.5</ele>
        <time>2015-04-24T14:38:44.000Z</time>
      </trkpt>
      <trkpt lat="48.4563" lon="1.49085">
        <ele>122.4</ele>
        <time>2015-04-24T14:38:46.000Z</time>
      </trkpt>
      <trkpt lat="48.45628" lon="1.49088">
        <ele>122.3</ele>
        <time>2015-04-24T14:38:49.000Z</time>
      </trkpt>
      <trkpt lat="48.45622" lon="1.49091">
        <ele>122.1</ele>
        <time>2015-04-24T14:38:54.000Z</time>
      </trkpt>
      <trkpt lat="48.45618" lon="1.49092">
        <ele>122</ele>
        <time>2015-04-24T14:38:57.000Z</time>
      </trkpt>
      <trkpt lat="48.45612" lon="1.49096">
        <ele>122</ele>
        <time>2015-04-24T14:39:03.000Z</time>
      </trkpt>
      <trkpt lat="48.45605" lon="1.49099">
        <ele>122.1</ele>
        <time>2015-04-24T14:39:10.000Z</time>
      </trkpt>
      <trkpt lat="48.45596" lon="1.49101">
        <ele>122.3</ele>
        <time>2015-04-24T14:39:17.000Z</time>
      </trkpt>
      <trkpt lat="48.45592" lon="1.49105">
        <ele>122.6</ele>
        <time>2015-04-24T14:39:22.000Z</time>
      </trkpt>
      <trkpt lat="48.45587" lon="1.49114">
        <ele>123.1</ele>
        <time>2015-04-24T14:39:28.000Z</time>
      </trkpt>
      <trkpt lat="48.45586" lon="1.49116">
        <ele>123.2</ele>
        <time>2015-04-24T14:39:29.000Z</time>
      </trkpt>
      <trkpt lat="48.45584" lon="1.49125">
        <ele>123.5</ele>
        <time>2015-04-24T14:39:34.000Z</time>
      </trkpt>
      <trkpt lat="48.45584" lon="1.49129">
        <ele>123.6</ele>
        <time>2015-04-24T14:39:37.000Z</time>
      </trkpt>
      <trkpt lat="48.45586" lon="1.49139">
        <ele>123.9</ele>
        <time>2015-04-24T14:39:44.000Z</time>
      </trkpt>
      <trkpt lat="48.45587" lon="1.49145">
        <ele>123.7</ele>
        <time>2015-04-24T14:39:52.000Z</time>
      </trkpt>
      <trkpt lat="48.45587" lon="1.49147">
        <ele>123.6</ele>
        <time>2015-04-24T14:39:54.000Z</time>
      </trkpt>
      <trkpt lat="48.45588" lon="1.49154">
        <ele>123.4</ele>
        <time>2015-04-24T14:39:59.000Z</time>
      </trkpt>
      <trkpt lat="48.45588" lon="1.49164">
        <ele>123.1</ele>
        <time>2015-04-24T14:40:05.000Z</time>
      </trkpt>
      <trkpt lat="48.45588" lon="1.49176">
        <ele>123</ele>
        <time>2015-04-24T14:40:12.000Z</time>
      </trkpt>
      <trkpt lat="48.45588" lon="1.49179">
        <ele>123</ele>
        <time>2015-04-24T14:40:14.000Z</time>
      </trkpt>
      <trkpt lat="48.45589" lon="1.49186">
        <ele>123</ele>
        <time>2015-04-24T14:40:18.000Z</time>
      </trkpt>
      <trkpt lat="48.45589" lon="1.4919">
        <ele>123</ele>
        <time>2015-04-24T14:40:20.000Z</time>
      </trkpt>
      <trkpt lat="48.45588" lon="1.49196">
        <ele>123.1</ele>
        <time>2015-04-24T14:40:24.000Z</time>
      </trkpt>
      <trkpt lat="48.45588" lon="1.49195">
        <ele>123</ele>
        <time>2015-04-24T14:40:25.000Z</time>
      </trkpt>
      <trkpt lat="48.45588" lon="1.49197">
        <ele>123.1</ele>
        <time>2015-04-24T14:40:31.000Z</time>
      </trkpt>
      <trkpt lat="48.45585" lon="1.49203">
        <ele>123.3</ele>
        <time>2015-04-24T14:40:39.000Z</time>
      </trkpt>
      <trkpt lat="48.45584" lon="1.49204">
        <ele>123.3</ele>
        <time>2015-04-24T14:40:40.000Z</time>
      </trkpt>
      <trkpt lat="48.45583" lon="1.49207">
        <ele>123.4</ele>
        <time>2015-04-24T14:40:44.000Z</time>
      </trkpt>
      <trkpt lat="48.45584" lon="1.49209">
        <ele>123.5</ele>
        <time>2015-04-24T14:40:52.000Z</time>
      </trkpt>
      <trkpt lat="48.45585" lon="1.49207">
        <ele>123.5</ele>
        <time>2015-04-24T14:40:56.000Z</time>
      </trkpt>
      <trkpt lat="48.45586" lon="1.49205">
        <ele>123.4</ele>
        <time>2015-04-24T14:40:58.000Z</time>
      </trkpt>
      <trkpt lat="48.45587" lon="1.49202">
        <ele>123.3</ele>
        <time>2015-04-24T14:41:00.000Z</time>
      </trkpt>
      <trkpt lat="48.45587" lon="1.49198">
        <ele>123.2</ele>
        <time>2015-04-24T14:41:02.000Z</time>
      </trkpt>
      <trkpt lat="48.45588" lon="1.49194">
        <ele>123</ele>
        <time>2015-04-24T14:41:05.000Z</time>
      </trkpt>
      <trkpt lat="48.45587" lon="1.49186">
        <ele>123</ele>
        <time>2015-04-24T14:41:10.000Z</time>
      </trkpt>
      <trkpt lat="48.45588" lon="1.49172">
        <ele>123</ele>
        <time>2015-04-24T14:41:18.000Z</time>
      </trkpt>
      <trkpt lat="48.45588" lon="1.4916">
        <ele>123.2</ele>
        <time>2015-04-24T14:41:25.000Z</time>
      </trkpt>
      <trkpt lat="48.45586" lon="1.49151">
        <ele>123.5</ele>
        <time>2015-04-24T14:41:33.000Z</time>
      </trkpt>
      <trkpt lat="48.45579" lon="1.49152">
        <ele>123.5</ele>
        <time>2015-04-24T14:41:40.000Z</time>
      </trkpt>
      <trkpt lat="48.45569" lon="1.49155">
        <ele>123.5</ele>
        <time>2015-04-24T14:41:48.000Z</time>
      </trkpt>
      <trkpt lat="48.45564" lon="1.49156">
        <ele>123.5</ele>
        <time>2015-04-24T14:41:53.000Z</time>
      </trkpt>
      <trkpt lat="48.45556" lon="1.49152">
        <ele>123.5</ele>
        <time>2015-04-24T14:41:59.000Z</time>
      </trkpt>
      <trkpt lat="48.45553" lon="1.4915">
        <ele>123.4</ele>
        <time>2015-04-24T14:42:04.000Z</time>
      </trkpt>
      <trkpt lat="48.45547" lon="1.49149">
        <ele>123.3</ele>
        <time>2015-04-24T14:42:10.000Z</time>
      </trkpt>
      <trkpt lat="48.45541" lon="1.49148">
        <ele>123.2</ele>
        <time>2015-04-24T14:42:15.000Z</time>
      </trkpt>
      <trkpt lat="48.45536" lon="1.49146">
        <ele>123.1</ele>
        <time>2015-04-24T14:42:19.000Z</time>
      </trkpt>
      <trkpt lat="48.45524" lon="1.49142">
        <ele>123</ele>
        <time>2015-04-24T14:42:28.000Z</time>
      </trkpt>
      <trkpt lat="48.45511" lon="1.49139">
        <ele>123</ele>
        <time>2015-04-24T14:42:37.000Z</time>
      </trkpt>
      <trkpt lat="48.45499" lon="1.49137">
        <ele>123.1</ele>
        <time>2015-04-24T14:42:47.000Z</time>
      </trkpt>
      <trkpt lat="48.4549" lon="1.49136">
        <ele>123.1</ele>
        <time>2015-04-24T14:42:55.000Z</time>
      </trkpt>
      <trkpt lat="48.45481" lon="1.49133">
        <ele>123.2</ele>
        <time>2015-04-24T14:43:03.000Z</time>
      </trkpt>
      <trkpt lat="48.45471" lon="1.4913">
        <ele>123.3</ele>
        <time>2015-04-24T14:43:12.000Z</time>
      </trkpt>
      <trkpt lat="48.45461" lon="1.49127">
        <ele>123.3</ele>
        <time>2015-04-24T14:43:21.000Z</time>
      </trkpt>
      <trkpt lat="48.45456" lon="1.49125">
        <ele>123.2</ele>
        <time>2015-04-24T14:43:25.000Z</time>
      </trkpt>
      <trkpt lat="48.45453" lon="1.49122">
        <ele>123.2</ele>
        <time>2015-04-24T14:43:28.000Z</time>
      </trkpt>
      <trkpt lat="48.45445" lon="1.49119">
        <ele>123</ele>
        <time>2015-04-24T14:43:35.000Z</time>
      </trkpt>
      <trkpt lat="48.45436" lon="1.49113">
        <ele>123</ele>
        <time>2015-04-24T14:43:44.000Z</time>
      </trkpt>
      <trkpt lat="48.45428" lon="1.4911">
        <ele>123</ele>
        <time>2015-04-24T14:43:51.000Z</time>
      </trkpt>
      <trkpt lat="48.45427" lon="1.49109">
        <ele>123</ele>
        <time>2015-04-24T14:43:52.000Z</time>
      </trkpt>
      <trkpt lat="48.45423" lon="1.49107">
        <ele>123</ele>
        <time>2015-04-24T14:43:55.000Z</time>
      </trkpt>
      <trkpt lat="48.45421" lon="1.49107">
        <ele>123</ele>
        <time>2015-04-24T14:43:58.000Z</time>
      </trkpt>
      <trkpt lat="48.45415" lon="1.49103">
        <ele>123</ele>
        <time>2015-04-24T14:44:04.000Z</time>
      </trkpt>
      <trkpt lat="48.4541" lon="1.491">
        <ele>123.1</ele>
        <time>2015-04-24T14:44:10.000Z</time>
      </trkpt>
      <trkpt lat="48.45406" lon="1.49098">
        <ele>123.2</ele>
        <time>2015-04-24T14:44:15.000Z</time>
      </trkpt>
      <trkpt lat="48.45403" lon="1.49098">
        <ele>123.2</ele>
        <time>2015-04-24T14:44:17.000Z</time>
      </trkpt>
      <trkpt lat="48.454" lon="1.491">
        <ele>123.2</ele>
        <time>2015-04-24T14:44:22.000Z</time>
      </trkpt>
      <trkpt lat="48.454" lon="1.491">
        <ele>123.2</ele>
        <time>2015-04-24T14:44:24.000Z</time>
      </trkpt>
      <trkpt lat="48.45399" lon="1.49099">
        <ele>123.3</ele>
        <time>2015-04-24T14:44:33.000Z</time>
      </trkpt>
      <trkpt lat="48.45398" lon="1.49098">
        <ele>123.3</ele>
        <time>2015-04-24T14:44:40.000Z</time>
      </trkpt>
      <trkpt lat="48.45396" lon="1.49097">
        <ele>123.4</ele>
        <time>2015-04-24T14:44:49.000Z</time>
      </trkpt>
      <trkpt lat="48.45395" lon="1.49097">
        <ele>123.4</ele>
        <time>2015-04-24T14:44:57.000Z</time>
      </trkpt>
      <trkpt lat="48.45395" lon="1.49096">
        <ele>123.4</ele>
        <time>2015-04-24T14:45:08.000Z</time>
      </trkpt>
      <trkpt lat="48.45394" lon="1.49095">
        <ele>123.5</ele>
        <time>2015-04-24T14:45:19.000Z</time>
      </trkpt>
      <trkpt lat="48.45392" lon="1.49098">
        <ele>123.4</ele>
        <time>2015-04-24T14:45:26.000Z</time>
      </trkpt>
      <trkpt lat="48.45388" lon="1.49104">
        <ele>123.2</ele>
        <time>2015-04-24T14:45:32.000Z</time>
      </trkpt>
      <trkpt lat="48.45386" lon="1.49109">
        <ele>123.1</ele>
        <time>2015-04-24T14:45:36.000Z</time>
      </trkpt>
      <trkpt lat="48.45385" lon="1.49112">
        <ele>123</ele>
        <time>2015-04-24T14:45:38.000Z</time>
      </trkpt>
      <trkpt lat="48.45384" lon="1.49117">
        <ele>123.1</ele>
        <time>2015-04-24T14:45:42.000Z</time>
      </trkpt>
      <trkpt lat="48.45382" lon="1.49119">
        <ele>123.1</ele>
        <time>2015-04-24T14:45:44.000Z</time>
      </trkpt>
      <trkpt lat="48.45373" lon="1.49121">
        <ele>123.4</ele>
        <time>2015-04-24T14:45:51.000Z</time>
      </trkpt>
      <trkpt lat="48.4537" lon="1.49115">
        <ele>123.2</ele>
        <time>2015-04-24T14:45:57.000Z</time>
      </trkpt>
      <trkpt lat="48.45367" lon="1.49108">
        <ele>123</ele>
        <time>2015-04-24T14:46:04.000Z</time>
      </trkpt>
      <trkpt lat="48.45362" lon="1.49104">
        <ele>123</ele>
        <time>2015-04-24T14:46:10.000Z</time>
      </trkpt>
      <trkpt lat="48.45358" lon="1.49099">
        <ele>123.2</ele>
        <time>2015-04-24T14:46:17.000Z</time>
      </trkpt>
      <trkpt lat="48.45349" lon="1.4909">
        <ele>123.6</ele>
        <time>2015-04-24T14:46:25.000Z</time>
      </trkpt>
      <trkpt lat="48.45339" lon="1.49079">
        <ele>123.7</ele>
        <time>2015-04-24T14:46:34.000Z</time>
      </trkpt>
      <trkpt lat="48.45329" lon="1.49069">
        <ele>123.8</ele>
        <time>2015-04-24T14:46:44.000Z</time>
      </trkpt>
      <trkpt lat="48.45324" lon="1.49065">
        <ele>123.9</ele>
        <time>2015-04-24T14:46:49.000Z</time>
      </trkpt>
      <trkpt lat="48.45321" lon="1.49062">
        <ele>123.9</ele>
        <time>2015-04-24T14:46:52.000Z</time>
      </trkpt>
      <trkpt lat="48.45316" lon="1.49055">
        <ele>123.6</ele>
        <time>2015-04-24T14:46:59.000Z</time>
      </trkpt>
      <trkpt lat="48.45314" lon="1.49047">
        <ele>123.6</ele>
        <time>2015-04-24T14:47:04.000Z</time>
      </trkpt>
      <trkpt lat="48.45313" lon="1.49045">
        <ele>123.6</ele>
        <time>2015-04-24T14:47:06.000Z</time>
      </trkpt>
      <trkpt lat="48.45305" lon="1.49042">
        <ele>123.5</ele>
        <time>2015-04-24T14:47:13.000Z</time>
      </trkpt>
      <trkpt lat="48.45297" lon="1.49043">
        <ele>123.5</ele>
        <time>2015-04-24T14:47:19.000Z</time>
      </trkpt>
      <trkpt lat="48.45291" lon="1.49045">
        <ele>123.6</ele>
        <time>2015-04-24T14:47:23.000Z</time>
      </trkpt>
      <trkpt lat="48.45289" lon="1.49047">
        <ele>123.7</ele>
        <time>2015-04-24T14:47:25.000Z</time>
      </trkpt>
      <trkpt lat="48.45286" lon="1.49053">
        <ele>123.9</ele>
        <time>2015-04-24T14:47:31.000Z</time>
      </trkpt>
      <trkpt lat="48.45284" lon="1.49054">
        <ele>123.9</ele>
        <time>2015-04-24T14:47:33.000Z</time>
      </trkpt>
      <trkpt lat="48.45279" lon="1.49053">
        <ele>123.9</ele>
        <time>2015-04-24T14:47:37.000Z</time>
      </trkpt>
      <trkpt lat="48.45277" lon="1.49053">
        <ele>123.9</ele>
        <time>2015-04-24T14:47:38.000Z</time>
      </trkpt>
      <trkpt lat="48.45274" lon="1.49053">
        <ele>123.8</ele>
        <time>2015-04-24T14:47:41.000Z</time>
      </trkpt>
      <trkpt lat="48.45271" lon="1.49053">
        <ele>123.7</ele>
        <time>2015-04-24T14:47:43.000Z</time>
      </trkpt>
      <trkpt lat="48.45266" lon="1.49052">
        <ele>123.5</ele>
        <time>2015-04-24T14:47:47.000Z</time>
      </trkpt>
      <trkpt lat="48.45263" lon="1.49053">
        <ele>123.4</ele>
        <time>2015-04-24T14:47:50.000Z</time>
      </trkpt>
      <trkpt lat="48.45262" lon="1.49054">
        <ele>123.4</ele>
        <time>2015-04-24T14:47:51.000Z</time>
      </trkpt>
      <trkpt lat="48.45258" lon="1.4906">
        <ele>123.7</ele>
        <time>2015-04-24T14:47:56.000Z</time>
      </trkpt>
      <trkpt lat="48.45257" lon="1.49065">
        <ele>124</ele>
        <time>2015-04-24T14:47:59.000Z</time>
      </trkpt>
      <trkpt lat="48.45255" lon="1.4907">
        <ele>124.3</ele>
        <time>2015-04-24T14:48:02.000Z</time>
      </trkpt>
      <trkpt lat="48.45254" lon="1.49072">
        <ele>124.4</ele>
        <time>2015-04-24T14:48:03.000Z</time>
      </trkpt>
      <trkpt lat="48.45251" lon="1.49079">
        <ele>124.8</ele>
        <time>2015-04-24T14:48:07.000Z</time>
      </trkpt>
      <trkpt lat="48.45251" lon="1.49081">
        <ele>124.9</ele>
        <time>2015-04-24T14:48:08.000Z</time>
      </trkpt>
      <trkpt lat="48.45249" lon="1.49086">
        <ele>125.1</ele>
        <time>2015-04-24T14:48:12.000Z</time>
      </trkpt>
      <trkpt lat="48.45247" lon="1.49095">
        <ele>125.2</ele>
        <time>2015-04-24T14:48:17.000Z</time>
      </trkpt>
      <trkpt lat="48.45247" lon="1.49098">
        <ele>125.3</ele>
        <time>2015-04-24T14:48:19.000Z</time>
      </trkpt>
      <trkpt lat="48.45245" lon="1.49104">
        <ele>125.3</ele>
        <time>2015-04-24T14:48:23.000Z</time>
      </trkpt>
      <trkpt lat="48.45244" lon="1.49108">
        <ele>125.3</ele>
        <time>2015-04-24T14:48:26.000Z</time>
      </trkpt>
      <trkpt lat="48.45241" lon="1.4911">
        <ele>125.1</ele>
        <time>2015-04-24T14:48:29.000Z</time>
      </trkpt>
      <trkpt lat="48.4524" lon="1.4911">
        <ele>124.9</ele>
        <time>2015-04-24T14:48:31.000Z</time>
      </trkpt>
      <trkpt lat="48.45238" lon="1.49109">
        <ele>124.7</ele>
        <time>2015-04-24T14:48:34.000Z</time>
      </trkpt>
      <trkpt lat="48.45237" lon="1.49109">
        <ele>124.6</ele>
        <time>2015-04-24T14:48:40.000Z</time>
      </trkpt>
      <trkpt lat="48.45232" lon="1.49103">
        <ele>124.2</ele>
        <time>2015-04-24T14:48:46.000Z</time>
      </trkpt>
      <trkpt lat="48.45225" lon="1.49096">
        <ele>123.8</ele>
        <time>2015-04-24T14:48:55.000Z</time>
      </trkpt>
      <trkpt lat="48.45224" lon="1.49091">
        <ele>123.8</ele>
        <time>2015-04-24T14:49:00.000Z</time>
      </trkpt>
      <trkpt lat="48.45225" lon="1.49089">
        <ele>123.9</ele>
        <time>2015-04-24T14:49:02.000Z</time>
      </trkpt>
      <trkpt lat="48.45227" lon="1.49085">
        <ele>124.1</ele>
        <time>2015-04-24T14:49:05.000Z</time>
      </trkpt>
      <trkpt lat="48.45231" lon="1.49077">
        <ele>124.2</ele>
        <time>2015-04-24T14:49:10.000Z</time>
      </trkpt>
      <trkpt lat="48.45235" lon="1.49069">
        <ele>124</ele>
        <time>2015-04-24T14:49:18.000Z</time>
      </trkpt>
      <trkpt lat="48.45238" lon="1.49063">
        <ele>123.7</ele>
        <time>2015-04-24T14:49:23.000Z</time>
      </trkpt>
      <trkpt lat="48.45241" lon="1.49052">
        <ele>123.3</ele>
        <time>2015-04-24T14:49:31.000Z</time>
      </trkpt>
      <trkpt lat="48.45241" lon="1.49052">
        <ele>123.3</ele>
        <time>2015-04-24T14:49:34.000Z</time>
      </trkpt>
      <trkpt lat="48.45239" lon="1.49054">
        <ele>123.4</ele>
        <time>2015-04-24T14:49:35.000Z</time>
      </trkpt>
      <trkpt lat="48.45237" lon="1.49058">
        <ele>123.6</ele>
        <time>2015-04-24T14:49:38.000Z</time>
      </trkpt>
      <trkpt lat="48.45233" lon="1.49069">
        <ele>124</ele>
        <time>2015-04-24T14:49:44.000Z</time>
      </trkpt>
      <trkpt lat="48.45229" lon="1.49081">
        <ele>124.2</ele>
        <time>2015-04-24T14:49:51.000Z</time>
      </trkpt>
      <trkpt lat="48.45221" lon="1.49092">
        <ele>123.7</ele>
        <time>2015-04-24T14:50:01.000Z</time>
      </trkpt>
      <trkpt lat="48.45217" lon="1.49094">
        <ele>123.8</ele>
        <time>2015-04-24T14:50:07.000Z</time>
      </trkpt>
      <trkpt lat="48.45214" lon="1.49093">
        <ele>123.9</ele>
        <time>2015-04-24T14:50:12.000Z</time>
      </trkpt>
      <trkpt lat="48.45214" lon="1.49092">
        <ele>124</ele>
        <time>2015-04-24T14:50:13.000Z</time>
      </trkpt>
      <trkpt lat="48.45209" lon="1.49087">
        <ele>124.4</ele>
        <time>2015-04-24T14:50:20.000Z</time>
      </trkpt>
      <trkpt lat="48.45207" lon="1.49084">
        <ele>124.5</ele>
        <time>2015-04-24T14:50:23.000Z</time>
      </trkpt>
      <trkpt lat="48.45207" lon="1.49082">
        <ele>124.5</ele>
        <time>2015-04-24T14:50:24.000Z</time>
      </trkpt>
      <trkpt lat="48.45205" lon="1.49081">
        <ele>124.6</ele>
        <time>2015-04-24T14:50:29.000Z</time>
      </trkpt>
      <trkpt lat="48.45205" lon="1.49083">
        <ele>124.6</ele>
        <time>2015-04-24T14:50:35.000Z</time>
      </trkpt>
      <trkpt lat="48.45206" lon="1.49086">
        <ele>124.5</ele>
        <time>2015-04-24T14:50:40.000Z</time>
      </trkpt>
      <trkpt lat="48.45214" lon="1.49091">
        <ele>124</ele>
        <time>2015-04-24T14:50:47.000Z</time>
      </trkpt>
      <trkpt lat="48.45217" lon="1.49093">
        <ele>123.8</ele>
        <time>2015-04-24T14:50:50.000Z</time>
      </trkpt>
      <trkpt lat="48.45218" lon="1.49094">
        <ele>123.8</ele>
        <time>2015-04-24T14:50:53.000Z</time>
      </trkpt>
      <trkpt lat="48.45223" lon="1.49098">
        <ele>123.5</ele>
        <time>2015-04-24T14:50:58.000Z</time>
      </trkpt>
      <trkpt lat="48.45231" lon="1.49108">
        <ele>124</ele>
        <time>2015-04-24T14:51:07.000Z</time>
      </trkpt>
      <trkpt lat="48.45234" lon="1.49115">
        <ele>124.6</ele>
        <time>2015-04-24T14:51:13.000Z</time>
      </trkpt>
      <trkpt lat="48.45234" lon="1.49116">
        <ele>124.6</ele>
        <time>2015-04-24T14:51:14.000Z</time>
      </trkpt>
      <trkpt lat="48.4523" lon="1.49123">
        <ele>124.9</ele>
        <time>2015-04-24T14:51:20.000Z</time>
      </trkpt>
      <trkpt lat="48.45227" lon="1.49127">
        <ele>125.1</ele>
        <time>2015-04-24T14:51:25.000Z</time>
      </trkpt>
      <trkpt lat="48.45226" lon="1.49129">
        <ele>125.2</ele>
        <time>2015-04-24T14:51:27.000Z</time>
      </trkpt>
      <trkpt lat="48.45223" lon="1.49131">
        <ele>125.2</ele>
        <time>2015-04-24T14:51:31.000Z</time>
      </trkpt>
      <trkpt lat="48.4522" lon="1.49134">
        <ele>125.4</ele>
        <time>2015-04-24T14:51:35.000Z</time>
      </trkpt>
      <trkpt lat="48.45216" lon="1.49135">
        <ele>125.2</ele>
        <time>2015-04-24T14:51:39.000Z</time>
      </trkpt>
      <trkpt lat="48.45215" lon="1.49135">
        <ele>125.2</ele>
        <time>2015-04-24T14:51:40.000Z</time>
      </trkpt>
      <trkpt lat="48.45209" lon="1.49135">
        <ele>124.8</ele>
        <time>2015-04-24T14:51:46.000Z</time>
      </trkpt>
      <trkpt lat="48.45203" lon="1.49137">
        <ele>124.6</ele>
        <time>2015-04-24T14:51:53.000Z</time>
      </trkpt>
      <trkpt lat="48.45196" lon="1.4914">
        <ele>124.2</ele>
        <time>2015-04-24T14:52:00.000Z</time>
      </trkpt>
      <trkpt lat="48.45189" lon="1.49144">
        <ele>124.3</ele>
        <time>2015-04-24T14:52:06.000Z</time>
      </trkpt>
      <trkpt lat="48.45188" lon="1.49144">
        <ele>124.4</ele>
        <time>2015-04-24T14:52:07.000Z</time>
      </trkpt>
      <trkpt lat="48.45181" lon="1.49145">
        <ele>124.5</ele>
        <time>2015-04-24T14:52:12.000Z</time>
      </trkpt>
      <trkpt lat="48.45176" lon="1.49146">
        <ele>124.5</ele>
        <time>2015-04-24T14:52:17.000Z</time>
      </trkpt>
      <trkpt lat="48.4517" lon="1.49147">
        <ele>124.6</ele>
        <time>2015-04-24T14:52:22.000Z</time>
      </trkpt>
      <trkpt lat="48.45168" lon="1.49148">
        <ele>124.7</ele>
        <time>2015-04-24T14:52:24.000Z</time>
      </trkpt>
      <trkpt lat="48.45163" lon="1.49149">
        <ele>124.7</ele>
        <time>2015-04-24T14:52:29.000Z</time>
      </trkpt>
      <trkpt lat="48.45162" lon="1.49149">
        <ele>124.7</ele>
        <time>2015-04-24T14:52:30.000Z</time>
      </trkpt>
      <trkpt lat="48.45154" lon="1.49149">
        <ele>124.7</ele>
        <time>2015-04-24T14:52:37.000Z</time>
      </trkpt>
      <trkpt lat="48.45143" lon="1.4915">
        <ele>124.8</ele>
        <time>2015-04-24T14:52:47.000Z</time>
      </trkpt>
      <trkpt lat="48.45133" lon="1.4915">
        <ele>124.7</ele>
        <time>2015-04-24T14:52:56.000Z</time>
      </trkpt>
      <trkpt lat="48.45122" lon="1.49149">
        <ele>124.5</ele>
        <time>2015-04-24T14:53:04.000Z</time>
      </trkpt>
      <trkpt lat="48.45112" lon="1.4915">
        <ele>124.4</ele>
        <time>2015-04-24T14:53:12.000Z</time>
      </trkpt>
      <trkpt lat="48.45101" lon="1.49152">
        <ele>125</ele>
        <time>2015-04-24T14:53:22.000Z</time>
      </trkpt>
      <trkpt lat="48.45095" lon="1.49149">
        <ele>125.3</ele>
        <time>2015-04-24T14:53:27.000Z</time>
      </trkpt>
      <trkpt lat="48.45087" lon="1.49147">
        <ele>125.7</ele>
        <time>2015-04-24T14:53:34.000Z</time>
      </trkpt>
      <trkpt lat="48.45078" lon="1.49148">
        <ele>126.1</ele>
        <time>2015-04-24T14:53:42.000Z</time>
      </trkpt>
      <trkpt lat="48.45076" lon="1.49148">
        <ele>126.1</ele>
        <time>2015-04-24T14:53:44.000Z</time>
      </trkpt>
      <trkpt lat="48.45074" lon="1.49149">
        <ele>126.1</ele>
        <time>2015-04-24T14:53:45.000Z</time>
      </trkpt>
      <trkpt lat="48.45071" lon="1.49148">
        <ele>126.2</ele>
        <time>2015-04-24T14:53:48.000Z</time>
      </trkpt>
      <trkpt lat="48.45063" lon="1.49149">
        <ele>126.3</ele>
        <time>2015-04-24T14:53:55.000Z</time>
      </trkpt>
      <trkpt lat="48.45054" lon="1.49151">
        <ele>126.4</ele>
        <time>2015-04-24T14:54:02.000Z</time>
      </trkpt>
      <trkpt lat="48.45049" lon="1.49153">
        <ele>126.4</ele>
        <time>2015-04-24T14:54:06.000Z</time>
      </trkpt>
      <trkpt lat="48.45046" lon="1.49154">
        <ele>126.4</ele>
        <time>2015-04-24T14:54:09.000Z</time>
      </trkpt>
      <trkpt lat="48.45037" lon="1.49155">
        <ele>126.3</ele>
        <time>2015-04-24T14:54:17.000Z</time>
      </trkpt>
      <trkpt lat="48.4503" lon="1.49157">
        <ele>126.3</ele>
        <time>2015-04-24T14:54:24.000Z</time>
      </trkpt>
      <trkpt lat="48.45023" lon="1.49157">
        <ele>126.2</ele>
        <time>2015-04-24T14:54:30.000Z</time>
      </trkpt>
      <trkpt lat="48.45022" lon="1.49157">
        <ele>126.2</ele>
        <time>2015-04-24T14:54:31.000Z</time>
      </trkpt>
      <trkpt lat="48.45015" lon="1.4916">
        <ele>126.3</ele>
        <time>2015-04-24T14:54:39.000Z</time>
      </trkpt>
      <trkpt lat="48.45013" lon="1.4916">
        <ele>126.3</ele>
        <time>2015-04-24T14:54:41.000Z</time>
      </trkpt>
      <trkpt lat="48.4501" lon="1.4916">
        <ele>126.2</ele>
        <time>2015-04-24T14:54:44.000Z</time>
      </trkpt>
      <trkpt lat="48.45008" lon="1.49162">
        <ele>126.4</ele>
        <time>2015-04-24T14:54:47.000Z</time>
      </trkpt>
      <trkpt lat="48.45007" lon="1.49162">
        <ele>126.4</ele>
        <time>2015-04-24T14:54:48.000Z</time>
      </trkpt>
      <trkpt lat="48.45005" lon="1.49163">
        <ele>126.5</ele>
        <time>2015-04-24T14:54:50.000Z</time>
      </trkpt>
      <trkpt lat="48.45004" lon="1.49164">
        <ele>126.6</ele>
        <time>2015-04-24T14:54:51.000Z</time>
      </trkpt>
      <trkpt lat="48.44999" lon="1.49167">
        <ele>126.8</ele>
        <time>2015-04-24T14:54:56.000Z</time>
      </trkpt>
      <trkpt lat="48.44993" lon="1.49168">
        <ele>126.1</ele>
        <time>2015-04-24T14:55:01.000Z</time>
      </trkpt>
      <trkpt lat="48.44992" lon="1.49168">
        <ele>125.9</ele>
        <time>2015-04-24T14:55:02.000Z</time>
      </trkpt>
      <trkpt lat="48.44992" lon="1.49169">
        <ele>126</ele>
        <time>2015-04-24T14:55:03.000Z</time>
      </trkpt>
      <trkpt lat="48.4499" lon="1.49171">
        <ele>125.8</ele>
        <time>2015-04-24T14:55:05.000Z</time>
      </trkpt>
      <trkpt lat="48.44989" lon="1.49172">
        <ele>125.7</ele>
        <time>2015-04-24T14:55:07.000Z</time>
      </trkpt>
      <trkpt lat="48.44985" lon="1.49174">
        <ele>125.4</ele>
        <time>2015-04-24T14:55:11.000Z</time>
      </trkpt>
      <trkpt lat="48.44979" lon="1.49177">
        <ele>125</ele>
        <time>2015-04-24T14:55:17.000Z</time>
      </trkpt>
      <trkpt lat="48.44973" lon="1.49181">
        <ele>125.1</ele>
        <time>2015-04-24T14:55:22.000Z</time>
      </trkpt>
      <trkpt lat="48.44972" lon="1.49181">
        <ele>125.1</ele>
        <time>2015-04-24T14:55:23.000Z</time>
      </trkpt>
      <trkpt lat="48.44962" lon="1.49186">
        <ele>125.8</ele>
        <time>2015-04-24T14:55:31.000Z</time>
      </trkpt>
      <trkpt lat="48.44954" lon="1.4919">
        <ele>126.3</ele>
        <time>2015-04-24T14:55:38.000Z</time>
      </trkpt>
      <trkpt lat="48.44948" lon="1.49192">
        <ele>126.6</ele>
        <time>2015-04-24T14:55:43.000Z</time>
      </trkpt>
      <trkpt lat="48.44947" lon="1.49192">
        <ele>126.6</ele>
        <time>2015-04-24T14:55:44.000Z</time>
      </trkpt>
      <trkpt lat="48.44943" lon="1.49194">
        <ele>126.8</ele>
        <time>2015-04-24T14:55:48.000Z</time>
      </trkpt>
      <trkpt lat="48.44942" lon="1.49194">
        <ele>126.7</ele>
        <time>2015-04-24T14:55:49.000Z</time>
      </trkpt>
      <trkpt lat="48.44938" lon="1.49197">
        <ele>126.2</ele>
        <time>2015-04-24T14:55:53.000Z</time>
      </trkpt>
      <trkpt lat="48.44933" lon="1.492">
        <ele>125.9</ele>
        <time>2015-04-24T14:55:57.000Z</time>
      </trkpt>
      <trkpt lat="48.44932" lon="1.49201">
        <ele>125.9</ele>
        <time>2015-04-24T14:55:58.000Z</time>
      </trkpt>
      <trkpt lat="48.44927" lon="1.49205">
        <ele>125.8</ele>
        <time>2015-04-24T14:56:03.000Z</time>
      </trkpt>
      <trkpt lat="48.44919" lon="1.49209">
        <ele>125.8</ele>
        <time>2015-04-24T14:56:09.000Z</time>
      </trkpt>
      <trkpt lat="48.44913" lon="1.49216">
        <ele>126.7</ele>
        <time>2015-04-24T14:56:16.000Z</time>
      </trkpt>
      <trkpt lat="48.44908" lon="1.4922">
        <ele>127.1</ele>
        <time>2015-04-24T14:56:22.000Z</time>
      </trkpt>
      <trkpt lat="48.44904" lon="1.49222">
        <ele>127.1</ele>
        <time>2015-04-24T14:56:27.000Z</time>
      </trkpt>
      <trkpt lat="48.44895" lon="1.49228">
        <ele>126.7</ele>
        <time>2015-04-24T14:56:35.000Z</time>
      </trkpt>
      <trkpt lat="48.44894" lon="1.49228">
        <ele>126.7</ele>
        <time>2015-04-24T14:56:36.000Z</time>
      </trkpt>
      <trkpt lat="48.44886" lon="1.49234">
        <ele>126.7</ele>
        <time>2015-04-24T14:56:43.000Z</time>
      </trkpt>
      <trkpt lat="48.4488" lon="1.4924">
        <ele>126.9</ele>
        <time>2015-04-24T14:56:50.000Z</time>
      </trkpt>
      <trkpt lat="48.44876" lon="1.49244">
        <ele>127.2</ele>
        <time>2015-04-24T14:56:54.000Z</time>
      </trkpt>
      <trkpt lat="48.44872" lon="1.49246">
        <ele>127.4</ele>
        <time>2015-04-24T14:56:57.000Z</time>
      </trkpt>
      <trkpt lat="48.44866" lon="1.49248">
        <ele>127.7</ele>
        <time>2015-04-24T14:57:02.000Z</time>
      </trkpt>
      <trkpt lat="48.44865" lon="1.49249">
        <ele>127.8</ele>
        <time>2015-04-24T14:57:03.000Z</time>
      </trkpt>
      <trkpt lat="48.44863" lon="1.49251">
        <ele>128</ele>
        <time>2015-04-24T14:57:06.000Z</time>
      </trkpt>
      <trkpt lat="48.44858" lon="1.49252">
        <ele>127.6</ele>
        <time>2015-04-24T14:57:09.000Z</time>
      </trkpt>
      <trkpt lat="48.44854" lon="1.49255">
        <ele>127.2</ele>
        <time>2015-04-24T14:57:13.000Z</time>
      </trkpt>
      <trkpt lat="48.44852" lon="1.49256">
        <ele>127</ele>
        <time>2015-04-24T14:57:15.000Z</time>
      </trkpt>
      <trkpt lat="48.44844" lon="1.49261">
        <ele>126.8</ele>
        <time>2015-04-24T14:57:21.000Z</time>
      </trkpt>
      <trkpt lat="48.44838" lon="1.49265">
        <ele>126.9</ele>
        <time>2015-04-24T14:57:27.000Z</time>
      </trkpt>
      <trkpt lat="48.44829" lon="1.4927">
        <ele>127.6</ele>
        <time>2015-04-24T14:57:34.000Z</time>
      </trkpt>
      <trkpt lat="48.44826" lon="1.49272">
        <ele>127.9</ele>
        <time>2015-04-24T14:57:37.000Z</time>
      </trkpt>
      <trkpt lat="48.44822" lon="1.49276">
        <ele>128.6</ele>
        <time>2015-04-24T14:57:41.000Z</time>
      </trkpt>
      <trkpt lat="48.44821" lon="1.49277">
        <ele>128.8</ele>
        <time>2015-04-24T14:57:42.000Z</time>
      </trkpt>
      <trkpt lat="48.44815" lon="1.49279">
        <ele>129</ele>
        <time>2015-04-24T14:57:46.000Z</time>
      </trkpt>
      <trkpt lat="48.44808" lon="1.49284">
        <ele>129</ele>
        <time>2015-04-24T14:57:52.000Z</time>
      </trkpt>
      <trkpt lat="48.44807" lon="1.49285">
        <ele>129</ele>
        <time>2015-04-24T14:57:53.000Z</time>
      </trkpt>
      <trkpt lat="48.44802" lon="1.49289">
        <ele>128.5</ele>
        <time>2015-04-24T14:57:59.000Z</time>
      </trkpt>
      <trkpt lat="48.44798" lon="1.4929">
        <ele>128.1</ele>
        <time>2015-04-24T14:58:02.000Z</time>
      </trkpt>
      <trkpt lat="48.44794" lon="1.49292">
        <ele>127.8</ele>
        <time>2015-04-24T14:58:05.000Z</time>
      </trkpt>
      <trkpt lat="48.44789" lon="1.49295">
        <ele>127.7</ele>
        <time>2015-04-24T14:58:09.000Z</time>
      </trkpt>
      <trkpt lat="48.44781" lon="1.49299">
        <ele>127.8</ele>
        <time>2015-04-24T14:58:16.000Z</time>
      </trkpt>
      <trkpt lat="48.44773" lon="1.49306">
        <ele>128.2</ele>
        <time>2015-04-24T14:58:23.000Z</time>
      </trkpt>
      <trkpt lat="48.44764" lon="1.49313">
        <ele>127.2</ele>
        <time>2015-04-24T14:58:31.000Z</time>
      </trkpt>
      <trkpt lat="48.44757" lon="1.49317">
        <ele>126.7</ele>
        <time>2015-04-24T14:58:37.000Z</time>
      </trkpt>
      <trkpt lat="48.44748" lon="1.49323">
        <ele>127</ele>
        <time>2015-04-24T14:58:44.000Z</time>
      </trkpt>
      <trkpt lat="48.44741" lon="1.49329">
        <ele>126.6</ele>
        <time>2015-04-24T14:58:51.000Z</time>
      </trkpt>
      <trkpt lat="48.44735" lon="1.49337">
        <ele>126.1</ele>
        <time>2015-04-24T14:58:59.000Z</time>
      </trkpt>
      <trkpt lat="48.44723" lon="1.49351">
        <ele>126.3</ele>
        <time>2015-04-24T14:59:10.000Z</time>
      </trkpt>
      <trkpt lat="48.44714" lon="1.4936">
        <ele>127.6</ele>
        <time>2015-04-24T14:59:19.000Z</time>
      </trkpt>
      <trkpt lat="48.44704" lon="1.4937">
        <ele>127.5</ele>
        <time>2015-04-24T14:59:29.000Z</time>
      </trkpt>
      <trkpt lat="48.44697" lon="1.49371">
        <ele>127.4</ele>
        <time>2015-04-24T14:59:36.000Z</time>
      </trkpt>
      <trkpt lat="48.44696" lon="1.49364">
        <ele>127.2</ele>
        <time>2015-04-24T14:59:42.000Z</time>
      </trkpt>
      <trkpt lat="48.44695" lon="1.49363">
        <ele>127.1</ele>
        <time>2015-04-24T14:59:50.000Z</time>
      </trkpt>
      <trkpt lat="48.44696" lon="1.49361">
        <ele>127.1</ele>
        <time>2015-04-24T14:59:57.000Z</time>
      </trkpt>
      <trkpt lat="48.44696" lon="1.49357">
        <ele>126.7</ele>
        <time>2015-04-24T15:00:04.000Z</time>
      </trkpt>
      <trkpt lat="48.44694" lon="1.4935">
        <ele>126.1</ele>
        <time>2015-04-24T15:00:13.000Z</time>
      </trkpt>
      <trkpt lat="48.44693" lon="1.49338">
        <ele>125.4</ele>
        <time>2015-04-24T15:00:23.000Z</time>
      </trkpt>
      <trkpt lat="48.44694" lon="1.49335">
        <ele>125.2</ele>
        <time>2015-04-24T15:00:30.000Z</time>
      </trkpt>
      <trkpt lat="48.44693" lon="1.49332">
        <ele>125.2</ele>
        <time>2015-04-24T15:00:37.000Z</time>
      </trkpt>
      <trkpt lat="48.44695" lon="1.4933">
        <ele>125.2</ele>
        <time>2015-04-24T15:00:43.000Z</time>
      </trkpt>
      <trkpt lat="48.44694" lon="1.49331">
        <ele>125.2</ele>
        <time>2015-04-24T15:00:50.000Z</time>
      </trkpt>
      <trkpt lat="48.44694" lon="1.49332">
        <ele>125.2</ele>
        <time>2015-04-24T15:00:58.000Z</time>
      </trkpt>
      <trkpt lat="48.44694" lon="1.49332">
        <ele>125.1</ele>
        <time>2015-04-24T15:01:11.000Z</time>
      </trkpt>
      <trkpt lat="48.44695" lon="1.49331">
        <ele>125.1</ele>
        <time>2015-04-24T15:01:24.000Z</time>
      </trkpt>
      <trkpt lat="48.44695" lon="1.49331">
        <ele>125.1</ele>
        <time>2015-04-24T15:01:33.000Z</time>
      </trkpt>
      <trkpt lat="48.44694" lon="1.49331">
        <ele>125.2</ele>
        <time>2015-04-24T15:01:42.000Z</time>
      </trkpt>
      <trkpt lat="48.44694" lon="1.49332">
        <ele>125.1</ele>
        <time>2015-04-24T15:02:05.000Z</time>
      </trkpt>
      <trkpt lat="48.44694" lon="1.49334">
        <ele>125.1</ele>
        <time>2015-04-24T15:02:13.000Z</time>
      </trkpt>
      <trkpt lat="48.44694" lon="1.49336">
        <ele>125.2</ele>
        <time>2015-04-24T15:02:21.000Z</time>
      </trkpt>
      <trkpt lat="48.44694" lon="1.49335">
        <ele>125.1</ele>
        <time>2015-04-24T15:02:28.000Z</time>
      </trkpt>
      <trkpt lat="48.44695" lon="1.49335">
        <ele>125.1</ele>
        <time>2015-04-24T15:02:37.000Z</time>
      </trkpt>
      <trkpt lat="48.44694" lon="1.49335">
        <ele>125.1</ele>
        <time>2015-04-24T15:02:44.000Z</time>
      </trkpt>
      <trkpt lat="48.44694" lon="1.49335">
        <ele>125.1</ele>
        <time>2015-04-24T15:02:55.000Z</time>
      </trkpt>
      <trkpt lat="48.44695" lon="1.49334">
        <ele>125</ele>
        <time>2015-04-24T15:03:14.000Z</time>
      </trkpt>
      <trkpt lat="48.44695" lon="1.49334">
        <ele>125</ele>
        <time>2015-04-24T15:03:32.000Z</time>
      </trkpt>
      <trkpt lat="48.44695" lon="1.49334">
        <ele>125</ele>
        <time>2015-04-24T15:03:40.000Z</time>
      </trkpt>
      <trkpt lat="48.44695" lon="1.49337">
        <ele>125.2</ele>
        <time>2015-04-24T15:03:47.000Z</time>
      </trkpt>
      <trkpt lat="48.44695" lon="1.49338">
        <ele>125.3</ele>
        <time>2015-04-24T15:03:54.000Z</time>
      </trkpt>
      <trkpt lat="48.44696" lon="1.49338">
        <ele>125.2</ele>
        <time>2015-04-24T15:04:00.000Z</time>
      </trkpt>
      <trkpt lat="48.44696" lon="1.49337">
        <ele>125.2</ele>
        <time>2015-04-24T15:04:09.000Z</time>
      </trkpt>
      <trkpt lat="48.44696" lon="1.49337">
        <ele>125.2</ele>
        <time>2015-04-24T15:04:16.000Z</time>
      </trkpt>
      <trkpt lat="48.44696" lon="1.49337">
        <ele>125.2</ele>
        <time>2015-04-24T15:04:24.000Z</time>
      </trkpt>
      <trkpt lat="48.44696" lon="1.4933">
        <ele>125.1</ele>
        <time>2015-04-24T15:04:32.000Z</time>
      </trkpt>
      <trkpt lat="48.44696" lon="1.49322">
        <ele>125.7</ele>
        <time>2015-04-24T15:04:39.000Z</time>
      </trkpt>
      <trkpt lat="48.44695" lon="1.4931">
        <ele>126.7</ele>
        <time>2015-04-24T15:04:47.000Z</time>
      </trkpt>
      <trkpt lat="48.44694" lon="1.49305">
        <ele>127</ele>
        <time>2015-04-24T15:04:50.000Z</time>
      </trkpt>
      <trkpt lat="48.44694" lon="1.49298">
        <ele>126.7</ele>
        <time>2015-04-24T15:04:54.000Z</time>
      </trkpt>
      <trkpt lat="48.44694" lon="1.49293">
        <ele>126.6</ele>
        <time>2015-04-24T15:04:58.000Z</time>
      </trkpt>
      <trkpt lat="48.44694" lon="1.49288">
        <ele>126.4</ele>
        <time>2015-04-24T15:05:01.000Z</time>
      </trkpt>
      <trkpt lat="48.44695" lon="1.49278">
        <ele>126</ele>
        <time>2015-04-24T15:05:08.000Z</time>
      </trkpt>
      <trkpt lat="48.44695" lon="1.49275">
        <ele>126</ele>
        <time>2015-04-24T15:05:10.000Z</time>
      </trkpt>
      <trkpt lat="48.44697" lon="1.49268">
        <ele>126.1</ele>
        <time>2015-04-24T15:05:15.000Z</time>
      </trkpt>
      <trkpt lat="48.44698" lon="1.49255">
        <ele>126.1</ele>
        <time>2015-04-24T15:05:23.000Z</time>
      </trkpt>
      <trkpt lat="48.44698" lon="1.49253">
        <ele>126.1</ele>
        <time>2015-04-24T15:05:24.000Z</time>
      </trkpt>
      <trkpt lat="48.44698" lon="1.49239">
        <ele>126.1</ele>
        <time>2015-04-24T15:05:33.000Z</time>
      </trkpt>
      <trkpt lat="48.447" lon="1.49228">
        <ele>126</ele>
        <time>2015-04-24T15:05:40.000Z</time>
      </trkpt>
      <trkpt lat="48.44702" lon="1.49218">
        <ele>125.8</ele>
        <time>2015-04-24T15:05:45.000Z</time>
      </trkpt>
      <trkpt lat="48.44702" lon="1.49215">
        <ele>125.6</ele>
        <time>2015-04-24T15:05:47.000Z</time>
      </trkpt>
      <trkpt lat="48.44703" lon="1.49211">
        <ele>125.4</ele>
        <time>2015-04-24T15:05:49.000Z</time>
      </trkpt>
      <trkpt lat="48.44703" lon="1.49196">
        <ele>124.7</ele>
        <time>2015-04-24T15:05:56.000Z</time>
      </trkpt>
      <trkpt lat="48.44702" lon="1.4919">
        <ele>124.6</ele>
        <time>2015-04-24T15:05:59.000Z</time>
      </trkpt>
      <trkpt lat="48.44703" lon="1.49179">
        <ele>124.8</ele>
        <time>2015-04-24T15:06:04.000Z</time>
      </trkpt>
      <trkpt lat="48.44702" lon="1.49176">
        <ele>124.9</ele>
        <time>2015-04-24T15:06:06.000Z</time>
      </trkpt>
      <trkpt lat="48.44702" lon="1.49169">
        <ele>125</ele>
        <time>2015-04-24T15:06:10.000Z</time>
      </trkpt>
      <trkpt lat="48.44703" lon="1.49165">
        <ele>125.1</ele>
        <time>2015-04-24T15:06:13.000Z</time>
      </trkpt>
      <trkpt lat="48.44704" lon="1.49162">
        <ele>125.3</ele>
        <time>2015-04-24T15:06:16.000Z</time>
      </trkpt>
      <trkpt lat="48.44704" lon="1.49161">
        <ele>125.4</ele>
        <time>2015-04-24T15:06:17.000Z</time>
      </trkpt>
      <trkpt lat="48.44704" lon="1.49148">
        <ele>126.4</ele>
        <time>2015-04-24T15:06:25.000Z</time>
      </trkpt>
      <trkpt lat="48.44704" lon="1.49144">
        <ele>126.6</ele>
        <time>2015-04-24T15:06:27.000Z</time>
      </trkpt>
      <trkpt lat="48.44702" lon="1.49138">
        <ele>127</ele>
        <time>2015-04-24T15:06:31.000Z</time>
      </trkpt>
      <trkpt lat="48.44701" lon="1.49135">
        <ele>127.1</ele>
        <time>2015-04-24T15:06:33.000Z</time>
      </trkpt>
      <trkpt lat="48.447" lon="1.49125">
        <ele>127.5</ele>
        <time>2015-04-24T15:06:39.000Z</time>
      </trkpt>
      <trkpt lat="48.447" lon="1.49122">
        <ele>127.6</ele>
        <time>2015-04-24T15:06:41.000Z</time>
      </trkpt>
      <trkpt lat="48.44701" lon="1.49119">
        <ele>127.7</ele>
        <time>2015-04-24T15:06:43.000Z</time>
      </trkpt>
      <trkpt lat="48.447" lon="1.49116">
        <ele>127.8</ele>
        <time>2015-04-24T15:06:45.000Z</time>
      </trkpt>
      <trkpt lat="48.447" lon="1.49111">
        <ele>128</ele>
        <time>2015-04-24T15:06:48.000Z</time>
      </trkpt>
      <trkpt lat="48.44699" lon="1.49106">
        <ele>128.3</ele>
        <time>2015-04-24T15:06:51.000Z</time>
      </trkpt>
      <trkpt lat="48.44697" lon="1.49098">
        <ele>128.9</ele>
        <time>2015-04-24T15:06:56.000Z</time>
      </trkpt>
      <trkpt lat="48.44698" lon="1.49096">
        <ele>129</ele>
        <time>2015-04-24T15:06:57.000Z</time>
      </trkpt>
      <trkpt lat="48.44698" lon="1.49094">
        <ele>129.1</ele>
        <time>2015-04-24T15:06:58.000Z</time>
      </trkpt>
      <trkpt lat="48.44699" lon="1.49093">
        <ele>129.2</ele>
        <time>2015-04-24T15:06:59.000Z</time>
      </trkpt>
      <trkpt lat="48.44699" lon="1.49087">
        <ele>129.6</ele>
        <time>2015-04-24T15:07:03.000Z</time>
      </trkpt>
      <trkpt lat="48.44698" lon="1.49085">
        <ele>129.7</ele>
        <time>2015-04-24T15:07:04.000Z</time>
      </trkpt>
      <trkpt lat="48.44697" lon="1.49076">
        <ele>130.4</ele>
        <time>2015-04-24T15:07:09.000Z</time>
      </trkpt>
      <trkpt lat="48.44697" lon="1.49072">
        <ele>130.7</ele>
        <time>2015-04-24T15:07:11.000Z</time>
      </trkpt>
      <trkpt lat="48.44697" lon="1.49071">
        <ele>130.8</ele>
        <time>2015-04-24T15:07:12.000Z</time>
      </trkpt>
      <trkpt lat="48.44698" lon="1.49062">
        <ele>131.3</ele>
        <time>2015-04-24T15:07:17.000Z</time>
      </trkpt>
      <trkpt lat="48.44698" lon="1.49049">
        <ele>132.5</ele>
        <time>2015-04-24T15:07:24.000Z</time>
      </trkpt>
      <trkpt lat="48.447" lon="1.4904">
        <ele>133.6</ele>
        <time>2015-04-24T15:07:29.000Z</time>
      </trkpt>
      <trkpt lat="48.44701" lon="1.49037">
        <ele>134</ele>
        <time>2015-04-24T15:07:31.000Z</time>
      </trkpt>
      <trkpt lat="48.44701" lon="1.49033">
        <ele>134.6</ele>
        <time>2015-04-24T15:07:35.000Z</time>
      </trkpt>
      <trkpt lat="48.44701" lon="1.49032">
        <ele>134.7</ele>
        <time>2015-04-24T15:07:37.000Z</time>
      </trkpt>
      <trkpt lat="48.44699" lon="1.4903">
        <ele>134.9</ele>
        <time>2015-04-24T15:07:50.000Z</time>
      </trkpt>
      <trkpt lat="48.44704" lon="1.49023">
        <ele>136.5</ele>
        <time>2015-04-24T15:07:57.000Z</time>
      </trkpt>
      <trkpt lat="48.44706" lon="1.49019">
        <ele>137.2</ele>
        <time>2015-04-24T15:08:00.000Z</time>
      </trkpt>
      <trkpt lat="48.44709" lon="1.49014">
        <ele>138.2</ele>
        <time>2015-04-24T15:08:04.000Z</time>
      </trkpt>
      <trkpt lat="48.44709" lon="1.49013">
        <ele>138.4</ele>
        <time>2015-04-24T15:08:05.000Z</time>
      </trkpt>
      <trkpt lat="48.44711" lon="1.49011">
        <ele>138.8</ele>
        <time>2015-04-24T15:08:07.000Z</time>
      </trkpt>
      <trkpt lat="48.44711" lon="1.49007">
        <ele>139.4</ele>
        <time>2015-04-24T15:08:10.000Z</time>
      </trkpt>
      <trkpt lat="48.4471" lon="1.49007">
        <ele>139.6</ele>
        <time>2015-04-24T15:08:11.000Z</time>
      </trkpt>
      <trkpt lat="48.4471" lon="1.49005">
        <ele>140</ele>
        <time>2015-04-24T15:08:14.000Z</time>
      </trkpt>
      <trkpt lat="48.44709" lon="1.49003">
        <ele>140.3</ele>
        <time>2015-04-24T15:08:15.000Z</time>
      </trkpt>
      <trkpt lat="48.44708" lon="1.49001">
        <ele>140.9</ele>
        <time>2015-04-24T15:08:19.000Z</time>
      </trkpt>
      <trkpt lat="48.44708" lon="1.48997">
        <ele>141.5</ele>
        <time>2015-04-24T15:08:23.000Z</time>
      </trkpt>
      <trkpt lat="48.44708" lon="1.48998">
        <ele>141.5</ele>
        <time>2015-04-24T15:08:24.000Z</time>
      </trkpt>
      <trkpt lat="48.44709" lon="1.48995">
        <ele>142</ele>
        <time>2015-04-24T15:08:28.000Z</time>
      </trkpt>
      <trkpt lat="48.4471" lon="1.48994">
        <ele>142</ele>
        <time>2015-04-24T15:08:29.000Z</time>
      </trkpt>
      <trkpt lat="48.44711" lon="1.48992">
        <ele>142.3</ele>
        <time>2015-04-24T15:08:31.000Z</time>
      </trkpt>
      <trkpt lat="48.44711" lon="1.48991">
        <ele>142.5</ele>
        <time>2015-04-24T15:08:33.000Z</time>
      </trkpt>
      <trkpt lat="48.44711" lon="1.4899">
        <ele>142.6</ele>
        <time>2015-04-24T15:08:34.000Z</time>
      </trkpt>
      <trkpt lat="48.44713" lon="1.48987">
        <ele>143.1</ele>
        <time>2015-04-24T15:08:40.000Z</time>
      </trkpt>
      <trkpt lat="48.44713" lon="1.48985">
        <ele>143.4</ele>
        <time>2015-04-24T15:08:42.000Z</time>
      </trkpt>
      <trkpt lat="48.44715" lon="1.48983">
        <ele>143.4</ele>
        <time>2015-04-24T15:08:45.000Z</time>
      </trkpt>
      <trkpt lat="48.44715" lon="1.48983">
        <ele>143.5</ele>
        <time>2015-04-24T15:08:48.000Z</time>
      </trkpt>
      <trkpt lat="48.44716" lon="1.48982">
        <ele>143.6</ele>
        <time>2015-04-24T15:08:51.000Z</time>
      </trkpt>
      <trkpt lat="48.44715" lon="1.48982">
        <ele>143.6</ele>
        <time>2015-04-24T15:08:57.000Z</time>
      </trkpt>
      <trkpt lat="48.44715" lon="1.48982">
        <ele>143.7</ele>
        <time>2015-04-24T15:09:00.000Z</time>
      </trkpt>
      <trkpt lat="48.44717" lon="1.48981">
        <ele>143.5</ele>
        <time>2015-04-24T15:09:09.000Z</time>
      </trkpt>
      <trkpt lat="48.44721" lon="1.4898">
        <ele>143.1</ele>
        <time>2015-04-24T15:09:19.000Z</time>
      </trkpt>
      <trkpt lat="48.44723" lon="1.48974">
        <ele>143.7</ele>
        <time>2015-04-24T15:09:24.000Z</time>
      </trkpt>
      <trkpt lat="48.44723" lon="1.48973">
        <ele>143.9</ele>
        <time>2015-04-24T15:09:25.000Z</time>
      </trkpt>
      <trkpt lat="48.4472" lon="1.48962">
        <ele>146.2</ele>
        <time>2015-04-24T15:09:32.000Z</time>
      </trkpt>
      <trkpt lat="48.4472" lon="1.48961">
        <ele>146.5</ele>
        <time>2015-04-24T15:09:33.000Z</time>
      </trkpt>
      <trkpt lat="48.44717" lon="1.48954">
        <ele>148</ele>
        <time>2015-04-24T15:09:39.000Z</time>
      </trkpt>
      <trkpt lat="48.44716" lon="1.48952">
        <ele>148.4</ele>
        <time>2015-04-24T15:09:41.000Z</time>
      </trkpt>
      <trkpt lat="48.44715" lon="1.4895">
        <ele>148.9</ele>
        <time>2015-04-24T15:09:44.000Z</time>
      </trkpt>
      <trkpt lat="48.44715" lon="1.48947">
        <ele>149.4</ele>
        <time>2015-04-24T15:09:46.000Z</time>
      </trkpt>
      <trkpt lat="48.44714" lon="1.48946">
        <ele>149.6</ele>
        <time>2015-04-24T15:09:48.000Z</time>
      </trkpt>
      <trkpt lat="48.44714" lon="1.48945">
        <ele>149.8</ele>
        <time>2015-04-24T15:09:49.000Z</time>
      </trkpt>
      <trkpt lat="48.44712" lon="1.48938">
        <ele>150.6</ele>
        <time>2015-04-24T15:09:54.000Z</time>
      </trkpt>
      <trkpt lat="48.44709" lon="1.48931">
        <ele>151.4</ele>
        <time>2015-04-24T15:09:59.000Z</time>
      </trkpt>
      <trkpt lat="48.44707" lon="1.48925">
        <ele>152</ele>
        <time>2015-04-24T15:10:04.000Z</time>
      </trkpt>
      <trkpt lat="48.44704" lon="1.48922">
        <ele>152.3</ele>
        <time>2015-04-24T15:10:07.000Z</time>
      </trkpt>
      <trkpt lat="48.44701" lon="1.48919">
        <ele>152.6</ele>
        <time>2015-04-24T15:10:11.000Z</time>
      </trkpt>
      <trkpt lat="48.447" lon="1.48918">
        <ele>152.7</ele>
        <time>2015-04-24T15:10:17.000Z</time>
      </trkpt>
      <trkpt lat="48.44698" lon="1.48917">
        <ele>152.9</ele>
        <time>2015-04-24T15:10:21.000Z</time>
      </trkpt>
      <trkpt lat="48.44696" lon="1.48914">
        <ele>152.8</ele>
        <time>2015-04-24T15:10:23.000Z</time>
      </trkpt>
      <trkpt lat="48.44695" lon="1.48911">
        <ele>152.6</ele>
        <time>2015-04-24T15:10:25.000Z</time>
      </trkpt>
      <trkpt lat="48.44696" lon="1.48906">
        <ele>152.2</ele>
        <time>2015-04-24T15:10:29.000Z</time>
      </trkpt>
      <trkpt lat="48.44697" lon="1.48917">
        <ele>152.9</ele>
        <time>2015-04-24T15:13:44.000Z</time>
      </trkpt>
      <trkpt lat="48.44696" lon="1.48917">
        <ele>152.9</ele>
        <time>2015-04-24T15:13:45.000Z</time>
      </trkpt>
      <trkpt lat="48.44702" lon="1.48917">
        <ele>152.7</ele>
        <time>2015-04-24T15:13:51.000Z</time>
      </trkpt>
      <trkpt lat="48.44703" lon="1.48918">
        <ele>152.6</ele>
        <time>2015-04-24T15:13:52.000Z</time>
      </trkpt>
      <trkpt lat="48.44703" lon="1.48918">
        <ele>152.6</ele>
        <time>2015-04-24T15:13:55.000Z</time>
      </trkpt>
      <trkpt lat="48.44704" lon="1.48916">
        <ele>152.6</ele>
        <time>2015-04-24T15:13:58.000Z</time>
      </trkpt>
      <trkpt lat="48.44707" lon="1.48914">
        <ele>152.5</ele>
        <time>2015-04-24T15:14:02.000Z</time>
      </trkpt>
      <trkpt lat="48.44713" lon="1.48908">
        <ele>152.3</ele>
        <time>2015-04-24T15:14:09.000Z</time>
      </trkpt>
      <trkpt lat="48.44719" lon="1.48901">
        <ele>152.5</ele>
        <time>2015-04-24T15:14:15.000Z</time>
      </trkpt>
      <trkpt lat="48.44722" lon="1.48897">
        <ele>152.7</ele>
        <time>2015-04-24T15:14:19.000Z</time>
      </trkpt>
      <trkpt lat="48.44723" lon="1.48894">
        <ele>152.8</ele>
        <time>2015-04-24T15:14:22.000Z</time>
      </trkpt>
      <trkpt lat="48.44726" lon="1.48888">
        <ele>153</ele>
        <time>2015-04-24T15:14:26.000Z</time>
      </trkpt>
      <trkpt lat="48.44726" lon="1.48887">
        <ele>153.1</ele>
        <time>2015-04-24T15:14:27.000Z</time>
      </trkpt>
      <trkpt lat="48.44728" lon="1.48886">
        <ele>153.1</ele>
        <time>2015-04-24T15:14:29.000Z</time>
      </trkpt>
      <trkpt lat="48.4473" lon="1.48885">
        <ele>153.2</ele>
        <time>2015-04-24T15:14:32.000Z</time>
      </trkpt>
      <trkpt lat="48.44732" lon="1.48879">
        <ele>153.5</ele>
        <time>2015-04-24T15:14:36.000Z</time>
      </trkpt>
      <trkpt lat="48.44733" lon="1.48878">
        <ele>153.6</ele>
        <time>2015-04-24T15:14:37.000Z</time>
      </trkpt>
      <trkpt lat="48.44736" lon="1.48874">
        <ele>153.8</ele>
        <time>2015-04-24T15:14:40.000Z</time>
      </trkpt>
      <trkpt lat="48.44738" lon="1.48869">
        <ele>154.1</ele>
        <time>2015-04-24T15:14:43.000Z</time>
      </trkpt>
      <trkpt lat="48.44739" lon="1.48868">
        <ele>154.2</ele>
        <time>2015-04-24T15:14:44.000Z</time>
      </trkpt>
      <trkpt lat="48.4474" lon="1.48867">
        <ele>154.3</ele>
        <time>2015-04-24T15:14:45.000Z</time>
      </trkpt>
      <trkpt lat="48.44741" lon="1.48864">
        <ele>154.5</ele>
        <time>2015-04-24T15:14:47.000Z</time>
      </trkpt>
      <trkpt lat="48.44746" lon="1.48855">
        <ele>154.9</ele>
        <time>2015-04-24T15:14:53.000Z</time>
      </trkpt>
      <trkpt lat="48.44745" lon="1.48855">
        <ele>154.9</ele>
        <time>2015-04-24T15:14:54.000Z</time>
      </trkpt>
      <trkpt lat="48.44749" lon="1.48853">
        <ele>155</ele>
        <time>2015-04-24T15:14:56.000Z</time>
      </trkpt>
      <trkpt lat="48.44749" lon="1.48852">
        <ele>155</ele>
        <time>2015-04-24T15:14:58.000Z</time>
      </trkpt>
      <trkpt lat="48.4475" lon="1.4885">
        <ele>155</ele>
        <time>2015-04-24T15:14:59.000Z</time>
      </trkpt>
      <trkpt lat="48.44752" lon="1.48851">
        <ele>155</ele>
        <time>2015-04-24T15:15:03.000Z</time>
      </trkpt>
      <trkpt lat="48.44751" lon="1.48846">
        <ele>155</ele>
        <time>2015-04-24T15:15:09.000Z</time>
      </trkpt>
      <trkpt lat="48.44754" lon="1.48848">
        <ele>155.1</ele>
        <time>2015-04-24T15:15:15.000Z</time>
      </trkpt>
      <trkpt lat="48.44763" lon="1.48856">
        <ele>155.1</ele>
        <time>2015-04-24T15:15:23.000Z</time>
      </trkpt>
      <trkpt lat="48.44769" lon="1.48864">
        <ele>154.9</ele>
        <time>2015-04-24T15:15:33.000Z</time>
      </trkpt>
      <trkpt lat="48.44773" lon="1.48867">
        <ele>154.9</ele>
        <time>2015-04-24T15:15:39.000Z</time>
      </trkpt>
      <trkpt lat="48.44775" lon="1.48868">
        <ele>154.9</ele>
        <time>2015-04-24T15:15:40.000Z</time>
      </trkpt>
      <trkpt lat="48.44779" lon="1.48869">
        <ele>155</ele>
        <time>2015-04-24T15:15:44.000Z</time>
      </trkpt>
      <trkpt lat="48.44779" lon="1.48869">
        <ele>155</ele>
        <time>2015-04-24T15:15:45.000Z</time>
      </trkpt>
      <trkpt lat="48.4478" lon="1.48868">
        <ele>155</ele>
        <time>2015-04-24T15:15:47.000Z</time>
      </trkpt>
      <trkpt lat="48.44786" lon="1.48873">
        <ele>154.9</ele>
        <time>2015-04-24T15:15:54.000Z</time>
      </trkpt>
      <trkpt lat="48.44786" lon="1.48874">
        <ele>154.9</ele>
        <time>2015-04-24T15:15:55.000Z</time>
      </trkpt>
      <trkpt lat="48.44786" lon="1.48877">
        <ele>154.8</ele>
        <time>2015-04-24T15:16:01.000Z</time>
      </trkpt>
      <trkpt lat="48.44787" lon="1.48876">
        <ele>154.8</ele>
        <time>2015-04-24T15:16:07.000Z</time>
      </trkpt>
      <trkpt lat="48.44788" lon="1.48874">
        <ele>154.8</ele>
        <time>2015-04-24T15:16:09.000Z</time>
      </trkpt>
      <trkpt lat="48.4479" lon="1.48873">
        <ele>154.8</ele>
        <time>2015-04-24T15:16:12.000Z</time>
      </trkpt>
      <trkpt lat="48.44791" lon="1.48874">
        <ele>154.8</ele>
        <time>2015-04-24T15:16:13.000Z</time>
      </trkpt>
      <trkpt lat="48.44793" lon="1.48877">
        <ele>154.7</ele>
        <time>2015-04-24T15:16:16.000Z</time>
      </trkpt>
      <trkpt lat="48.44794" lon="1.48878">
        <ele>154.6</ele>
        <time>2015-04-24T15:16:17.000Z</time>
      </trkpt>
      <trkpt lat="48.44796" lon="1.48882">
        <ele>154.5</ele>
        <time>2015-04-24T15:16:21.000Z</time>
      </trkpt>
      <trkpt lat="48.44797" lon="1.48883">
        <ele>154.5</ele>
        <time>2015-04-24T15:16:22.000Z</time>
      </trkpt>
      <trkpt lat="48.44798" lon="1.48883">
        <ele>154.4</ele>
        <time>2015-04-24T15:16:23.000Z</time>
      </trkpt>
      <trkpt lat="48.44803" lon="1.48887">
        <ele>154.2</ele>
        <time>2015-04-24T15:16:28.000Z</time>
      </trkpt>
      <trkpt lat="48.44804" lon="1.48888">
        <ele>154.1</ele>
        <time>2015-04-24T15:16:29.000Z</time>
      </trkpt>
      <trkpt lat="48.44803" lon="1.4889">
        <ele>154</ele>
        <time>2015-04-24T15:16:31.000Z</time>
      </trkpt>
      <trkpt lat="48.44801" lon="1.48894">
        <ele>153.8</ele>
        <time>2015-04-24T15:16:33.000Z</time>
      </trkpt>
      <trkpt lat="48.44796" lon="1.48904">
        <ele>153.4</ele>
        <time>2015-04-24T15:16:39.000Z</time>
      </trkpt>
      <trkpt lat="48.44796" lon="1.48906">
        <ele>153.3</ele>
        <time>2015-04-24T15:16:40.000Z</time>
      </trkpt>
      <trkpt lat="48.44796" lon="1.48908">
        <ele>153.2</ele>
        <time>2015-04-24T15:16:41.000Z</time>
      </trkpt>
      <trkpt lat="48.44796" lon="1.48915">
        <ele>152.8</ele>
        <time>2015-04-24T15:16:45.000Z</time>
      </trkpt>
      <trkpt lat="48.44791" lon="1.48921">
        <ele>152.3</ele>
        <time>2015-04-24T15:16:51.000Z</time>
      </trkpt>
      <trkpt lat="48.44788" lon="1.48921">
        <ele>152.4</ele>
        <time>2015-04-24T15:16:53.000Z</time>
      </trkpt>
      <trkpt lat="48.44787" lon="1.48921">
        <ele>152.5</ele>
        <time>2015-04-24T15:16:54.000Z</time>
      </trkpt>
      <trkpt lat="48.44781" lon="1.4892">
        <ele>153.1</ele>
        <time>2015-04-24T15:16:58.000Z</time>
      </trkpt>
      <trkpt lat="48.4478" lon="1.48922">
        <ele>153</ele>
        <time>2015-04-24T15:16:59.000Z</time>
      </trkpt>
      <trkpt lat="48.44777" lon="1.48929">
        <ele>151.6</ele>
        <time>2015-04-24T15:17:03.000Z</time>
      </trkpt>
      <trkpt lat="48.44775" lon="1.48937">
        <ele>150.1</ele>
        <time>2015-04-24T15:17:06.000Z</time>
      </trkpt>
      <trkpt lat="48.44773" lon="1.48945">
        <ele>148.6</ele>
        <time>2015-04-24T15:17:10.000Z</time>
      </trkpt>
      <trkpt lat="48.44771" lon="1.48951">
        <ele>147.8</ele>
        <time>2015-04-24T15:17:14.000Z</time>
      </trkpt>
      <trkpt lat="48.44772" lon="1.48955">
        <ele>147.5</ele>
        <time>2015-04-24T15:17:16.000Z</time>
      </trkpt>
      <trkpt lat="48.44776" lon="1.48962">
        <ele>147.1</ele>
        <time>2015-04-24T15:17:22.000Z</time>
      </trkpt>
      <trkpt lat="48.44776" lon="1.48961">
        <ele>147.1</ele>
        <time>2015-04-24T15:17:29.000Z</time>
      </trkpt>
      <trkpt lat="48.44776" lon="1.48959">
        <ele>147.3</ele>
        <time>2015-04-24T15:17:30.000Z</time>
      </trkpt>
      <trkpt lat="48.44773" lon="1.4895">
        <ele>148.1</ele>
        <time>2015-04-24T15:17:33.000Z</time>
      </trkpt>
      <trkpt lat="48.44772" lon="1.48935">
        <ele>150.1</ele>
        <time>2015-04-24T15:17:43.000Z</time>
      </trkpt>
      <trkpt lat="48.44775" lon="1.48937">
        <ele>150</ele>
        <time>2015-04-24T15:17:45.000Z</time>
      </trkpt>
      <trkpt lat="48.44785" lon="1.48938">
        <ele>149.7</ele>
        <time>2015-04-24T15:17:48.000Z</time>
      </trkpt>
      <trkpt lat="48.44787" lon="1.48935">
        <ele>150</ele>
        <time>2015-04-24T15:17:49.000Z</time>
      </trkpt>
    </trkseg>
  </trk>
</gpx>